<?xml version="1.0" encoding="UTF-8" standalone="no" ?>
<gpx xmlns="http://www.topografix.com/GPX/1/1" xmlns:xsi="http://www.w3.org/2001/XMLSchema-instance" xsi:schemaLocation="http://www.topografix.com/GPX/1/1 http://www.topografix.com/GPX/1/1/gpx.xsd" version="1.1" creator="VisuGPX - https://www.visugpx.com">
  <metadata>
    <name>VTT - 2eme rando Taulignan</name>
    <desc><![CDATA[2eme rando de Taulignan.
Écourtée pour cause de casse de selle, pas vrai Guedj ;)]]></desc>
  </metadata>
  <trk>
    <name><![CDATA[25-SEP-16 11:47:39]]></name>
    <trkseg>
      <trkpt lat="44.44145" lon="4.97742">
        <ele>165.96</ele>
        <time>2016-09-25T06:24:08Z</time>
      </trkpt>
      <trkpt lat="44.44144" lon="4.97743">
        <ele>163.56</ele>
        <time>2016-09-25T06:24:12Z</time>
      </trkpt>
      <trkpt lat="44.44149" lon="4.97763">
        <ele>166.93</ele>
        <time>2016-09-25T06:40:55Z</time>
      </trkpt>
      <trkpt lat="44.4415" lon="4.9776">
        <ele>166.93</ele>
        <time>2016-09-25T06:40:56Z</time>
      </trkpt>
      <trkpt lat="44.44139" lon="4.97756">
        <ele>170.29</ele>
        <time>2016-09-25T06:41:01Z</time>
      </trkpt>
      <trkpt lat="44.44139" lon="4.97755">
        <ele>173.66</ele>
        <time>2016-09-25T06:41:02Z</time>
      </trkpt>
      <trkpt lat="44.44139" lon="4.97755">
        <ele>176.54</ele>
        <time>2016-09-25T06:41:03Z</time>
      </trkpt>
      <trkpt lat="44.44139" lon="4.97754">
        <ele>179.42</ele>
        <time>2016-09-25T06:41:04Z</time>
      </trkpt>
      <trkpt lat="44.44143" lon="4.97758">
        <ele>185.19</ele>
        <time>2016-09-25T06:41:06Z</time>
      </trkpt>
      <trkpt lat="44.44146" lon="4.97757">
        <ele>190.96</ele>
        <time>2016-09-25T06:41:08Z</time>
      </trkpt>
      <trkpt lat="44.44147" lon="4.97756">
        <ele>196.25</ele>
        <time>2016-09-25T06:41:10Z</time>
      </trkpt>
      <trkpt lat="44.44148" lon="4.97756">
        <ele>200.57</ele>
        <time>2016-09-25T06:41:12Z</time>
      </trkpt>
      <trkpt lat="44.44149" lon="4.97756">
        <ele>204.9</ele>
        <time>2016-09-25T06:41:14Z</time>
      </trkpt>
      <trkpt lat="44.44149" lon="4.97756">
        <ele>209.22</ele>
        <time>2016-09-25T06:41:16Z</time>
      </trkpt>
      <trkpt lat="44.4415" lon="4.97757">
        <ele>213.07</ele>
        <time>2016-09-25T06:41:18Z</time>
      </trkpt>
      <trkpt lat="44.4415" lon="4.97758">
        <ele>216.43</ele>
        <time>2016-09-25T06:41:20Z</time>
      </trkpt>
      <trkpt lat="44.4415" lon="4.97758">
        <ele>219.8</ele>
        <time>2016-09-25T06:41:22Z</time>
      </trkpt>
      <trkpt lat="44.4415" lon="4.97757">
        <ele>223.16</ele>
        <time>2016-09-25T06:41:24Z</time>
      </trkpt>
      <trkpt lat="44.4415" lon="4.97757">
        <ele>227.49</ele>
        <time>2016-09-25T06:41:27Z</time>
      </trkpt>
      <trkpt lat="44.44151" lon="4.97756">
        <ele>231.33</ele>
        <time>2016-09-25T06:41:30Z</time>
      </trkpt>
      <trkpt lat="44.44151" lon="4.97756">
        <ele>234.7</ele>
        <time>2016-09-25T06:41:33Z</time>
      </trkpt>
      <trkpt lat="44.44151" lon="4.97756">
        <ele>238.06</ele>
        <time>2016-09-25T06:41:36Z</time>
      </trkpt>
      <trkpt lat="44.44152" lon="4.97757">
        <ele>241.91</ele>
        <time>2016-09-25T06:41:40Z</time>
      </trkpt>
      <trkpt lat="44.44152" lon="4.97757">
        <ele>245.27</ele>
        <time>2016-09-25T06:41:44Z</time>
      </trkpt>
      <trkpt lat="44.44153" lon="4.97757">
        <ele>248.64</ele>
        <time>2016-09-25T06:41:49Z</time>
      </trkpt>
      <trkpt lat="44.44153" lon="4.97756">
        <ele>251.52</ele>
        <time>2016-09-25T06:41:55Z</time>
      </trkpt>
      <trkpt lat="44.44154" lon="4.97754">
        <ele>254.89</ele>
        <time>2016-09-25T06:42:03Z</time>
      </trkpt>
      <trkpt lat="44.44155" lon="4.97755">
        <ele>257.29</ele>
        <time>2016-09-25T06:42:10Z</time>
      </trkpt>
      <trkpt lat="44.44161" lon="4.97761">
        <ele>258.73</ele>
        <time>2016-09-25T06:42:15Z</time>
      </trkpt>
      <trkpt lat="44.44175" lon="4.97739">
        <ele>261.14</ele>
        <time>2016-09-25T06:42:26Z</time>
      </trkpt>
      <trkpt lat="44.44199" lon="4.97721">
        <ele>263.54</ele>
        <time>2016-09-25T06:42:36Z</time>
      </trkpt>
      <trkpt lat="44.44215" lon="4.97739">
        <ele>266.42</ele>
        <time>2016-09-25T06:42:45Z</time>
      </trkpt>
      <trkpt lat="44.44241" lon="4.97773">
        <ele>267.38</ele>
        <time>2016-09-25T06:42:57Z</time>
      </trkpt>
      <trkpt lat="44.44242" lon="4.97776">
        <ele>267.38</ele>
        <time>2016-09-25T06:42:58Z</time>
      </trkpt>
      <trkpt lat="44.44238" lon="4.97791">
        <ele>267.86</ele>
        <time>2016-09-25T06:43:02Z</time>
      </trkpt>
      <trkpt lat="44.442" lon="4.97861">
        <ele>266.42</ele>
        <time>2016-09-25T06:43:19Z</time>
      </trkpt>
      <trkpt lat="44.44186" lon="4.97886">
        <ele>265.94</ele>
        <time>2016-09-25T06:43:25Z</time>
      </trkpt>
      <trkpt lat="44.44199" lon="4.97912">
        <ele>267.38</ele>
        <time>2016-09-25T06:43:32Z</time>
      </trkpt>
      <trkpt lat="44.44243" lon="4.9796">
        <ele>270.27</ele>
        <time>2016-09-25T06:43:48Z</time>
      </trkpt>
      <trkpt lat="44.44253" lon="4.97972">
        <ele>270.75</ele>
        <time>2016-09-25T06:43:52Z</time>
      </trkpt>
      <trkpt lat="44.44238" lon="4.98013">
        <ele>270.75</ele>
        <time>2016-09-25T06:44:02Z</time>
      </trkpt>
      <trkpt lat="44.44242" lon="4.98033">
        <ele>271.71</ele>
        <time>2016-09-25T06:44:06Z</time>
      </trkpt>
      <trkpt lat="44.4424" lon="4.98062">
        <ele>272.19</ele>
        <time>2016-09-25T06:44:12Z</time>
      </trkpt>
      <trkpt lat="44.44265" lon="4.98111">
        <ele>273.15</ele>
        <time>2016-09-25T06:44:24Z</time>
      </trkpt>
      <trkpt lat="44.44289" lon="4.98139">
        <ele>273.15</ele>
        <time>2016-09-25T06:44:33Z</time>
      </trkpt>
      <trkpt lat="44.4433" lon="4.98161">
        <ele>275.07</ele>
        <time>2016-09-25T06:44:45Z</time>
      </trkpt>
      <trkpt lat="44.44372" lon="4.98181">
        <ele>277</ele>
        <time>2016-09-25T06:44:57Z</time>
      </trkpt>
      <trkpt lat="44.44406" lon="4.98167">
        <ele>279.4</ele>
        <time>2016-09-25T06:45:07Z</time>
      </trkpt>
      <trkpt lat="44.44428" lon="4.98157">
        <ele>280.84</ele>
        <time>2016-09-25T06:45:14Z</time>
      </trkpt>
      <trkpt lat="44.44439" lon="4.98164">
        <ele>280.84</ele>
        <time>2016-09-25T06:45:17Z</time>
      </trkpt>
      <trkpt lat="44.44462" lon="4.98213">
        <ele>281.32</ele>
        <time>2016-09-25T06:45:27Z</time>
      </trkpt>
      <trkpt lat="44.44483" lon="4.98256">
        <ele>281.8</ele>
        <time>2016-09-25T06:45:36Z</time>
      </trkpt>
      <trkpt lat="44.44529" lon="4.98325">
        <ele>283.73</ele>
        <time>2016-09-25T06:45:52Z</time>
      </trkpt>
      <trkpt lat="44.44564" lon="4.9834">
        <ele>286.13</ele>
        <time>2016-09-25T06:46:02Z</time>
      </trkpt>
      <trkpt lat="44.44572" lon="4.98366">
        <ele>287.57</ele>
        <time>2016-09-25T06:46:08Z</time>
      </trkpt>
      <trkpt lat="44.44577" lon="4.98376">
        <ele>288.05</ele>
        <time>2016-09-25T06:46:11Z</time>
      </trkpt>
      <trkpt lat="44.44577" lon="4.98381">
        <ele>288.05</ele>
        <time>2016-09-25T06:46:12Z</time>
      </trkpt>
      <trkpt lat="44.44578" lon="4.98384">
        <ele>288.05</ele>
        <time>2016-09-25T06:46:13Z</time>
      </trkpt>
      <trkpt lat="44.44579" lon="4.98388">
        <ele>288.53</ele>
        <time>2016-09-25T06:46:14Z</time>
      </trkpt>
      <trkpt lat="44.44581" lon="4.98391">
        <ele>289.01</ele>
        <time>2016-09-25T06:46:15Z</time>
      </trkpt>
      <trkpt lat="44.44583" lon="4.98395">
        <ele>289.01</ele>
        <time>2016-09-25T06:46:16Z</time>
      </trkpt>
      <trkpt lat="44.44585" lon="4.98399">
        <ele>289.01</ele>
        <time>2016-09-25T06:46:17Z</time>
      </trkpt>
      <trkpt lat="44.44587" lon="4.98403">
        <ele>289.01</ele>
        <time>2016-09-25T06:46:18Z</time>
      </trkpt>
      <trkpt lat="44.4462" lon="4.98454">
        <ele>290.46</ele>
        <time>2016-09-25T06:46:31Z</time>
      </trkpt>
      <trkpt lat="44.44666" lon="4.98509">
        <ele>293.34</ele>
        <time>2016-09-25T06:46:48Z</time>
      </trkpt>
      <trkpt lat="44.44705" lon="4.9855">
        <ele>294.78</ele>
        <time>2016-09-25T06:47:01Z</time>
      </trkpt>
      <trkpt lat="44.44707" lon="4.98554">
        <ele>295.26</ele>
        <time>2016-09-25T06:47:02Z</time>
      </trkpt>
      <trkpt lat="44.44708" lon="4.98559">
        <ele>295.26</ele>
        <time>2016-09-25T06:47:03Z</time>
      </trkpt>
      <trkpt lat="44.44708" lon="4.98563">
        <ele>295.74</ele>
        <time>2016-09-25T06:47:04Z</time>
      </trkpt>
      <trkpt lat="44.44707" lon="4.98568">
        <ele>295.74</ele>
        <time>2016-09-25T06:47:05Z</time>
      </trkpt>
      <trkpt lat="44.44707" lon="4.98573">
        <ele>295.74</ele>
        <time>2016-09-25T06:47:06Z</time>
      </trkpt>
      <trkpt lat="44.44712" lon="4.98655">
        <ele>297.67</ele>
        <time>2016-09-25T06:47:23Z</time>
      </trkpt>
      <trkpt lat="44.44729" lon="4.98718">
        <ele>299.11</ele>
        <time>2016-09-25T06:47:37Z</time>
      </trkpt>
      <trkpt lat="44.44747" lon="4.98781">
        <ele>301.03</ele>
        <time>2016-09-25T06:47:51Z</time>
      </trkpt>
      <trkpt lat="44.44757" lon="4.9882">
        <ele>301.99</ele>
        <time>2016-09-25T06:48:00Z</time>
      </trkpt>
      <trkpt lat="44.44775" lon="4.98891">
        <ele>303.91</ele>
        <time>2016-09-25T06:48:15Z</time>
      </trkpt>
      <trkpt lat="44.44793" lon="4.98961">
        <ele>306.8</ele>
        <time>2016-09-25T06:48:31Z</time>
      </trkpt>
      <trkpt lat="44.44809" lon="4.99016">
        <ele>309.68</ele>
        <time>2016-09-25T06:48:46Z</time>
      </trkpt>
      <trkpt lat="44.44827" lon="4.99058">
        <ele>311.6</ele>
        <time>2016-09-25T06:48:58Z</time>
      </trkpt>
      <trkpt lat="44.44843" lon="4.99097">
        <ele>314.01</ele>
        <time>2016-09-25T06:49:10Z</time>
      </trkpt>
      <trkpt lat="44.44856" lon="4.9914">
        <ele>316.41</ele>
        <time>2016-09-25T06:49:22Z</time>
      </trkpt>
      <trkpt lat="44.4486" lon="4.99159">
        <ele>316.89</ele>
        <time>2016-09-25T06:49:27Z</time>
      </trkpt>
      <trkpt lat="44.44861" lon="4.99163">
        <ele>316.89</ele>
        <time>2016-09-25T06:49:28Z</time>
      </trkpt>
      <trkpt lat="44.44872" lon="4.99208">
        <ele>318.81</ele>
        <time>2016-09-25T06:49:40Z</time>
      </trkpt>
      <trkpt lat="44.44886" lon="4.99254">
        <ele>320.26</ele>
        <time>2016-09-25T06:49:50Z</time>
      </trkpt>
      <trkpt lat="44.44906" lon="4.9929">
        <ele>322.66</ele>
        <time>2016-09-25T06:50:01Z</time>
      </trkpt>
      <trkpt lat="44.44924" lon="4.99328">
        <ele>324.58</ele>
        <time>2016-09-25T06:50:13Z</time>
      </trkpt>
      <trkpt lat="44.44935" lon="4.99347">
        <ele>326.02</ele>
        <time>2016-09-25T06:50:20Z</time>
      </trkpt>
      <trkpt lat="44.44937" lon="4.99349">
        <ele>326.02</ele>
        <time>2016-09-25T06:50:21Z</time>
      </trkpt>
      <trkpt lat="44.44938" lon="4.99351">
        <ele>326.5</ele>
        <time>2016-09-25T06:50:22Z</time>
      </trkpt>
      <trkpt lat="44.4494" lon="4.99354">
        <ele>326.5</ele>
        <time>2016-09-25T06:50:23Z</time>
      </trkpt>
      <trkpt lat="44.44942" lon="4.99356">
        <ele>326.5</ele>
        <time>2016-09-25T06:50:24Z</time>
      </trkpt>
      <trkpt lat="44.44969" lon="4.99389">
        <ele>329.39</ele>
        <time>2016-09-25T06:50:39Z</time>
      </trkpt>
      <trkpt lat="44.44987" lon="4.99408">
        <ele>331.31</ele>
        <time>2016-09-25T06:50:49Z</time>
      </trkpt>
      <trkpt lat="44.44989" lon="4.9941">
        <ele>331.31</ele>
        <time>2016-09-25T06:50:50Z</time>
      </trkpt>
      <trkpt lat="44.44991" lon="4.99412">
        <ele>331.79</ele>
        <time>2016-09-25T06:50:51Z</time>
      </trkpt>
      <trkpt lat="44.44993" lon="4.99414">
        <ele>331.79</ele>
        <time>2016-09-25T06:50:52Z</time>
      </trkpt>
      <trkpt lat="44.44995" lon="4.99416">
        <ele>332.27</ele>
        <time>2016-09-25T06:50:53Z</time>
      </trkpt>
      <trkpt lat="44.44997" lon="4.99417">
        <ele>332.27</ele>
        <time>2016-09-25T06:50:54Z</time>
      </trkpt>
      <trkpt lat="44.44999" lon="4.99418">
        <ele>332.75</ele>
        <time>2016-09-25T06:50:55Z</time>
      </trkpt>
      <trkpt lat="44.45001" lon="4.99419">
        <ele>332.75</ele>
        <time>2016-09-25T06:50:56Z</time>
      </trkpt>
      <trkpt lat="44.45003" lon="4.9942">
        <ele>332.75</ele>
        <time>2016-09-25T06:50:57Z</time>
      </trkpt>
      <trkpt lat="44.45029" lon="4.99436">
        <ele>336.12</ele>
        <time>2016-09-25T06:51:10Z</time>
      </trkpt>
      <trkpt lat="44.45054" lon="4.99454">
        <ele>338.52</ele>
        <time>2016-09-25T06:51:23Z</time>
      </trkpt>
      <trkpt lat="44.45067" lon="4.99462">
        <ele>339.96</ele>
        <time>2016-09-25T06:51:30Z</time>
      </trkpt>
      <trkpt lat="44.45069" lon="4.99461">
        <ele>340.92</ele>
        <time>2016-09-25T06:51:31Z</time>
      </trkpt>
      <trkpt lat="44.45071" lon="4.99459">
        <ele>340.92</ele>
        <time>2016-09-25T06:51:32Z</time>
      </trkpt>
      <trkpt lat="44.45072" lon="4.99457">
        <ele>340.92</ele>
        <time>2016-09-25T06:51:33Z</time>
      </trkpt>
      <trkpt lat="44.45074" lon="4.99455">
        <ele>340.92</ele>
        <time>2016-09-25T06:51:34Z</time>
      </trkpt>
      <trkpt lat="44.45096" lon="4.99431">
        <ele>342.37</ele>
        <time>2016-09-25T06:51:46Z</time>
      </trkpt>
      <trkpt lat="44.45127" lon="4.99409">
        <ele>343.33</ele>
        <time>2016-09-25T06:52:00Z</time>
      </trkpt>
      <trkpt lat="44.4516" lon="4.99392">
        <ele>344.29</ele>
        <time>2016-09-25T06:52:13Z</time>
      </trkpt>
      <trkpt lat="44.45187" lon="4.99371">
        <ele>345.73</ele>
        <time>2016-09-25T06:52:25Z</time>
      </trkpt>
      <trkpt lat="44.45217" lon="4.99336">
        <ele>346.21</ele>
        <time>2016-09-25T06:52:37Z</time>
      </trkpt>
      <trkpt lat="44.45245" lon="4.99271">
        <ele>348.13</ele>
        <time>2016-09-25T06:52:53Z</time>
      </trkpt>
      <trkpt lat="44.45268" lon="4.99238">
        <ele>348.62</ele>
        <time>2016-09-25T06:53:04Z</time>
      </trkpt>
      <trkpt lat="44.45298" lon="4.9922">
        <ele>351.5</ele>
        <time>2016-09-25T06:53:15Z</time>
      </trkpt>
      <trkpt lat="44.45322" lon="4.99182">
        <ele>351.98</ele>
        <time>2016-09-25T06:53:27Z</time>
      </trkpt>
      <trkpt lat="44.45329" lon="4.99149">
        <ele>351.5</ele>
        <time>2016-09-25T06:53:34Z</time>
      </trkpt>
      <trkpt lat="44.45329" lon="4.99133">
        <ele>351.02</ele>
        <time>2016-09-25T06:53:37Z</time>
      </trkpt>
      <trkpt lat="44.45326" lon="4.99122">
        <ele>350.54</ele>
        <time>2016-09-25T06:53:39Z</time>
      </trkpt>
      <trkpt lat="44.45319" lon="4.99107">
        <ele>350.06</ele>
        <time>2016-09-25T06:53:42Z</time>
      </trkpt>
      <trkpt lat="44.45318" lon="4.99101">
        <ele>350.06</ele>
        <time>2016-09-25T06:53:43Z</time>
      </trkpt>
      <trkpt lat="44.45319" lon="4.99094">
        <ele>349.58</ele>
        <time>2016-09-25T06:53:44Z</time>
      </trkpt>
      <trkpt lat="44.4532" lon="4.99087">
        <ele>349.58</ele>
        <time>2016-09-25T06:53:45Z</time>
      </trkpt>
      <trkpt lat="44.45322" lon="4.9908">
        <ele>349.58</ele>
        <time>2016-09-25T06:53:46Z</time>
      </trkpt>
      <trkpt lat="44.45331" lon="4.99054">
        <ele>349.1</ele>
        <time>2016-09-25T06:53:50Z</time>
      </trkpt>
      <trkpt lat="44.45332" lon="4.99047">
        <ele>349.58</ele>
        <time>2016-09-25T06:53:51Z</time>
      </trkpt>
      <trkpt lat="44.45332" lon="4.99041">
        <ele>349.58</ele>
        <time>2016-09-25T06:53:52Z</time>
      </trkpt>
      <trkpt lat="44.45331" lon="4.99035">
        <ele>349.58</ele>
        <time>2016-09-25T06:53:53Z</time>
      </trkpt>
      <trkpt lat="44.45329" lon="4.99029">
        <ele>349.58</ele>
        <time>2016-09-25T06:53:54Z</time>
      </trkpt>
      <trkpt lat="44.45327" lon="4.99023">
        <ele>349.1</ele>
        <time>2016-09-25T06:53:55Z</time>
      </trkpt>
      <trkpt lat="44.45324" lon="4.99018">
        <ele>349.1</ele>
        <time>2016-09-25T06:53:56Z</time>
      </trkpt>
      <trkpt lat="44.4532" lon="4.99015">
        <ele>349.1</ele>
        <time>2016-09-25T06:53:57Z</time>
      </trkpt>
      <trkpt lat="44.45315" lon="4.99013">
        <ele>348.62</ele>
        <time>2016-09-25T06:53:58Z</time>
      </trkpt>
      <trkpt lat="44.4531" lon="4.99011">
        <ele>348.62</ele>
        <time>2016-09-25T06:53:59Z</time>
      </trkpt>
      <trkpt lat="44.45306" lon="4.99009">
        <ele>348.62</ele>
        <time>2016-09-25T06:54:00Z</time>
      </trkpt>
      <trkpt lat="44.45302" lon="4.99005">
        <ele>348.13</ele>
        <time>2016-09-25T06:54:01Z</time>
      </trkpt>
      <trkpt lat="44.45299" lon="4.99">
        <ele>348.13</ele>
        <time>2016-09-25T06:54:02Z</time>
      </trkpt>
      <trkpt lat="44.45297" lon="4.98994">
        <ele>348.13</ele>
        <time>2016-09-25T06:54:03Z</time>
      </trkpt>
      <trkpt lat="44.45295" lon="4.98988">
        <ele>347.65</ele>
        <time>2016-09-25T06:54:04Z</time>
      </trkpt>
      <trkpt lat="44.45294" lon="4.98982">
        <ele>347.65</ele>
        <time>2016-09-25T06:54:05Z</time>
      </trkpt>
      <trkpt lat="44.45293" lon="4.98975">
        <ele>347.65</ele>
        <time>2016-09-25T06:54:06Z</time>
      </trkpt>
      <trkpt lat="44.45293" lon="4.98969">
        <ele>347.65</ele>
        <time>2016-09-25T06:54:07Z</time>
      </trkpt>
      <trkpt lat="44.45294" lon="4.98962">
        <ele>347.65</ele>
        <time>2016-09-25T06:54:08Z</time>
      </trkpt>
      <trkpt lat="44.45294" lon="4.98956">
        <ele>347.17</ele>
        <time>2016-09-25T06:54:09Z</time>
      </trkpt>
      <trkpt lat="44.45294" lon="4.98919">
        <ele>347.17</ele>
        <time>2016-09-25T06:54:14Z</time>
      </trkpt>
      <trkpt lat="44.45294" lon="4.98912">
        <ele>347.17</ele>
        <time>2016-09-25T06:54:15Z</time>
      </trkpt>
      <trkpt lat="44.45294" lon="4.98883">
        <ele>347.65</ele>
        <time>2016-09-25T06:54:19Z</time>
      </trkpt>
      <trkpt lat="44.45295" lon="4.98863">
        <ele>347.65</ele>
        <time>2016-09-25T06:54:22Z</time>
      </trkpt>
      <trkpt lat="44.45296" lon="4.98857">
        <ele>348.13</ele>
        <time>2016-09-25T06:54:23Z</time>
      </trkpt>
      <trkpt lat="44.45297" lon="4.9885">
        <ele>348.13</ele>
        <time>2016-09-25T06:54:24Z</time>
      </trkpt>
      <trkpt lat="44.453" lon="4.98832">
        <ele>348.62</ele>
        <time>2016-09-25T06:54:27Z</time>
      </trkpt>
      <trkpt lat="44.453" lon="4.98824">
        <ele>348.62</ele>
        <time>2016-09-25T06:54:28Z</time>
      </trkpt>
      <trkpt lat="44.453" lon="4.98817">
        <ele>348.13</ele>
        <time>2016-09-25T06:54:29Z</time>
      </trkpt>
      <trkpt lat="44.45301" lon="4.9881">
        <ele>348.13</ele>
        <time>2016-09-25T06:54:30Z</time>
      </trkpt>
      <trkpt lat="44.45301" lon="4.98802">
        <ele>348.13</ele>
        <time>2016-09-25T06:54:31Z</time>
      </trkpt>
      <trkpt lat="44.453" lon="4.98795">
        <ele>347.65</ele>
        <time>2016-09-25T06:54:32Z</time>
      </trkpt>
      <trkpt lat="44.45299" lon="4.98788">
        <ele>347.65</ele>
        <time>2016-09-25T06:54:33Z</time>
      </trkpt>
      <trkpt lat="44.45297" lon="4.98782">
        <ele>347.65</ele>
        <time>2016-09-25T06:54:34Z</time>
      </trkpt>
      <trkpt lat="44.45296" lon="4.98774">
        <ele>347.17</ele>
        <time>2016-09-25T06:54:35Z</time>
      </trkpt>
      <trkpt lat="44.45295" lon="4.98766">
        <ele>347.17</ele>
        <time>2016-09-25T06:54:36Z</time>
      </trkpt>
      <trkpt lat="44.45293" lon="4.98759">
        <ele>346.69</ele>
        <time>2016-09-25T06:54:37Z</time>
      </trkpt>
      <trkpt lat="44.4529" lon="4.98744">
        <ele>345.25</ele>
        <time>2016-09-25T06:54:39Z</time>
      </trkpt>
      <trkpt lat="44.45289" lon="4.98736">
        <ele>345.25</ele>
        <time>2016-09-25T06:54:40Z</time>
      </trkpt>
      <trkpt lat="44.45288" lon="4.98729">
        <ele>345.25</ele>
        <time>2016-09-25T06:54:41Z</time>
      </trkpt>
      <trkpt lat="44.45286" lon="4.98721">
        <ele>344.77</ele>
        <time>2016-09-25T06:54:42Z</time>
      </trkpt>
      <trkpt lat="44.45283" lon="4.98716">
        <ele>344.77</ele>
        <time>2016-09-25T06:54:43Z</time>
      </trkpt>
      <trkpt lat="44.45281" lon="4.9871">
        <ele>344.77</ele>
        <time>2016-09-25T06:54:44Z</time>
      </trkpt>
      <trkpt lat="44.45279" lon="4.98704">
        <ele>344.29</ele>
        <time>2016-09-25T06:54:45Z</time>
      </trkpt>
      <trkpt lat="44.45277" lon="4.98698">
        <ele>343.81</ele>
        <time>2016-09-25T06:54:46Z</time>
      </trkpt>
      <trkpt lat="44.45275" lon="4.98691">
        <ele>343.33</ele>
        <time>2016-09-25T06:54:47Z</time>
      </trkpt>
      <trkpt lat="44.45273" lon="4.98686">
        <ele>342.85</ele>
        <time>2016-09-25T06:54:48Z</time>
      </trkpt>
      <trkpt lat="44.45256" lon="4.98633">
        <ele>339.96</ele>
        <time>2016-09-25T06:54:56Z</time>
      </trkpt>
      <trkpt lat="44.45251" lon="4.9861">
        <ele>339</ele>
        <time>2016-09-25T06:54:59Z</time>
      </trkpt>
      <trkpt lat="44.45251" lon="4.98602">
        <ele>338.04</ele>
        <time>2016-09-25T06:55:00Z</time>
      </trkpt>
      <trkpt lat="44.45251" lon="4.98571">
        <ele>337.08</ele>
        <time>2016-09-25T06:55:04Z</time>
      </trkpt>
      <trkpt lat="44.4525" lon="4.98564">
        <ele>337.08</ele>
        <time>2016-09-25T06:55:05Z</time>
      </trkpt>
      <trkpt lat="44.45246" lon="4.98551">
        <ele>336.12</ele>
        <time>2016-09-25T06:55:07Z</time>
      </trkpt>
      <trkpt lat="44.45243" lon="4.98545">
        <ele>335.64</ele>
        <time>2016-09-25T06:55:08Z</time>
      </trkpt>
      <trkpt lat="44.45242" lon="4.98539">
        <ele>335.16</ele>
        <time>2016-09-25T06:55:09Z</time>
      </trkpt>
      <trkpt lat="44.4524" lon="4.98534">
        <ele>335.16</ele>
        <time>2016-09-25T06:55:10Z</time>
      </trkpt>
      <trkpt lat="44.45239" lon="4.98528">
        <ele>334.68</ele>
        <time>2016-09-25T06:55:11Z</time>
      </trkpt>
      <trkpt lat="44.45238" lon="4.98522">
        <ele>334.68</ele>
        <time>2016-09-25T06:55:12Z</time>
      </trkpt>
      <trkpt lat="44.45238" lon="4.98515">
        <ele>334.2</ele>
        <time>2016-09-25T06:55:13Z</time>
      </trkpt>
      <trkpt lat="44.45237" lon="4.98508">
        <ele>333.71</ele>
        <time>2016-09-25T06:55:14Z</time>
      </trkpt>
      <trkpt lat="44.45236" lon="4.98486">
        <ele>333.23</ele>
        <time>2016-09-25T06:55:17Z</time>
      </trkpt>
      <trkpt lat="44.45235" lon="4.98478">
        <ele>332.75</ele>
        <time>2016-09-25T06:55:18Z</time>
      </trkpt>
      <trkpt lat="44.45233" lon="4.98472">
        <ele>332.27</ele>
        <time>2016-09-25T06:55:19Z</time>
      </trkpt>
      <trkpt lat="44.4523" lon="4.98465">
        <ele>332.27</ele>
        <time>2016-09-25T06:55:20Z</time>
      </trkpt>
      <trkpt lat="44.45227" lon="4.98459">
        <ele>332.27</ele>
        <time>2016-09-25T06:55:21Z</time>
      </trkpt>
      <trkpt lat="44.45224" lon="4.98455">
        <ele>331.79</ele>
        <time>2016-09-25T06:55:22Z</time>
      </trkpt>
      <trkpt lat="44.45216" lon="4.98422">
        <ele>330.35</ele>
        <time>2016-09-25T06:55:31Z</time>
      </trkpt>
      <trkpt lat="44.45217" lon="4.98403">
        <ele>330.35</ele>
        <time>2016-09-25T06:55:35Z</time>
      </trkpt>
      <trkpt lat="44.45218" lon="4.98397">
        <ele>329.87</ele>
        <time>2016-09-25T06:55:36Z</time>
      </trkpt>
      <trkpt lat="44.45219" lon="4.9839">
        <ele>329.87</ele>
        <time>2016-09-25T06:55:37Z</time>
      </trkpt>
      <trkpt lat="44.4522" lon="4.98384">
        <ele>329.87</ele>
        <time>2016-09-25T06:55:38Z</time>
      </trkpt>
      <trkpt lat="44.4522" lon="4.98377">
        <ele>329.87</ele>
        <time>2016-09-25T06:55:39Z</time>
      </trkpt>
      <trkpt lat="44.4522" lon="4.98363">
        <ele>329.39</ele>
        <time>2016-09-25T06:55:41Z</time>
      </trkpt>
      <trkpt lat="44.45219" lon="4.98338">
        <ele>329.39</ele>
        <time>2016-09-25T06:55:45Z</time>
      </trkpt>
      <trkpt lat="44.45221" lon="4.98319">
        <ele>329.39</ele>
        <time>2016-09-25T06:55:48Z</time>
      </trkpt>
      <trkpt lat="44.45226" lon="4.98254">
        <ele>328.91</ele>
        <time>2016-09-25T06:55:58Z</time>
      </trkpt>
      <trkpt lat="44.45225" lon="4.98248">
        <ele>328.91</ele>
        <time>2016-09-25T06:55:59Z</time>
      </trkpt>
      <trkpt lat="44.45225" lon="4.98242">
        <ele>328.91</ele>
        <time>2016-09-25T06:56:00Z</time>
      </trkpt>
      <trkpt lat="44.45224" lon="4.98235">
        <ele>328.43</ele>
        <time>2016-09-25T06:56:01Z</time>
      </trkpt>
      <trkpt lat="44.45223" lon="4.98229">
        <ele>328.43</ele>
        <time>2016-09-25T06:56:02Z</time>
      </trkpt>
      <trkpt lat="44.45222" lon="4.98223">
        <ele>327.95</ele>
        <time>2016-09-25T06:56:03Z</time>
      </trkpt>
      <trkpt lat="44.45221" lon="4.98216">
        <ele>327.95</ele>
        <time>2016-09-25T06:56:04Z</time>
      </trkpt>
      <trkpt lat="44.4522" lon="4.9821">
        <ele>327.47</ele>
        <time>2016-09-25T06:56:05Z</time>
      </trkpt>
      <trkpt lat="44.45219" lon="4.98203">
        <ele>327.47</ele>
        <time>2016-09-25T06:56:06Z</time>
      </trkpt>
      <trkpt lat="44.45219" lon="4.98196">
        <ele>327.47</ele>
        <time>2016-09-25T06:56:07Z</time>
      </trkpt>
      <trkpt lat="44.45219" lon="4.98189">
        <ele>326.99</ele>
        <time>2016-09-25T06:56:08Z</time>
      </trkpt>
      <trkpt lat="44.45219" lon="4.98182">
        <ele>327.47</ele>
        <time>2016-09-25T06:56:09Z</time>
      </trkpt>
      <trkpt lat="44.4522" lon="4.98175">
        <ele>327.47</ele>
        <time>2016-09-25T06:56:10Z</time>
      </trkpt>
      <trkpt lat="44.45222" lon="4.98168">
        <ele>327.47</ele>
        <time>2016-09-25T06:56:11Z</time>
      </trkpt>
      <trkpt lat="44.45223" lon="4.98161">
        <ele>326.99</ele>
        <time>2016-09-25T06:56:12Z</time>
      </trkpt>
      <trkpt lat="44.45223" lon="4.98154">
        <ele>326.99</ele>
        <time>2016-09-25T06:56:13Z</time>
      </trkpt>
      <trkpt lat="44.45222" lon="4.98147">
        <ele>326.5</ele>
        <time>2016-09-25T06:56:14Z</time>
      </trkpt>
      <trkpt lat="44.45206" lon="4.98057">
        <ele>324.1</ele>
        <time>2016-09-25T06:56:26Z</time>
      </trkpt>
      <trkpt lat="44.45204" lon="4.98049">
        <ele>323.62</ele>
        <time>2016-09-25T06:56:27Z</time>
      </trkpt>
      <trkpt lat="44.45198" lon="4.98028">
        <ele>323.14</ele>
        <time>2016-09-25T06:56:30Z</time>
      </trkpt>
      <trkpt lat="44.45198" lon="4.98021">
        <ele>323.14</ele>
        <time>2016-09-25T06:56:31Z</time>
      </trkpt>
      <trkpt lat="44.45196" lon="4.98006">
        <ele>322.18</ele>
        <time>2016-09-25T06:56:33Z</time>
      </trkpt>
      <trkpt lat="44.45188" lon="4.97966">
        <ele>321.22</ele>
        <time>2016-09-25T06:56:38Z</time>
      </trkpt>
      <trkpt lat="44.45187" lon="4.97958">
        <ele>320.74</ele>
        <time>2016-09-25T06:56:39Z</time>
      </trkpt>
      <trkpt lat="44.45187" lon="4.97949">
        <ele>320.26</ele>
        <time>2016-09-25T06:56:40Z</time>
      </trkpt>
      <trkpt lat="44.45186" lon="4.9794">
        <ele>320.26</ele>
        <time>2016-09-25T06:56:41Z</time>
      </trkpt>
      <trkpt lat="44.45186" lon="4.97932">
        <ele>319.78</ele>
        <time>2016-09-25T06:56:42Z</time>
      </trkpt>
      <trkpt lat="44.45186" lon="4.97923">
        <ele>319.3</ele>
        <time>2016-09-25T06:56:43Z</time>
      </trkpt>
      <trkpt lat="44.45187" lon="4.97872">
        <ele>318.81</ele>
        <time>2016-09-25T06:56:49Z</time>
      </trkpt>
      <trkpt lat="44.4518" lon="4.9784">
        <ele>317.85</ele>
        <time>2016-09-25T06:56:53Z</time>
      </trkpt>
      <trkpt lat="44.45178" lon="4.97833">
        <ele>317.37</ele>
        <time>2016-09-25T06:56:54Z</time>
      </trkpt>
      <trkpt lat="44.45175" lon="4.97826">
        <ele>317.37</ele>
        <time>2016-09-25T06:56:55Z</time>
      </trkpt>
      <trkpt lat="44.45172" lon="4.97819">
        <ele>316.89</ele>
        <time>2016-09-25T06:56:56Z</time>
      </trkpt>
      <trkpt lat="44.4517" lon="4.97813">
        <ele>316.89</ele>
        <time>2016-09-25T06:56:57Z</time>
      </trkpt>
      <trkpt lat="44.45168" lon="4.97806">
        <ele>316.41</ele>
        <time>2016-09-25T06:56:58Z</time>
      </trkpt>
      <trkpt lat="44.45167" lon="4.97798">
        <ele>316.41</ele>
        <time>2016-09-25T06:56:59Z</time>
      </trkpt>
      <trkpt lat="44.4516" lon="4.97697">
        <ele>314.49</ele>
        <time>2016-09-25T06:57:11Z</time>
      </trkpt>
      <trkpt lat="44.45161" lon="4.97688">
        <ele>314.49</ele>
        <time>2016-09-25T06:57:12Z</time>
      </trkpt>
      <trkpt lat="44.45167" lon="4.9764">
        <ele>314.49</ele>
        <time>2016-09-25T06:57:18Z</time>
      </trkpt>
      <trkpt lat="44.45167" lon="4.97632">
        <ele>314.97</ele>
        <time>2016-09-25T06:57:19Z</time>
      </trkpt>
      <trkpt lat="44.45155" lon="4.97511">
        <ele>315.93</ele>
        <time>2016-09-25T06:57:36Z</time>
      </trkpt>
      <trkpt lat="44.45154" lon="4.97507">
        <ele>316.41</ele>
        <time>2016-09-25T06:57:37Z</time>
      </trkpt>
      <trkpt lat="44.45152" lon="4.97505">
        <ele>316.89</ele>
        <time>2016-09-25T06:57:38Z</time>
      </trkpt>
      <trkpt lat="44.45148" lon="4.97505">
        <ele>316.41</ele>
        <time>2016-09-25T06:57:39Z</time>
      </trkpt>
      <trkpt lat="44.45145" lon="4.97506">
        <ele>316.41</ele>
        <time>2016-09-25T06:57:40Z</time>
      </trkpt>
      <trkpt lat="44.4514" lon="4.97505">
        <ele>316.41</ele>
        <time>2016-09-25T06:57:41Z</time>
      </trkpt>
      <trkpt lat="44.45136" lon="4.97505">
        <ele>315.93</ele>
        <time>2016-09-25T06:57:42Z</time>
      </trkpt>
      <trkpt lat="44.45132" lon="4.97506">
        <ele>315.93</ele>
        <time>2016-09-25T06:57:43Z</time>
      </trkpt>
      <trkpt lat="44.45127" lon="4.97505">
        <ele>315.93</ele>
        <time>2016-09-25T06:57:44Z</time>
      </trkpt>
      <trkpt lat="44.45123" lon="4.97504">
        <ele>315.45</ele>
        <time>2016-09-25T06:57:45Z</time>
      </trkpt>
      <trkpt lat="44.45118" lon="4.97503">
        <ele>315.45</ele>
        <time>2016-09-25T06:57:46Z</time>
      </trkpt>
      <trkpt lat="44.45114" lon="4.97501">
        <ele>315.45</ele>
        <time>2016-09-25T06:57:47Z</time>
      </trkpt>
      <trkpt lat="44.4511" lon="4.97498">
        <ele>314.97</ele>
        <time>2016-09-25T06:57:48Z</time>
      </trkpt>
      <trkpt lat="44.45105" lon="4.97495">
        <ele>314.97</ele>
        <time>2016-09-25T06:57:49Z</time>
      </trkpt>
      <trkpt lat="44.451" lon="4.97493">
        <ele>314.49</ele>
        <time>2016-09-25T06:57:50Z</time>
      </trkpt>
      <trkpt lat="44.45095" lon="4.97491">
        <ele>314.01</ele>
        <time>2016-09-25T06:57:51Z</time>
      </trkpt>
      <trkpt lat="44.4509" lon="4.97488">
        <ele>314.01</ele>
        <time>2016-09-25T06:57:52Z</time>
      </trkpt>
      <trkpt lat="44.45085" lon="4.97483">
        <ele>313.53</ele>
        <time>2016-09-25T06:57:53Z</time>
      </trkpt>
      <trkpt lat="44.45081" lon="4.97478">
        <ele>313.53</ele>
        <time>2016-09-25T06:57:54Z</time>
      </trkpt>
      <trkpt lat="44.45078" lon="4.97471">
        <ele>313.53</ele>
        <time>2016-09-25T06:57:55Z</time>
      </trkpt>
      <trkpt lat="44.45076" lon="4.97464">
        <ele>313.05</ele>
        <time>2016-09-25T06:57:56Z</time>
      </trkpt>
      <trkpt lat="44.45075" lon="4.97457">
        <ele>313.05</ele>
        <time>2016-09-25T06:57:57Z</time>
      </trkpt>
      <trkpt lat="44.45074" lon="4.9745">
        <ele>312.57</ele>
        <time>2016-09-25T06:57:58Z</time>
      </trkpt>
      <trkpt lat="44.45066" lon="4.97405">
        <ele>311.12</ele>
        <time>2016-09-25T06:58:04Z</time>
      </trkpt>
      <trkpt lat="44.45065" lon="4.97398">
        <ele>311.12</ele>
        <time>2016-09-25T06:58:05Z</time>
      </trkpt>
      <trkpt lat="44.45066" lon="4.97392">
        <ele>311.12</ele>
        <time>2016-09-25T06:58:06Z</time>
      </trkpt>
      <trkpt lat="44.45068" lon="4.97385">
        <ele>311.6</ele>
        <time>2016-09-25T06:58:07Z</time>
      </trkpt>
      <trkpt lat="44.4507" lon="4.97378">
        <ele>311.6</ele>
        <time>2016-09-25T06:58:08Z</time>
      </trkpt>
      <trkpt lat="44.45073" lon="4.97371">
        <ele>311.6</ele>
        <time>2016-09-25T06:58:09Z</time>
      </trkpt>
      <trkpt lat="44.45079" lon="4.9735">
        <ele>311.6</ele>
        <time>2016-09-25T06:58:12Z</time>
      </trkpt>
      <trkpt lat="44.45081" lon="4.97343">
        <ele>311.6</ele>
        <time>2016-09-25T06:58:13Z</time>
      </trkpt>
      <trkpt lat="44.4509" lon="4.97324">
        <ele>312.09</ele>
        <time>2016-09-25T06:58:16Z</time>
      </trkpt>
      <trkpt lat="44.45093" lon="4.97319">
        <ele>312.09</ele>
        <time>2016-09-25T06:58:17Z</time>
      </trkpt>
      <trkpt lat="44.45096" lon="4.97314">
        <ele>312.09</ele>
        <time>2016-09-25T06:58:18Z</time>
      </trkpt>
      <trkpt lat="44.45099" lon="4.9731">
        <ele>313.05</ele>
        <time>2016-09-25T06:58:19Z</time>
      </trkpt>
      <trkpt lat="44.45102" lon="4.97306">
        <ele>313.05</ele>
        <time>2016-09-25T06:58:20Z</time>
      </trkpt>
      <trkpt lat="44.45108" lon="4.97297">
        <ele>313.53</ele>
        <time>2016-09-25T06:58:22Z</time>
      </trkpt>
      <trkpt lat="44.45112" lon="4.97292">
        <ele>313.53</ele>
        <time>2016-09-25T06:58:23Z</time>
      </trkpt>
      <trkpt lat="44.45127" lon="4.97267">
        <ele>313.53</ele>
        <time>2016-09-25T06:58:28Z</time>
      </trkpt>
      <trkpt lat="44.4513" lon="4.97263">
        <ele>313.53</ele>
        <time>2016-09-25T06:58:29Z</time>
      </trkpt>
      <trkpt lat="44.45136" lon="4.97257">
        <ele>313.53</ele>
        <time>2016-09-25T06:58:31Z</time>
      </trkpt>
      <trkpt lat="44.45139" lon="4.97258">
        <ele>313.53</ele>
        <time>2016-09-25T06:58:32Z</time>
      </trkpt>
      <trkpt lat="44.45142" lon="4.97259">
        <ele>314.01</ele>
        <time>2016-09-25T06:58:33Z</time>
      </trkpt>
      <trkpt lat="44.45145" lon="4.9726">
        <ele>314.01</ele>
        <time>2016-09-25T06:58:34Z</time>
      </trkpt>
      <trkpt lat="44.45148" lon="4.97261">
        <ele>314.01</ele>
        <time>2016-09-25T06:58:35Z</time>
      </trkpt>
      <trkpt lat="44.45154" lon="4.97262">
        <ele>314.49</ele>
        <time>2016-09-25T06:58:37Z</time>
      </trkpt>
      <trkpt lat="44.45182" lon="4.97254">
        <ele>316.89</ele>
        <time>2016-09-25T06:58:46Z</time>
      </trkpt>
      <trkpt lat="44.45203" lon="4.97253">
        <ele>318.81</ele>
        <time>2016-09-25T06:58:53Z</time>
      </trkpt>
      <trkpt lat="44.45206" lon="4.97254">
        <ele>319.3</ele>
        <time>2016-09-25T06:58:54Z</time>
      </trkpt>
      <trkpt lat="44.45209" lon="4.97254">
        <ele>319.78</ele>
        <time>2016-09-25T06:58:55Z</time>
      </trkpt>
      <trkpt lat="44.45244" lon="4.97258">
        <ele>322.18</ele>
        <time>2016-09-25T06:59:08Z</time>
      </trkpt>
      <trkpt lat="44.45273" lon="4.97288">
        <ele>324.58</ele>
        <time>2016-09-25T06:59:20Z</time>
      </trkpt>
      <trkpt lat="44.45276" lon="4.9729">
        <ele>324.58</ele>
        <time>2016-09-25T06:59:21Z</time>
      </trkpt>
      <trkpt lat="44.45278" lon="4.97289">
        <ele>325.06</ele>
        <time>2016-09-25T06:59:22Z</time>
      </trkpt>
      <trkpt lat="44.4528" lon="4.97287">
        <ele>325.06</ele>
        <time>2016-09-25T06:59:23Z</time>
      </trkpt>
      <trkpt lat="44.45282" lon="4.97284">
        <ele>325.06</ele>
        <time>2016-09-25T06:59:24Z</time>
      </trkpt>
      <trkpt lat="44.45284" lon="4.97282">
        <ele>325.54</ele>
        <time>2016-09-25T06:59:25Z</time>
      </trkpt>
      <trkpt lat="44.45286" lon="4.9728">
        <ele>325.54</ele>
        <time>2016-09-25T06:59:26Z</time>
      </trkpt>
      <trkpt lat="44.45291" lon="4.97277">
        <ele>325.54</ele>
        <time>2016-09-25T06:59:28Z</time>
      </trkpt>
      <trkpt lat="44.45297" lon="4.97273">
        <ele>326.5</ele>
        <time>2016-09-25T06:59:31Z</time>
      </trkpt>
      <trkpt lat="44.453" lon="4.97274">
        <ele>326.5</ele>
        <time>2016-09-25T06:59:32Z</time>
      </trkpt>
      <trkpt lat="44.45302" lon="4.97276">
        <ele>326.99</ele>
        <time>2016-09-25T06:59:33Z</time>
      </trkpt>
      <trkpt lat="44.45305" lon="4.97278">
        <ele>326.99</ele>
        <time>2016-09-25T06:59:34Z</time>
      </trkpt>
      <trkpt lat="44.45306" lon="4.97281">
        <ele>327.47</ele>
        <time>2016-09-25T06:59:35Z</time>
      </trkpt>
      <trkpt lat="44.45309" lon="4.97283">
        <ele>327.47</ele>
        <time>2016-09-25T06:59:36Z</time>
      </trkpt>
      <trkpt lat="44.45311" lon="4.97285">
        <ele>327.95</ele>
        <time>2016-09-25T06:59:37Z</time>
      </trkpt>
      <trkpt lat="44.45313" lon="4.97287">
        <ele>327.95</ele>
        <time>2016-09-25T06:59:38Z</time>
      </trkpt>
      <trkpt lat="44.45315" lon="4.97289">
        <ele>327.95</ele>
        <time>2016-09-25T06:59:39Z</time>
      </trkpt>
      <trkpt lat="44.45314" lon="4.97292">
        <ele>328.43</ele>
        <time>2016-09-25T06:59:40Z</time>
      </trkpt>
      <trkpt lat="44.45324" lon="4.97311">
        <ele>328.91</ele>
        <time>2016-09-25T06:59:47Z</time>
      </trkpt>
      <trkpt lat="44.45332" lon="4.97314">
        <ele>329.39</ele>
        <time>2016-09-25T06:59:50Z</time>
      </trkpt>
      <trkpt lat="44.45359" lon="4.97318">
        <ele>331.79</ele>
        <time>2016-09-25T06:59:59Z</time>
      </trkpt>
      <trkpt lat="44.45373" lon="4.97305">
        <ele>332.75</ele>
        <time>2016-09-25T07:00:06Z</time>
      </trkpt>
      <trkpt lat="44.45374" lon="4.97302">
        <ele>333.23</ele>
        <time>2016-09-25T07:00:10Z</time>
      </trkpt>
      <trkpt lat="44.45377" lon="4.97298">
        <ele>333.23</ele>
        <time>2016-09-25T07:00:14Z</time>
      </trkpt>
      <trkpt lat="44.45382" lon="4.97269">
        <ele>333.23</ele>
        <time>2016-09-25T07:00:22Z</time>
      </trkpt>
      <trkpt lat="44.45384" lon="4.97253">
        <ele>332.75</ele>
        <time>2016-09-25T07:00:25Z</time>
      </trkpt>
      <trkpt lat="44.45383" lon="4.97248">
        <ele>332.27</ele>
        <time>2016-09-25T07:00:26Z</time>
      </trkpt>
      <trkpt lat="44.45382" lon="4.97244">
        <ele>332.75</ele>
        <time>2016-09-25T07:00:27Z</time>
      </trkpt>
      <trkpt lat="44.45382" lon="4.97239">
        <ele>333.23</ele>
        <time>2016-09-25T07:00:28Z</time>
      </trkpt>
      <trkpt lat="44.45381" lon="4.97233">
        <ele>332.75</ele>
        <time>2016-09-25T07:00:29Z</time>
      </trkpt>
      <trkpt lat="44.45381" lon="4.97228">
        <ele>332.27</ele>
        <time>2016-09-25T07:00:30Z</time>
      </trkpt>
      <trkpt lat="44.45379" lon="4.97223">
        <ele>332.27</ele>
        <time>2016-09-25T07:00:31Z</time>
      </trkpt>
      <trkpt lat="44.45379" lon="4.97218">
        <ele>332.75</ele>
        <time>2016-09-25T07:00:32Z</time>
      </trkpt>
      <trkpt lat="44.45379" lon="4.97214">
        <ele>332.75</ele>
        <time>2016-09-25T07:00:33Z</time>
      </trkpt>
      <trkpt lat="44.45379" lon="4.9721">
        <ele>332.27</ele>
        <time>2016-09-25T07:00:34Z</time>
      </trkpt>
      <trkpt lat="44.4538" lon="4.97205">
        <ele>332.75</ele>
        <time>2016-09-25T07:00:35Z</time>
      </trkpt>
      <trkpt lat="44.45379" lon="4.97194">
        <ele>331.79</ele>
        <time>2016-09-25T07:00:37Z</time>
      </trkpt>
      <trkpt lat="44.45378" lon="4.97189">
        <ele>331.79</ele>
        <time>2016-09-25T07:00:38Z</time>
      </trkpt>
      <trkpt lat="44.4538" lon="4.97185">
        <ele>331.79</ele>
        <time>2016-09-25T07:00:39Z</time>
      </trkpt>
      <trkpt lat="44.45381" lon="4.97181">
        <ele>331.31</ele>
        <time>2016-09-25T07:00:40Z</time>
      </trkpt>
      <trkpt lat="44.45382" lon="4.97177">
        <ele>330.35</ele>
        <time>2016-09-25T07:00:41Z</time>
      </trkpt>
      <trkpt lat="44.45381" lon="4.97174">
        <ele>330.35</ele>
        <time>2016-09-25T07:00:42Z</time>
      </trkpt>
      <trkpt lat="44.4538" lon="4.97171">
        <ele>330.35</ele>
        <time>2016-09-25T07:00:43Z</time>
      </trkpt>
      <trkpt lat="44.45379" lon="4.97169">
        <ele>331.31</ele>
        <time>2016-09-25T07:00:44Z</time>
      </trkpt>
      <trkpt lat="44.45378" lon="4.97167">
        <ele>331.79</ele>
        <time>2016-09-25T07:00:45Z</time>
      </trkpt>
      <trkpt lat="44.45378" lon="4.97163">
        <ele>331.79</ele>
        <time>2016-09-25T07:00:46Z</time>
      </trkpt>
      <trkpt lat="44.45378" lon="4.97158">
        <ele>331.79</ele>
        <time>2016-09-25T07:00:47Z</time>
      </trkpt>
      <trkpt lat="44.45379" lon="4.97152">
        <ele>331.31</ele>
        <time>2016-09-25T07:00:48Z</time>
      </trkpt>
      <trkpt lat="44.45379" lon="4.97145">
        <ele>330.83</ele>
        <time>2016-09-25T07:00:49Z</time>
      </trkpt>
      <trkpt lat="44.45378" lon="4.97139">
        <ele>330.83</ele>
        <time>2016-09-25T07:00:50Z</time>
      </trkpt>
      <trkpt lat="44.45378" lon="4.97132">
        <ele>330.83</ele>
        <time>2016-09-25T07:00:51Z</time>
      </trkpt>
      <trkpt lat="44.45378" lon="4.97126">
        <ele>331.31</ele>
        <time>2016-09-25T07:00:52Z</time>
      </trkpt>
      <trkpt lat="44.45379" lon="4.9712">
        <ele>330.83</ele>
        <time>2016-09-25T07:00:53Z</time>
      </trkpt>
      <trkpt lat="44.4538" lon="4.97114">
        <ele>330.83</ele>
        <time>2016-09-25T07:00:54Z</time>
      </trkpt>
      <trkpt lat="44.45379" lon="4.97108">
        <ele>330.83</ele>
        <time>2016-09-25T07:00:55Z</time>
      </trkpt>
      <trkpt lat="44.45378" lon="4.97105">
        <ele>330.83</ele>
        <time>2016-09-25T07:00:56Z</time>
      </trkpt>
      <trkpt lat="44.45377" lon="4.97105">
        <ele>331.31</ele>
        <time>2016-09-25T07:00:57Z</time>
      </trkpt>
      <trkpt lat="44.45376" lon="4.97106">
        <ele>331.31</ele>
        <time>2016-09-25T07:00:58Z</time>
      </trkpt>
      <trkpt lat="44.45373" lon="4.97106">
        <ele>330.83</ele>
        <time>2016-09-25T07:00:59Z</time>
      </trkpt>
      <trkpt lat="44.45371" lon="4.97107">
        <ele>330.83</ele>
        <time>2016-09-25T07:01:00Z</time>
      </trkpt>
      <trkpt lat="44.45369" lon="4.97109">
        <ele>330.83</ele>
        <time>2016-09-25T07:01:01Z</time>
      </trkpt>
      <trkpt lat="44.45366" lon="4.9711">
        <ele>330.35</ele>
        <time>2016-09-25T07:01:02Z</time>
      </trkpt>
      <trkpt lat="44.45362" lon="4.9711">
        <ele>329.87</ele>
        <time>2016-09-25T07:01:03Z</time>
      </trkpt>
      <trkpt lat="44.45359" lon="4.97111">
        <ele>329.87</ele>
        <time>2016-09-25T07:01:04Z</time>
      </trkpt>
      <trkpt lat="44.45355" lon="4.97112">
        <ele>329.39</ele>
        <time>2016-09-25T07:01:05Z</time>
      </trkpt>
      <trkpt lat="44.45351" lon="4.97115">
        <ele>328.91</ele>
        <time>2016-09-25T07:01:06Z</time>
      </trkpt>
      <trkpt lat="44.45347" lon="4.97117">
        <ele>328.91</ele>
        <time>2016-09-25T07:01:07Z</time>
      </trkpt>
      <trkpt lat="44.45342" lon="4.97118">
        <ele>328.43</ele>
        <time>2016-09-25T07:01:08Z</time>
      </trkpt>
      <trkpt lat="44.45337" lon="4.97119">
        <ele>327.95</ele>
        <time>2016-09-25T07:01:09Z</time>
      </trkpt>
      <trkpt lat="44.45332" lon="4.9712">
        <ele>327.47</ele>
        <time>2016-09-25T07:01:10Z</time>
      </trkpt>
      <trkpt lat="44.45327" lon="4.9712">
        <ele>326.99</ele>
        <time>2016-09-25T07:01:11Z</time>
      </trkpt>
      <trkpt lat="44.45322" lon="4.97118">
        <ele>326.5</ele>
        <time>2016-09-25T07:01:12Z</time>
      </trkpt>
      <trkpt lat="44.45317" lon="4.97117">
        <ele>326.5</ele>
        <time>2016-09-25T07:01:13Z</time>
      </trkpt>
      <trkpt lat="44.45312" lon="4.97116">
        <ele>326.02</ele>
        <time>2016-09-25T07:01:14Z</time>
      </trkpt>
      <trkpt lat="44.45308" lon="4.97114">
        <ele>326.02</ele>
        <time>2016-09-25T07:01:15Z</time>
      </trkpt>
      <trkpt lat="44.45304" lon="4.97111">
        <ele>325.54</ele>
        <time>2016-09-25T07:01:16Z</time>
      </trkpt>
      <trkpt lat="44.45298" lon="4.97101">
        <ele>324.58</ele>
        <time>2016-09-25T07:01:18Z</time>
      </trkpt>
      <trkpt lat="44.45294" lon="4.97096">
        <ele>324.58</ele>
        <time>2016-09-25T07:01:19Z</time>
      </trkpt>
      <trkpt lat="44.4529" lon="4.97092">
        <ele>324.1</ele>
        <time>2016-09-25T07:01:20Z</time>
      </trkpt>
      <trkpt lat="44.45286" lon="4.97092">
        <ele>324.1</ele>
        <time>2016-09-25T07:01:21Z</time>
      </trkpt>
      <trkpt lat="44.45282" lon="4.97094">
        <ele>323.62</ele>
        <time>2016-09-25T07:01:22Z</time>
      </trkpt>
      <trkpt lat="44.45277" lon="4.97095">
        <ele>323.14</ele>
        <time>2016-09-25T07:01:23Z</time>
      </trkpt>
      <trkpt lat="44.45272" lon="4.97095">
        <ele>322.66</ele>
        <time>2016-09-25T07:01:24Z</time>
      </trkpt>
      <trkpt lat="44.45267" lon="4.97095">
        <ele>322.66</ele>
        <time>2016-09-25T07:01:25Z</time>
      </trkpt>
      <trkpt lat="44.45262" lon="4.97096">
        <ele>322.18</ele>
        <time>2016-09-25T07:01:26Z</time>
      </trkpt>
      <trkpt lat="44.45257" lon="4.97099">
        <ele>322.18</ele>
        <time>2016-09-25T07:01:27Z</time>
      </trkpt>
      <trkpt lat="44.45246" lon="4.97101">
        <ele>320.74</ele>
        <time>2016-09-25T07:01:29Z</time>
      </trkpt>
      <trkpt lat="44.45241" lon="4.97099">
        <ele>320.26</ele>
        <time>2016-09-25T07:01:30Z</time>
      </trkpt>
      <trkpt lat="44.45223" lon="4.97088">
        <ele>318.33</ele>
        <time>2016-09-25T07:01:33Z</time>
      </trkpt>
      <trkpt lat="44.4521" lon="4.97079">
        <ele>317.37</ele>
        <time>2016-09-25T07:01:35Z</time>
      </trkpt>
      <trkpt lat="44.45203" lon="4.97076">
        <ele>316.89</ele>
        <time>2016-09-25T07:01:36Z</time>
      </trkpt>
      <trkpt lat="44.4519" lon="4.97068">
        <ele>316.41</ele>
        <time>2016-09-25T07:01:39Z</time>
      </trkpt>
      <trkpt lat="44.4519" lon="4.97065">
        <ele>315.93</ele>
        <time>2016-09-25T07:01:40Z</time>
      </trkpt>
      <trkpt lat="44.4519" lon="4.97062">
        <ele>316.41</ele>
        <time>2016-09-25T07:01:41Z</time>
      </trkpt>
      <trkpt lat="44.45191" lon="4.97058">
        <ele>315.93</ele>
        <time>2016-09-25T07:01:42Z</time>
      </trkpt>
      <trkpt lat="44.45191" lon="4.97054">
        <ele>315.93</ele>
        <time>2016-09-25T07:01:43Z</time>
      </trkpt>
      <trkpt lat="44.4519" lon="4.9705">
        <ele>315.93</ele>
        <time>2016-09-25T07:01:44Z</time>
      </trkpt>
      <trkpt lat="44.45187" lon="4.97045">
        <ele>315.93</ele>
        <time>2016-09-25T07:01:45Z</time>
      </trkpt>
      <trkpt lat="44.45184" lon="4.9704">
        <ele>315.45</ele>
        <time>2016-09-25T07:01:46Z</time>
      </trkpt>
      <trkpt lat="44.45181" lon="4.97034">
        <ele>314.97</ele>
        <time>2016-09-25T07:01:47Z</time>
      </trkpt>
      <trkpt lat="44.45177" lon="4.9703">
        <ele>314.49</ele>
        <time>2016-09-25T07:01:48Z</time>
      </trkpt>
      <trkpt lat="44.45173" lon="4.97029">
        <ele>314.49</ele>
        <time>2016-09-25T07:01:49Z</time>
      </trkpt>
      <trkpt lat="44.45169" lon="4.97028">
        <ele>314.01</ele>
        <time>2016-09-25T07:01:50Z</time>
      </trkpt>
      <trkpt lat="44.45164" lon="4.97025">
        <ele>313.53</ele>
        <time>2016-09-25T07:01:51Z</time>
      </trkpt>
      <trkpt lat="44.45161" lon="4.97021">
        <ele>313.53</ele>
        <time>2016-09-25T07:01:52Z</time>
      </trkpt>
      <trkpt lat="44.4516" lon="4.97015">
        <ele>313.05</ele>
        <time>2016-09-25T07:01:53Z</time>
      </trkpt>
      <trkpt lat="44.4516" lon="4.9701">
        <ele>313.05</ele>
        <time>2016-09-25T07:01:54Z</time>
      </trkpt>
      <trkpt lat="44.45159" lon="4.97005">
        <ele>313.05</ele>
        <time>2016-09-25T07:01:55Z</time>
      </trkpt>
      <trkpt lat="44.45158" lon="4.97">
        <ele>313.53</ele>
        <time>2016-09-25T07:01:56Z</time>
      </trkpt>
      <trkpt lat="44.45156" lon="4.96995">
        <ele>313.53</ele>
        <time>2016-09-25T07:01:58Z</time>
      </trkpt>
      <trkpt lat="44.45155" lon="4.96992">
        <ele>313.05</ele>
        <time>2016-09-25T07:01:59Z</time>
      </trkpt>
      <trkpt lat="44.45154" lon="4.96987">
        <ele>312.57</ele>
        <time>2016-09-25T07:02:00Z</time>
      </trkpt>
      <trkpt lat="44.45155" lon="4.96983">
        <ele>312.57</ele>
        <time>2016-09-25T07:02:01Z</time>
      </trkpt>
      <trkpt lat="44.45155" lon="4.9698">
        <ele>313.05</ele>
        <time>2016-09-25T07:02:02Z</time>
      </trkpt>
      <trkpt lat="44.45154" lon="4.96976">
        <ele>312.57</ele>
        <time>2016-09-25T07:02:03Z</time>
      </trkpt>
      <trkpt lat="44.45151" lon="4.96975">
        <ele>312.57</ele>
        <time>2016-09-25T07:02:04Z</time>
      </trkpt>
      <trkpt lat="44.45148" lon="4.96973">
        <ele>312.57</ele>
        <time>2016-09-25T07:02:05Z</time>
      </trkpt>
      <trkpt lat="44.45146" lon="4.9697">
        <ele>312.09</ele>
        <time>2016-09-25T07:02:06Z</time>
      </trkpt>
      <trkpt lat="44.4514" lon="4.96964">
        <ele>311.6</ele>
        <time>2016-09-25T07:02:08Z</time>
      </trkpt>
      <trkpt lat="44.45139" lon="4.9696">
        <ele>311.12</ele>
        <time>2016-09-25T07:02:09Z</time>
      </trkpt>
      <trkpt lat="44.45139" lon="4.96957">
        <ele>311.12</ele>
        <time>2016-09-25T07:02:10Z</time>
      </trkpt>
      <trkpt lat="44.45138" lon="4.96954">
        <ele>311.12</ele>
        <time>2016-09-25T07:02:11Z</time>
      </trkpt>
      <trkpt lat="44.45135" lon="4.96952">
        <ele>311.12</ele>
        <time>2016-09-25T07:02:12Z</time>
      </trkpt>
      <trkpt lat="44.45125" lon="4.96947">
        <ele>310.16</ele>
        <time>2016-09-25T07:02:15Z</time>
      </trkpt>
      <trkpt lat="44.45103" lon="4.96949">
        <ele>309.2</ele>
        <time>2016-09-25T07:02:21Z</time>
      </trkpt>
      <trkpt lat="44.451" lon="4.96944">
        <ele>308.72</ele>
        <time>2016-09-25T07:02:22Z</time>
      </trkpt>
      <trkpt lat="44.45092" lon="4.96926">
        <ele>307.76</ele>
        <time>2016-09-25T07:02:25Z</time>
      </trkpt>
      <trkpt lat="44.45089" lon="4.96919">
        <ele>307.28</ele>
        <time>2016-09-25T07:02:26Z</time>
      </trkpt>
      <trkpt lat="44.45086" lon="4.96913">
        <ele>307.28</ele>
        <time>2016-09-25T07:02:27Z</time>
      </trkpt>
      <trkpt lat="44.45083" lon="4.96907">
        <ele>307.28</ele>
        <time>2016-09-25T07:02:28Z</time>
      </trkpt>
      <trkpt lat="44.45079" lon="4.96902">
        <ele>306.8</ele>
        <time>2016-09-25T07:02:29Z</time>
      </trkpt>
      <trkpt lat="44.45076" lon="4.96896">
        <ele>306.8</ele>
        <time>2016-09-25T07:02:30Z</time>
      </trkpt>
      <trkpt lat="44.45073" lon="4.96889">
        <ele>306.32</ele>
        <time>2016-09-25T07:02:31Z</time>
      </trkpt>
      <trkpt lat="44.4507" lon="4.96883">
        <ele>306.32</ele>
        <time>2016-09-25T07:02:32Z</time>
      </trkpt>
      <trkpt lat="44.45068" lon="4.96877">
        <ele>306.32</ele>
        <time>2016-09-25T07:02:33Z</time>
      </trkpt>
      <trkpt lat="44.45052" lon="4.96824">
        <ele>304.88</ele>
        <time>2016-09-25T07:02:44Z</time>
      </trkpt>
      <trkpt lat="44.45047" lon="4.96809">
        <ele>304.39</ele>
        <time>2016-09-25T07:02:47Z</time>
      </trkpt>
      <trkpt lat="44.45046" lon="4.96802">
        <ele>304.39</ele>
        <time>2016-09-25T07:02:48Z</time>
      </trkpt>
      <trkpt lat="44.45045" lon="4.96794">
        <ele>303.43</ele>
        <time>2016-09-25T07:02:49Z</time>
      </trkpt>
      <trkpt lat="44.45044" lon="4.96786">
        <ele>302.95</ele>
        <time>2016-09-25T07:02:50Z</time>
      </trkpt>
      <trkpt lat="44.45042" lon="4.96779">
        <ele>303.43</ele>
        <time>2016-09-25T07:02:51Z</time>
      </trkpt>
      <trkpt lat="44.4504" lon="4.96771">
        <ele>303.43</ele>
        <time>2016-09-25T07:02:52Z</time>
      </trkpt>
      <trkpt lat="44.45036" lon="4.96765">
        <ele>303.43</ele>
        <time>2016-09-25T07:02:53Z</time>
      </trkpt>
      <trkpt lat="44.45031" lon="4.96761">
        <ele>302.95</ele>
        <time>2016-09-25T07:02:54Z</time>
      </trkpt>
      <trkpt lat="44.45025" lon="4.96757">
        <ele>302.47</ele>
        <time>2016-09-25T07:02:55Z</time>
      </trkpt>
      <trkpt lat="44.4502" lon="4.96754">
        <ele>301.99</ele>
        <time>2016-09-25T07:02:56Z</time>
      </trkpt>
      <trkpt lat="44.45015" lon="4.9675">
        <ele>301.99</ele>
        <time>2016-09-25T07:02:57Z</time>
      </trkpt>
      <trkpt lat="44.45012" lon="4.96745">
        <ele>302.47</ele>
        <time>2016-09-25T07:02:58Z</time>
      </trkpt>
      <trkpt lat="44.45009" lon="4.96739">
        <ele>301.99</ele>
        <time>2016-09-25T07:02:59Z</time>
      </trkpt>
      <trkpt lat="44.45006" lon="4.96732">
        <ele>301.51</ele>
        <time>2016-09-25T07:03:00Z</time>
      </trkpt>
      <trkpt lat="44.45003" lon="4.96725">
        <ele>301.03</ele>
        <time>2016-09-25T07:03:01Z</time>
      </trkpt>
      <trkpt lat="44.45" lon="4.96717">
        <ele>300.55</ele>
        <time>2016-09-25T07:03:02Z</time>
      </trkpt>
      <trkpt lat="44.44998" lon="4.96709">
        <ele>300.07</ele>
        <time>2016-09-25T07:03:03Z</time>
      </trkpt>
      <trkpt lat="44.44992" lon="4.96693">
        <ele>300.07</ele>
        <time>2016-09-25T07:03:05Z</time>
      </trkpt>
      <trkpt lat="44.44988" lon="4.96686">
        <ele>300.07</ele>
        <time>2016-09-25T07:03:06Z</time>
      </trkpt>
      <trkpt lat="44.44974" lon="4.96668">
        <ele>299.59</ele>
        <time>2016-09-25T07:03:09Z</time>
      </trkpt>
      <trkpt lat="44.44969" lon="4.96666">
        <ele>299.59</ele>
        <time>2016-09-25T07:03:10Z</time>
      </trkpt>
      <trkpt lat="44.44964" lon="4.96666">
        <ele>300.07</ele>
        <time>2016-09-25T07:03:11Z</time>
      </trkpt>
      <trkpt lat="44.44918" lon="4.96675">
        <ele>300.07</ele>
        <time>2016-09-25T07:03:21Z</time>
      </trkpt>
      <trkpt lat="44.44915" lon="4.96672">
        <ele>300.07</ele>
        <time>2016-09-25T07:03:22Z</time>
      </trkpt>
      <trkpt lat="44.44914" lon="4.96667">
        <ele>300.07</ele>
        <time>2016-09-25T07:03:23Z</time>
      </trkpt>
      <trkpt lat="44.44913" lon="4.96662">
        <ele>300.55</ele>
        <time>2016-09-25T07:03:24Z</time>
      </trkpt>
      <trkpt lat="44.44914" lon="4.96657">
        <ele>300.55</ele>
        <time>2016-09-25T07:03:25Z</time>
      </trkpt>
      <trkpt lat="44.44914" lon="4.9665">
        <ele>300.07</ele>
        <time>2016-09-25T07:03:26Z</time>
      </trkpt>
      <trkpt lat="44.44913" lon="4.96642">
        <ele>299.59</ele>
        <time>2016-09-25T07:03:27Z</time>
      </trkpt>
      <trkpt lat="44.44913" lon="4.96634">
        <ele>299.59</ele>
        <time>2016-09-25T07:03:28Z</time>
      </trkpt>
      <trkpt lat="44.44913" lon="4.96626">
        <ele>299.11</ele>
        <time>2016-09-25T07:03:29Z</time>
      </trkpt>
      <trkpt lat="44.44914" lon="4.96617">
        <ele>299.11</ele>
        <time>2016-09-25T07:03:30Z</time>
      </trkpt>
      <trkpt lat="44.44913" lon="4.96608">
        <ele>298.63</ele>
        <time>2016-09-25T07:03:31Z</time>
      </trkpt>
      <trkpt lat="44.44909" lon="4.96572">
        <ele>298.15</ele>
        <time>2016-09-25T07:03:35Z</time>
      </trkpt>
      <trkpt lat="44.44908" lon="4.96564">
        <ele>298.15</ele>
        <time>2016-09-25T07:03:36Z</time>
      </trkpt>
      <trkpt lat="44.44907" lon="4.96557">
        <ele>297.67</ele>
        <time>2016-09-25T07:03:37Z</time>
      </trkpt>
      <trkpt lat="44.44905" lon="4.9655">
        <ele>297.67</ele>
        <time>2016-09-25T07:03:38Z</time>
      </trkpt>
      <trkpt lat="44.44902" lon="4.96543">
        <ele>297.18</ele>
        <time>2016-09-25T07:03:39Z</time>
      </trkpt>
      <trkpt lat="44.449" lon="4.96536">
        <ele>297.18</ele>
        <time>2016-09-25T07:03:40Z</time>
      </trkpt>
      <trkpt lat="44.44894" lon="4.96517">
        <ele>297.18</ele>
        <time>2016-09-25T07:03:43Z</time>
      </trkpt>
      <trkpt lat="44.44891" lon="4.96512">
        <ele>297.18</ele>
        <time>2016-09-25T07:03:44Z</time>
      </trkpt>
      <trkpt lat="44.44888" lon="4.96507">
        <ele>297.67</ele>
        <time>2016-09-25T07:03:45Z</time>
      </trkpt>
      <trkpt lat="44.44884" lon="4.96503">
        <ele>297.18</ele>
        <time>2016-09-25T07:03:46Z</time>
      </trkpt>
      <trkpt lat="44.4488" lon="4.96499">
        <ele>296.7</ele>
        <time>2016-09-25T07:03:47Z</time>
      </trkpt>
      <trkpt lat="44.44874" lon="4.96491">
        <ele>296.22</ele>
        <time>2016-09-25T07:03:49Z</time>
      </trkpt>
      <trkpt lat="44.44874" lon="4.96485">
        <ele>296.22</ele>
        <time>2016-09-25T07:03:50Z</time>
      </trkpt>
      <trkpt lat="44.44876" lon="4.9648">
        <ele>296.22</ele>
        <time>2016-09-25T07:03:51Z</time>
      </trkpt>
      <trkpt lat="44.44878" lon="4.96475">
        <ele>296.22</ele>
        <time>2016-09-25T07:03:52Z</time>
      </trkpt>
      <trkpt lat="44.44881" lon="4.96469">
        <ele>295.74</ele>
        <time>2016-09-25T07:03:53Z</time>
      </trkpt>
      <trkpt lat="44.44884" lon="4.96463">
        <ele>295.74</ele>
        <time>2016-09-25T07:03:54Z</time>
      </trkpt>
      <trkpt lat="44.44885" lon="4.96459">
        <ele>295.74</ele>
        <time>2016-09-25T07:03:55Z</time>
      </trkpt>
      <trkpt lat="44.44887" lon="4.96455">
        <ele>296.22</ele>
        <time>2016-09-25T07:04:02Z</time>
      </trkpt>
      <trkpt lat="44.44888" lon="4.96453">
        <ele>296.22</ele>
        <time>2016-09-25T07:04:03Z</time>
      </trkpt>
      <trkpt lat="44.44889" lon="4.9645">
        <ele>295.74</ele>
        <time>2016-09-25T07:04:04Z</time>
      </trkpt>
      <trkpt lat="44.4489" lon="4.96447">
        <ele>295.74</ele>
        <time>2016-09-25T07:04:05Z</time>
      </trkpt>
      <trkpt lat="44.44892" lon="4.96442">
        <ele>295.74</ele>
        <time>2016-09-25T07:04:06Z</time>
      </trkpt>
      <trkpt lat="44.44894" lon="4.96437">
        <ele>295.74</ele>
        <time>2016-09-25T07:04:07Z</time>
      </trkpt>
      <trkpt lat="44.44907" lon="4.96403">
        <ele>294.3</ele>
        <time>2016-09-25T07:04:13Z</time>
      </trkpt>
      <trkpt lat="44.44926" lon="4.96351">
        <ele>294.78</ele>
        <time>2016-09-25T07:04:21Z</time>
      </trkpt>
      <trkpt lat="44.44968" lon="4.96236">
        <ele>295.26</ele>
        <time>2016-09-25T07:04:39Z</time>
      </trkpt>
      <trkpt lat="44.44993" lon="4.96165">
        <ele>292.86</ele>
        <time>2016-09-25T07:04:49Z</time>
      </trkpt>
      <trkpt lat="44.44994" lon="4.96157">
        <ele>292.38</ele>
        <time>2016-09-25T07:04:50Z</time>
      </trkpt>
      <trkpt lat="44.44994" lon="4.96149">
        <ele>292.38</ele>
        <time>2016-09-25T07:04:51Z</time>
      </trkpt>
      <trkpt lat="44.44992" lon="4.96142">
        <ele>291.9</ele>
        <time>2016-09-25T07:04:52Z</time>
      </trkpt>
      <trkpt lat="44.4499" lon="4.96135">
        <ele>291.42</ele>
        <time>2016-09-25T07:04:53Z</time>
      </trkpt>
      <trkpt lat="44.44988" lon="4.96129">
        <ele>290.94</ele>
        <time>2016-09-25T07:04:54Z</time>
      </trkpt>
      <trkpt lat="44.44989" lon="4.96124">
        <ele>290.94</ele>
        <time>2016-09-25T07:04:55Z</time>
      </trkpt>
      <trkpt lat="44.44991" lon="4.96122">
        <ele>290.46</ele>
        <time>2016-09-25T07:04:56Z</time>
      </trkpt>
      <trkpt lat="44.44994" lon="4.96121">
        <ele>290.46</ele>
        <time>2016-09-25T07:04:57Z</time>
      </trkpt>
      <trkpt lat="44.44998" lon="4.96122">
        <ele>289.49</ele>
        <time>2016-09-25T07:04:58Z</time>
      </trkpt>
      <trkpt lat="44.45002" lon="4.96124">
        <ele>289.49</ele>
        <time>2016-09-25T07:04:59Z</time>
      </trkpt>
      <trkpt lat="44.45006" lon="4.96127">
        <ele>289.01</ele>
        <time>2016-09-25T07:05:00Z</time>
      </trkpt>
      <trkpt lat="44.4501" lon="4.9613">
        <ele>288.53</ele>
        <time>2016-09-25T07:05:01Z</time>
      </trkpt>
      <trkpt lat="44.45015" lon="4.96134">
        <ele>288.05</ele>
        <time>2016-09-25T07:05:02Z</time>
      </trkpt>
      <trkpt lat="44.4502" lon="4.96137">
        <ele>287.57</ele>
        <time>2016-09-25T07:05:03Z</time>
      </trkpt>
      <trkpt lat="44.45026" lon="4.96139">
        <ele>287.09</ele>
        <time>2016-09-25T07:05:04Z</time>
      </trkpt>
      <trkpt lat="44.45033" lon="4.96142">
        <ele>286.61</ele>
        <time>2016-09-25T07:05:05Z</time>
      </trkpt>
      <trkpt lat="44.45059" lon="4.96153">
        <ele>284.21</ele>
        <time>2016-09-25T07:05:09Z</time>
      </trkpt>
      <trkpt lat="44.45079" lon="4.96159">
        <ele>282.77</ele>
        <time>2016-09-25T07:05:12Z</time>
      </trkpt>
      <trkpt lat="44.45166" lon="4.96174">
        <ele>281.32</ele>
        <time>2016-09-25T07:05:26Z</time>
      </trkpt>
      <trkpt lat="44.4521" lon="4.96174">
        <ele>280.84</ele>
        <time>2016-09-25T07:05:33Z</time>
      </trkpt>
      <trkpt lat="44.45228" lon="4.9617">
        <ele>279.88</ele>
        <time>2016-09-25T07:05:36Z</time>
      </trkpt>
      <trkpt lat="44.45234" lon="4.96167">
        <ele>279.4</ele>
        <time>2016-09-25T07:05:37Z</time>
      </trkpt>
      <trkpt lat="44.45312" lon="4.96134">
        <ele>277.96</ele>
        <time>2016-09-25T07:05:50Z</time>
      </trkpt>
      <trkpt lat="44.45331" lon="4.96128">
        <ele>277</ele>
        <time>2016-09-25T07:05:53Z</time>
      </trkpt>
      <trkpt lat="44.45337" lon="4.96125">
        <ele>277</ele>
        <time>2016-09-25T07:05:54Z</time>
      </trkpt>
      <trkpt lat="44.45394" lon="4.96103">
        <ele>279.4</ele>
        <time>2016-09-25T07:06:05Z</time>
      </trkpt>
      <trkpt lat="44.45464" lon="4.96071">
        <ele>282.28</ele>
        <time>2016-09-25T07:06:22Z</time>
      </trkpt>
      <trkpt lat="44.4552" lon="4.9605">
        <ele>283.25</ele>
        <time>2016-09-25T07:06:36Z</time>
      </trkpt>
      <trkpt lat="44.45553" lon="4.96037">
        <ele>284.21</ele>
        <time>2016-09-25T07:06:44Z</time>
      </trkpt>
      <trkpt lat="44.45557" lon="4.96035">
        <ele>284.69</ele>
        <time>2016-09-25T07:06:45Z</time>
      </trkpt>
      <trkpt lat="44.45561" lon="4.96031">
        <ele>284.69</ele>
        <time>2016-09-25T07:06:46Z</time>
      </trkpt>
      <trkpt lat="44.45563" lon="4.96027">
        <ele>285.17</ele>
        <time>2016-09-25T07:06:47Z</time>
      </trkpt>
      <trkpt lat="44.45565" lon="4.96022">
        <ele>285.17</ele>
        <time>2016-09-25T07:06:48Z</time>
      </trkpt>
      <trkpt lat="44.45567" lon="4.96017">
        <ele>285.65</ele>
        <time>2016-09-25T07:06:49Z</time>
      </trkpt>
      <trkpt lat="44.45571" lon="4.96007">
        <ele>285.65</ele>
        <time>2016-09-25T07:06:51Z</time>
      </trkpt>
      <trkpt lat="44.45574" lon="4.96002">
        <ele>286.13</ele>
        <time>2016-09-25T07:06:52Z</time>
      </trkpt>
      <trkpt lat="44.45616" lon="4.9591">
        <ele>288.05</ele>
        <time>2016-09-25T07:07:11Z</time>
      </trkpt>
      <trkpt lat="44.4562" lon="4.959">
        <ele>288.05</ele>
        <time>2016-09-25T07:07:13Z</time>
      </trkpt>
      <trkpt lat="44.45623" lon="4.95896">
        <ele>288.05</ele>
        <time>2016-09-25T07:07:14Z</time>
      </trkpt>
      <trkpt lat="44.45626" lon="4.95892">
        <ele>288.05</ele>
        <time>2016-09-25T07:07:15Z</time>
      </trkpt>
      <trkpt lat="44.45629" lon="4.95889">
        <ele>288.53</ele>
        <time>2016-09-25T07:07:16Z</time>
      </trkpt>
      <trkpt lat="44.45633" lon="4.95887">
        <ele>288.53</ele>
        <time>2016-09-25T07:07:17Z</time>
      </trkpt>
      <trkpt lat="44.45663" lon="4.95859">
        <ele>289.49</ele>
        <time>2016-09-25T07:07:27Z</time>
      </trkpt>
      <trkpt lat="44.45667" lon="4.95858">
        <ele>289.49</ele>
        <time>2016-09-25T07:07:28Z</time>
      </trkpt>
      <trkpt lat="44.45672" lon="4.95858">
        <ele>289.01</ele>
        <time>2016-09-25T07:07:29Z</time>
      </trkpt>
      <trkpt lat="44.45676" lon="4.95858">
        <ele>289.01</ele>
        <time>2016-09-25T07:07:30Z</time>
      </trkpt>
      <trkpt lat="44.4568" lon="4.9586">
        <ele>289.01</ele>
        <time>2016-09-25T07:07:31Z</time>
      </trkpt>
      <trkpt lat="44.45684" lon="4.95862">
        <ele>288.53</ele>
        <time>2016-09-25T07:07:32Z</time>
      </trkpt>
      <trkpt lat="44.45688" lon="4.95863">
        <ele>289.01</ele>
        <time>2016-09-25T07:07:33Z</time>
      </trkpt>
      <trkpt lat="44.45692" lon="4.95865">
        <ele>289.01</ele>
        <time>2016-09-25T07:07:34Z</time>
      </trkpt>
      <trkpt lat="44.45696" lon="4.95867">
        <ele>288.53</ele>
        <time>2016-09-25T07:07:35Z</time>
      </trkpt>
      <trkpt lat="44.45729" lon="4.95884">
        <ele>285.65</ele>
        <time>2016-09-25T07:07:42Z</time>
      </trkpt>
      <trkpt lat="44.45735" lon="4.95886">
        <ele>284.69</ele>
        <time>2016-09-25T07:07:43Z</time>
      </trkpt>
      <trkpt lat="44.45742" lon="4.95886">
        <ele>284.21</ele>
        <time>2016-09-25T07:07:44Z</time>
      </trkpt>
      <trkpt lat="44.45748" lon="4.95884">
        <ele>283.73</ele>
        <time>2016-09-25T07:07:45Z</time>
      </trkpt>
      <trkpt lat="44.45754" lon="4.95882">
        <ele>283.25</ele>
        <time>2016-09-25T07:07:46Z</time>
      </trkpt>
      <trkpt lat="44.45759" lon="4.95877">
        <ele>282.77</ele>
        <time>2016-09-25T07:07:47Z</time>
      </trkpt>
      <trkpt lat="44.45763" lon="4.9587">
        <ele>282.28</ele>
        <time>2016-09-25T07:07:48Z</time>
      </trkpt>
      <trkpt lat="44.45775" lon="4.95848">
        <ele>280.84</ele>
        <time>2016-09-25T07:07:51Z</time>
      </trkpt>
      <trkpt lat="44.45778" lon="4.9584">
        <ele>280.84</ele>
        <time>2016-09-25T07:07:52Z</time>
      </trkpt>
      <trkpt lat="44.45779" lon="4.95832">
        <ele>280.36</ele>
        <time>2016-09-25T07:07:53Z</time>
      </trkpt>
      <trkpt lat="44.45779" lon="4.95824">
        <ele>280.36</ele>
        <time>2016-09-25T07:07:54Z</time>
      </trkpt>
      <trkpt lat="44.4578" lon="4.95818">
        <ele>280.36</ele>
        <time>2016-09-25T07:07:55Z</time>
      </trkpt>
      <trkpt lat="44.45782" lon="4.95815">
        <ele>280.36</ele>
        <time>2016-09-25T07:07:56Z</time>
      </trkpt>
      <trkpt lat="44.45784" lon="4.95813">
        <ele>280.84</ele>
        <time>2016-09-25T07:07:57Z</time>
      </trkpt>
      <trkpt lat="44.45786" lon="4.95814">
        <ele>281.32</ele>
        <time>2016-09-25T07:07:58Z</time>
      </trkpt>
      <trkpt lat="44.45789" lon="4.95814">
        <ele>281.8</ele>
        <time>2016-09-25T07:07:59Z</time>
      </trkpt>
      <trkpt lat="44.45791" lon="4.95815">
        <ele>281.8</ele>
        <time>2016-09-25T07:08:00Z</time>
      </trkpt>
      <trkpt lat="44.45826" lon="4.95812">
        <ele>284.69</ele>
        <time>2016-09-25T07:08:11Z</time>
      </trkpt>
      <trkpt lat="44.4587" lon="4.95817">
        <ele>286.61</ele>
        <time>2016-09-25T07:08:24Z</time>
      </trkpt>
      <trkpt lat="44.45924" lon="4.95827">
        <ele>288.53</ele>
        <time>2016-09-25T07:08:39Z</time>
      </trkpt>
      <trkpt lat="44.45972" lon="4.95835">
        <ele>290.94</ele>
        <time>2016-09-25T07:08:53Z</time>
      </trkpt>
      <trkpt lat="44.46024" lon="4.95846">
        <ele>292.38</ele>
        <time>2016-09-25T07:09:08Z</time>
      </trkpt>
      <trkpt lat="44.46051" lon="4.95868">
        <ele>293.34</ele>
        <time>2016-09-25T07:09:18Z</time>
      </trkpt>
      <trkpt lat="44.46096" lon="4.95891">
        <ele>294.78</ele>
        <time>2016-09-25T07:09:31Z</time>
      </trkpt>
      <trkpt lat="44.46151" lon="4.95924">
        <ele>296.7</ele>
        <time>2016-09-25T07:09:48Z</time>
      </trkpt>
      <trkpt lat="44.46199" lon="4.95962">
        <ele>298.63</ele>
        <time>2016-09-25T07:10:05Z</time>
      </trkpt>
      <trkpt lat="44.46233" lon="4.95992">
        <ele>300.07</ele>
        <time>2016-09-25T07:10:18Z</time>
      </trkpt>
      <trkpt lat="44.46282" lon="4.96018">
        <ele>303.43</ele>
        <time>2016-09-25T07:10:35Z</time>
      </trkpt>
      <trkpt lat="44.46303" lon="4.96026">
        <ele>305.36</ele>
        <time>2016-09-25T07:10:43Z</time>
      </trkpt>
      <trkpt lat="44.46305" lon="4.96024">
        <ele>305.36</ele>
        <time>2016-09-25T07:10:44Z</time>
      </trkpt>
      <trkpt lat="44.46307" lon="4.96021">
        <ele>305.84</ele>
        <time>2016-09-25T07:10:45Z</time>
      </trkpt>
      <trkpt lat="44.46335" lon="4.9598">
        <ele>306.8</ele>
        <time>2016-09-25T07:10:57Z</time>
      </trkpt>
      <trkpt lat="44.4635" lon="4.95924">
        <ele>307.76</ele>
        <time>2016-09-25T07:11:09Z</time>
      </trkpt>
      <trkpt lat="44.46352" lon="4.95838">
        <ele>308.24</ele>
        <time>2016-09-25T07:11:24Z</time>
      </trkpt>
      <trkpt lat="44.46353" lon="4.95833">
        <ele>308.24</ele>
        <time>2016-09-25T07:11:25Z</time>
      </trkpt>
      <trkpt lat="44.46354" lon="4.95827">
        <ele>308.24</ele>
        <time>2016-09-25T07:11:26Z</time>
      </trkpt>
      <trkpt lat="44.46355" lon="4.95815">
        <ele>308.24</ele>
        <time>2016-09-25T07:11:28Z</time>
      </trkpt>
      <trkpt lat="44.46379" lon="4.95724">
        <ele>307.76</ele>
        <time>2016-09-25T07:11:43Z</time>
      </trkpt>
      <trkpt lat="44.46402" lon="4.95664">
        <ele>308.24</ele>
        <time>2016-09-25T07:11:54Z</time>
      </trkpt>
      <trkpt lat="44.46405" lon="4.95659">
        <ele>307.76</ele>
        <time>2016-09-25T07:11:55Z</time>
      </trkpt>
      <trkpt lat="44.46409" lon="4.95656">
        <ele>308.24</ele>
        <time>2016-09-25T07:11:56Z</time>
      </trkpt>
      <trkpt lat="44.46412" lon="4.95655">
        <ele>307.76</ele>
        <time>2016-09-25T07:11:57Z</time>
      </trkpt>
      <trkpt lat="44.46417" lon="4.95655">
        <ele>308.24</ele>
        <time>2016-09-25T07:11:58Z</time>
      </trkpt>
      <trkpt lat="44.46421" lon="4.95657">
        <ele>308.24</ele>
        <time>2016-09-25T07:11:59Z</time>
      </trkpt>
      <trkpt lat="44.46425" lon="4.95659">
        <ele>308.24</ele>
        <time>2016-09-25T07:12:00Z</time>
      </trkpt>
      <trkpt lat="44.46429" lon="4.95661">
        <ele>308.24</ele>
        <time>2016-09-25T07:12:01Z</time>
      </trkpt>
      <trkpt lat="44.46445" lon="4.95665">
        <ele>309.2</ele>
        <time>2016-09-25T07:12:05Z</time>
      </trkpt>
      <trkpt lat="44.46449" lon="4.95664">
        <ele>309.2</ele>
        <time>2016-09-25T07:12:06Z</time>
      </trkpt>
      <trkpt lat="44.46452" lon="4.95663">
        <ele>309.2</ele>
        <time>2016-09-25T07:12:07Z</time>
      </trkpt>
      <trkpt lat="44.46456" lon="4.9566">
        <ele>309.2</ele>
        <time>2016-09-25T07:12:08Z</time>
      </trkpt>
      <trkpt lat="44.46459" lon="4.95658">
        <ele>309.68</ele>
        <time>2016-09-25T07:12:09Z</time>
      </trkpt>
      <trkpt lat="44.46462" lon="4.95656">
        <ele>310.16</ele>
        <time>2016-09-25T07:12:10Z</time>
      </trkpt>
      <trkpt lat="44.46465" lon="4.95653">
        <ele>310.16</ele>
        <time>2016-09-25T07:12:11Z</time>
      </trkpt>
      <trkpt lat="44.46468" lon="4.9565">
        <ele>310.64</ele>
        <time>2016-09-25T07:12:12Z</time>
      </trkpt>
      <trkpt lat="44.4647" lon="4.95646">
        <ele>311.12</ele>
        <time>2016-09-25T07:12:13Z</time>
      </trkpt>
      <trkpt lat="44.46472" lon="4.95642">
        <ele>311.6</ele>
        <time>2016-09-25T07:12:14Z</time>
      </trkpt>
      <trkpt lat="44.46486" lon="4.95589">
        <ele>313.05</ele>
        <time>2016-09-25T07:12:23Z</time>
      </trkpt>
      <trkpt lat="44.46507" lon="4.95495">
        <ele>311.6</ele>
        <time>2016-09-25T07:12:38Z</time>
      </trkpt>
      <trkpt lat="44.46508" lon="4.9549">
        <ele>312.09</ele>
        <time>2016-09-25T07:12:39Z</time>
      </trkpt>
      <trkpt lat="44.4651" lon="4.95485">
        <ele>311.6</ele>
        <time>2016-09-25T07:12:40Z</time>
      </trkpt>
      <trkpt lat="44.46513" lon="4.95482">
        <ele>312.09</ele>
        <time>2016-09-25T07:12:41Z</time>
      </trkpt>
      <trkpt lat="44.46516" lon="4.9548">
        <ele>312.09</ele>
        <time>2016-09-25T07:12:42Z</time>
      </trkpt>
      <trkpt lat="44.46519" lon="4.95479">
        <ele>312.57</ele>
        <time>2016-09-25T07:12:43Z</time>
      </trkpt>
      <trkpt lat="44.46523" lon="4.95479">
        <ele>313.05</ele>
        <time>2016-09-25T07:12:44Z</time>
      </trkpt>
      <trkpt lat="44.46526" lon="4.9548">
        <ele>313.05</ele>
        <time>2016-09-25T07:12:45Z</time>
      </trkpt>
      <trkpt lat="44.46528" lon="4.9548">
        <ele>313.05</ele>
        <time>2016-09-25T07:12:46Z</time>
      </trkpt>
      <trkpt lat="44.46531" lon="4.9548">
        <ele>313.53</ele>
        <time>2016-09-25T07:12:47Z</time>
      </trkpt>
      <trkpt lat="44.46571" lon="4.95494">
        <ele>316.89</ele>
        <time>2016-09-25T07:13:00Z</time>
      </trkpt>
      <trkpt lat="44.46598" lon="4.95508">
        <ele>319.78</ele>
        <time>2016-09-25T07:13:12Z</time>
      </trkpt>
      <trkpt lat="44.46627" lon="4.95523">
        <ele>323.14</ele>
        <time>2016-09-25T07:13:26Z</time>
      </trkpt>
      <trkpt lat="44.46663" lon="4.95537">
        <ele>326.02</ele>
        <time>2016-09-25T07:13:40Z</time>
      </trkpt>
      <trkpt lat="44.4669" lon="4.95551">
        <ele>328.91</ele>
        <time>2016-09-25T07:13:53Z</time>
      </trkpt>
      <trkpt lat="44.46726" lon="4.95569">
        <ele>332.27</ele>
        <time>2016-09-25T07:14:10Z</time>
      </trkpt>
      <trkpt lat="44.4675" lon="4.9558">
        <ele>335.64</ele>
        <time>2016-09-25T07:14:22Z</time>
      </trkpt>
      <trkpt lat="44.46771" lon="4.95592">
        <ele>338.52</ele>
        <time>2016-09-25T07:14:33Z</time>
      </trkpt>
      <trkpt lat="44.46792" lon="4.95606">
        <ele>341.89</ele>
        <time>2016-09-25T07:14:45Z</time>
      </trkpt>
      <trkpt lat="44.46805" lon="4.95616">
        <ele>344.77</ele>
        <time>2016-09-25T07:14:53Z</time>
      </trkpt>
      <trkpt lat="44.46814" lon="4.95656">
        <ele>345.25</ele>
        <time>2016-09-25T07:15:05Z</time>
      </trkpt>
      <trkpt lat="44.46816" lon="4.95687">
        <ele>344.77</ele>
        <time>2016-09-25T07:15:12Z</time>
      </trkpt>
      <trkpt lat="44.46818" lon="4.95689">
        <ele>344.77</ele>
        <time>2016-09-25T07:15:13Z</time>
      </trkpt>
      <trkpt lat="44.46821" lon="4.9569">
        <ele>344.77</ele>
        <time>2016-09-25T07:15:14Z</time>
      </trkpt>
      <trkpt lat="44.46862" lon="4.95701">
        <ele>344.77</ele>
        <time>2016-09-25T07:15:26Z</time>
      </trkpt>
      <trkpt lat="44.46896" lon="4.95712">
        <ele>345.73</ele>
        <time>2016-09-25T07:15:35Z</time>
      </trkpt>
      <trkpt lat="44.469" lon="4.95716">
        <ele>345.25</ele>
        <time>2016-09-25T07:15:36Z</time>
      </trkpt>
      <trkpt lat="44.46904" lon="4.9572">
        <ele>345.25</ele>
        <time>2016-09-25T07:15:37Z</time>
      </trkpt>
      <trkpt lat="44.46915" lon="4.95737">
        <ele>343.81</ele>
        <time>2016-09-25T07:15:40Z</time>
      </trkpt>
      <trkpt lat="44.46929" lon="4.95752">
        <ele>343.33</ele>
        <time>2016-09-25T07:15:43Z</time>
      </trkpt>
      <trkpt lat="44.46934" lon="4.95755">
        <ele>343.81</ele>
        <time>2016-09-25T07:15:44Z</time>
      </trkpt>
      <trkpt lat="44.46939" lon="4.95758">
        <ele>343.81</ele>
        <time>2016-09-25T07:15:45Z</time>
      </trkpt>
      <trkpt lat="44.46988" lon="4.95784">
        <ele>345.73</ele>
        <time>2016-09-25T07:15:58Z</time>
      </trkpt>
      <trkpt lat="44.47016" lon="4.95797">
        <ele>348.13</ele>
        <time>2016-09-25T07:16:11Z</time>
      </trkpt>
      <trkpt lat="44.47021" lon="4.95794">
        <ele>349.58</ele>
        <time>2016-09-25T07:16:14Z</time>
      </trkpt>
      <trkpt lat="44.47022" lon="4.95791">
        <ele>349.58</ele>
        <time>2016-09-25T07:16:15Z</time>
      </trkpt>
      <trkpt lat="44.47023" lon="4.95788">
        <ele>350.06</ele>
        <time>2016-09-25T07:16:16Z</time>
      </trkpt>
      <trkpt lat="44.4702" lon="4.95743">
        <ele>352.46</ele>
        <time>2016-09-25T07:16:29Z</time>
      </trkpt>
      <trkpt lat="44.47019" lon="4.95738">
        <ele>352.94</ele>
        <time>2016-09-25T07:16:31Z</time>
      </trkpt>
      <trkpt lat="44.47022" lon="4.95727">
        <ele>353.9</ele>
        <time>2016-09-25T07:16:35Z</time>
      </trkpt>
      <trkpt lat="44.47039" lon="4.95724">
        <ele>354.86</ele>
        <time>2016-09-25T07:16:43Z</time>
      </trkpt>
      <trkpt lat="44.47073" lon="4.95724">
        <ele>356.79</ele>
        <time>2016-09-25T07:16:58Z</time>
      </trkpt>
      <trkpt lat="44.47105" lon="4.95721">
        <ele>359.67</ele>
        <time>2016-09-25T07:17:13Z</time>
      </trkpt>
      <trkpt lat="44.47128" lon="4.95731">
        <ele>361.59</ele>
        <time>2016-09-25T07:17:25Z</time>
      </trkpt>
      <trkpt lat="44.47149" lon="4.95747">
        <ele>364</ele>
        <time>2016-09-25T07:17:37Z</time>
      </trkpt>
      <trkpt lat="44.47163" lon="4.95756">
        <ele>365.44</ele>
        <time>2016-09-25T07:17:45Z</time>
      </trkpt>
      <trkpt lat="44.47178" lon="4.95764">
        <ele>367.36</ele>
        <time>2016-09-25T07:17:53Z</time>
      </trkpt>
      <trkpt lat="44.47197" lon="4.95755">
        <ele>370.24</ele>
        <time>2016-09-25T07:18:06Z</time>
      </trkpt>
      <trkpt lat="44.47201" lon="4.95754">
        <ele>370.73</ele>
        <time>2016-09-25T07:18:09Z</time>
      </trkpt>
      <trkpt lat="44.47205" lon="4.95743">
        <ele>371.21</ele>
        <time>2016-09-25T07:18:15Z</time>
      </trkpt>
      <trkpt lat="44.47213" lon="4.95714">
        <ele>372.17</ele>
        <time>2016-09-25T07:18:27Z</time>
      </trkpt>
      <trkpt lat="44.47221" lon="4.9568">
        <ele>372.65</ele>
        <time>2016-09-25T07:18:38Z</time>
      </trkpt>
      <trkpt lat="44.47227" lon="4.95656">
        <ele>373.13</ele>
        <time>2016-09-25T07:18:45Z</time>
      </trkpt>
      <trkpt lat="44.47229" lon="4.95644">
        <ele>372.17</ele>
        <time>2016-09-25T07:18:49Z</time>
      </trkpt>
      <trkpt lat="44.47228" lon="4.95629">
        <ele>371.21</ele>
        <time>2016-09-25T07:18:54Z</time>
      </trkpt>
      <trkpt lat="44.47236" lon="4.9563">
        <ele>372.17</ele>
        <time>2016-09-25T07:19:01Z</time>
      </trkpt>
      <trkpt lat="44.47255" lon="4.95628">
        <ele>372.65</ele>
        <time>2016-09-25T07:19:10Z</time>
      </trkpt>
      <trkpt lat="44.47281" lon="4.95627">
        <ele>373.61</ele>
        <time>2016-09-25T07:19:19Z</time>
      </trkpt>
      <trkpt lat="44.47292" lon="4.95624">
        <ele>373.61</ele>
        <time>2016-09-25T07:19:23Z</time>
      </trkpt>
      <trkpt lat="44.473" lon="4.95622">
        <ele>374.09</ele>
        <time>2016-09-25T07:19:26Z</time>
      </trkpt>
      <trkpt lat="44.47313" lon="4.9562">
        <ele>374.09</ele>
        <time>2016-09-25T07:19:30Z</time>
      </trkpt>
      <trkpt lat="44.47344" lon="4.95618">
        <ele>375.05</ele>
        <time>2016-09-25T07:19:40Z</time>
      </trkpt>
      <trkpt lat="44.47347" lon="4.95617">
        <ele>375.05</ele>
        <time>2016-09-25T07:19:41Z</time>
      </trkpt>
      <trkpt lat="44.47376" lon="4.95618">
        <ele>376.01</ele>
        <time>2016-09-25T07:19:51Z</time>
      </trkpt>
      <trkpt lat="44.47381" lon="4.95617">
        <ele>376.01</ele>
        <time>2016-09-25T07:19:54Z</time>
      </trkpt>
      <trkpt lat="44.47402" lon="4.95618">
        <ele>376.49</ele>
        <time>2016-09-25T07:20:01Z</time>
      </trkpt>
      <trkpt lat="44.47411" lon="4.95617">
        <ele>376.97</ele>
        <time>2016-09-25T07:20:04Z</time>
      </trkpt>
      <trkpt lat="44.47429" lon="4.9562">
        <ele>376.97</ele>
        <time>2016-09-25T07:20:10Z</time>
      </trkpt>
      <trkpt lat="44.47459" lon="4.95623">
        <ele>377.45</ele>
        <time>2016-09-25T07:20:19Z</time>
      </trkpt>
      <trkpt lat="44.47487" lon="4.95627">
        <ele>376.97</ele>
        <time>2016-09-25T07:20:28Z</time>
      </trkpt>
      <trkpt lat="44.47524" lon="4.9563">
        <ele>377.94</ele>
        <time>2016-09-25T07:20:38Z</time>
      </trkpt>
      <trkpt lat="44.47557" lon="4.95646">
        <ele>379.38</ele>
        <time>2016-09-25T07:20:48Z</time>
      </trkpt>
      <trkpt lat="44.47578" lon="4.9565">
        <ele>381.3</ele>
        <time>2016-09-25T07:20:56Z</time>
      </trkpt>
      <trkpt lat="44.47607" lon="4.95656">
        <ele>381.3</ele>
        <time>2016-09-25T07:21:05Z</time>
      </trkpt>
      <trkpt lat="44.47635" lon="4.9566">
        <ele>382.26</ele>
        <time>2016-09-25T07:21:15Z</time>
      </trkpt>
      <trkpt lat="44.47638" lon="4.95659">
        <ele>382.26</ele>
        <time>2016-09-25T07:21:16Z</time>
      </trkpt>
      <trkpt lat="44.4764" lon="4.95659">
        <ele>382.26</ele>
        <time>2016-09-25T07:21:17Z</time>
      </trkpt>
      <trkpt lat="44.47648" lon="4.95665">
        <ele>382.74</ele>
        <time>2016-09-25T07:21:21Z</time>
      </trkpt>
      <trkpt lat="44.47659" lon="4.95664">
        <ele>382.74</ele>
        <time>2016-09-25T07:21:25Z</time>
      </trkpt>
      <trkpt lat="44.47692" lon="4.95672">
        <ele>384.18</ele>
        <time>2016-09-25T07:21:36Z</time>
      </trkpt>
      <trkpt lat="44.47719" lon="4.95675">
        <ele>385.63</ele>
        <time>2016-09-25T07:21:46Z</time>
      </trkpt>
      <trkpt lat="44.47725" lon="4.95677">
        <ele>386.59</ele>
        <time>2016-09-25T07:21:49Z</time>
      </trkpt>
      <trkpt lat="44.47738" lon="4.95677">
        <ele>387.07</ele>
        <time>2016-09-25T07:21:58Z</time>
      </trkpt>
      <trkpt lat="44.47745" lon="4.95681">
        <ele>389.47</ele>
        <time>2016-09-25T07:22:06Z</time>
      </trkpt>
      <trkpt lat="44.47747" lon="4.95681">
        <ele>389.47</ele>
        <time>2016-09-25T07:22:08Z</time>
      </trkpt>
      <trkpt lat="44.47754" lon="4.9568">
        <ele>390.91</ele>
        <time>2016-09-25T07:22:11Z</time>
      </trkpt>
      <trkpt lat="44.47757" lon="4.95681">
        <ele>390.91</ele>
        <time>2016-09-25T07:22:13Z</time>
      </trkpt>
      <trkpt lat="44.47761" lon="4.95684">
        <ele>391.39</ele>
        <time>2016-09-25T07:22:15Z</time>
      </trkpt>
      <trkpt lat="44.47769" lon="4.95683">
        <ele>391.87</ele>
        <time>2016-09-25T07:22:19Z</time>
      </trkpt>
      <trkpt lat="44.47785" lon="4.9569">
        <ele>394.28</ele>
        <time>2016-09-25T07:22:30Z</time>
      </trkpt>
      <trkpt lat="44.47793" lon="4.95691">
        <ele>394.76</ele>
        <time>2016-09-25T07:22:34Z</time>
      </trkpt>
      <trkpt lat="44.47812" lon="4.95698">
        <ele>397.16</ele>
        <time>2016-09-25T07:22:45Z</time>
      </trkpt>
      <trkpt lat="44.47834" lon="4.957">
        <ele>400.53</ele>
        <time>2016-09-25T07:22:58Z</time>
      </trkpt>
      <trkpt lat="44.47837" lon="4.95701">
        <ele>401.01</ele>
        <time>2016-09-25T07:23:00Z</time>
      </trkpt>
      <trkpt lat="44.4784" lon="4.95702">
        <ele>401.49</ele>
        <time>2016-09-25T07:23:02Z</time>
      </trkpt>
      <trkpt lat="44.47842" lon="4.95702">
        <ele>401.97</ele>
        <time>2016-09-25T07:23:04Z</time>
      </trkpt>
      <trkpt lat="44.47857" lon="4.95704">
        <ele>404.85</ele>
        <time>2016-09-25T07:23:15Z</time>
      </trkpt>
      <trkpt lat="44.47872" lon="4.95705">
        <ele>407.74</ele>
        <time>2016-09-25T07:23:30Z</time>
      </trkpt>
      <trkpt lat="44.47874" lon="4.95707">
        <ele>407.74</ele>
        <time>2016-09-25T07:23:34Z</time>
      </trkpt>
      <trkpt lat="44.47886" lon="4.95711">
        <ele>410.62</ele>
        <time>2016-09-25T07:23:48Z</time>
      </trkpt>
      <trkpt lat="44.47904" lon="4.95715">
        <ele>413.5</ele>
        <time>2016-09-25T07:23:59Z</time>
      </trkpt>
      <trkpt lat="44.47906" lon="4.95726">
        <ele>414.47</ele>
        <time>2016-09-25T07:24:05Z</time>
      </trkpt>
      <trkpt lat="44.47898" lon="4.95739">
        <ele>417.35</ele>
        <time>2016-09-25T07:24:15Z</time>
      </trkpt>
      <trkpt lat="44.47893" lon="4.95749">
        <ele>418.79</ele>
        <time>2016-09-25T07:24:22Z</time>
      </trkpt>
      <trkpt lat="44.47891" lon="4.95754">
        <ele>418.79</ele>
        <time>2016-09-25T07:24:25Z</time>
      </trkpt>
      <trkpt lat="44.47881" lon="4.95765">
        <ele>420.71</ele>
        <time>2016-09-25T07:24:34Z</time>
      </trkpt>
      <trkpt lat="44.47856" lon="4.95778">
        <ele>422.64</ele>
        <time>2016-09-25T07:24:48Z</time>
      </trkpt>
      <trkpt lat="44.47835" lon="4.95787">
        <ele>423.6</ele>
        <time>2016-09-25T07:25:00Z</time>
      </trkpt>
      <trkpt lat="44.47829" lon="4.95792">
        <ele>424.08</ele>
        <time>2016-09-25T07:25:03Z</time>
      </trkpt>
      <trkpt lat="44.4782" lon="4.95799">
        <ele>425.04</ele>
        <time>2016-09-25T07:25:08Z</time>
      </trkpt>
      <trkpt lat="44.47817" lon="4.95802">
        <ele>425.52</ele>
        <time>2016-09-25T07:25:10Z</time>
      </trkpt>
      <trkpt lat="44.47806" lon="4.95802">
        <ele>425.52</ele>
        <time>2016-09-25T07:25:15Z</time>
      </trkpt>
      <trkpt lat="44.47765" lon="4.958">
        <ele>423.12</ele>
        <time>2016-09-25T07:25:26Z</time>
      </trkpt>
      <trkpt lat="44.47746" lon="4.95799">
        <ele>422.16</ele>
        <time>2016-09-25T07:25:30Z</time>
      </trkpt>
      <trkpt lat="44.47743" lon="4.95802">
        <ele>422.16</ele>
        <time>2016-09-25T07:25:31Z</time>
      </trkpt>
      <trkpt lat="44.47742" lon="4.95805">
        <ele>422.64</ele>
        <time>2016-09-25T07:25:32Z</time>
      </trkpt>
      <trkpt lat="44.47741" lon="4.95807">
        <ele>422.64</ele>
        <time>2016-09-25T07:25:33Z</time>
      </trkpt>
      <trkpt lat="44.47742" lon="4.95808">
        <ele>423.12</ele>
        <time>2016-09-25T07:25:34Z</time>
      </trkpt>
      <trkpt lat="44.47743" lon="4.95809">
        <ele>423.12</ele>
        <time>2016-09-25T07:25:35Z</time>
      </trkpt>
      <trkpt lat="44.47745" lon="4.95808">
        <ele>423.12</ele>
        <time>2016-09-25T07:25:36Z</time>
      </trkpt>
      <trkpt lat="44.47747" lon="4.95809">
        <ele>423.6</ele>
        <time>2016-09-25T07:25:37Z</time>
      </trkpt>
      <trkpt lat="44.47749" lon="4.9581">
        <ele>423.6</ele>
        <time>2016-09-25T07:25:38Z</time>
      </trkpt>
      <trkpt lat="44.47751" lon="4.95811">
        <ele>424.08</ele>
        <time>2016-09-25T07:25:39Z</time>
      </trkpt>
      <trkpt lat="44.47774" lon="4.95829">
        <ele>426.96</ele>
        <time>2016-09-25T07:25:50Z</time>
      </trkpt>
      <trkpt lat="44.47807" lon="4.9583">
        <ele>428.89</ele>
        <time>2016-09-25T07:26:04Z</time>
      </trkpt>
      <trkpt lat="44.47838" lon="4.95836">
        <ele>430.33</ele>
        <time>2016-09-25T07:26:17Z</time>
      </trkpt>
      <trkpt lat="44.47865" lon="4.95838">
        <ele>432.25</ele>
        <time>2016-09-25T07:26:31Z</time>
      </trkpt>
      <trkpt lat="44.47879" lon="4.95844">
        <ele>434.17</ele>
        <time>2016-09-25T07:26:39Z</time>
      </trkpt>
      <trkpt lat="44.47904" lon="4.95849">
        <ele>437.06</ele>
        <time>2016-09-25T07:26:52Z</time>
      </trkpt>
      <trkpt lat="44.47924" lon="4.9585">
        <ele>438.5</ele>
        <time>2016-09-25T07:27:03Z</time>
      </trkpt>
      <trkpt lat="44.47944" lon="4.95846">
        <ele>440.42</ele>
        <time>2016-09-25T07:27:14Z</time>
      </trkpt>
      <trkpt lat="44.4796" lon="4.9584">
        <ele>441.86</ele>
        <time>2016-09-25T07:27:24Z</time>
      </trkpt>
      <trkpt lat="44.47962" lon="4.95841">
        <ele>442.34</ele>
        <time>2016-09-25T07:27:25Z</time>
      </trkpt>
      <trkpt lat="44.47991" lon="4.95849">
        <ele>444.27</ele>
        <time>2016-09-25T07:27:40Z</time>
      </trkpt>
      <trkpt lat="44.48031" lon="4.95851">
        <ele>445.71</ele>
        <time>2016-09-25T07:27:57Z</time>
      </trkpt>
      <trkpt lat="44.48059" lon="4.95853">
        <ele>447.63</ele>
        <time>2016-09-25T07:28:10Z</time>
      </trkpt>
      <trkpt lat="44.48084" lon="4.95861">
        <ele>450.52</ele>
        <time>2016-09-25T07:28:22Z</time>
      </trkpt>
      <trkpt lat="44.48111" lon="4.95856">
        <ele>453.4</ele>
        <time>2016-09-25T07:28:36Z</time>
      </trkpt>
      <trkpt lat="44.4814" lon="4.95851">
        <ele>455.8</ele>
        <time>2016-09-25T07:28:50Z</time>
      </trkpt>
      <trkpt lat="44.48162" lon="4.95856">
        <ele>458.21</ele>
        <time>2016-09-25T07:29:03Z</time>
      </trkpt>
      <trkpt lat="44.48187" lon="4.95851">
        <ele>460.61</ele>
        <time>2016-09-25T07:29:17Z</time>
      </trkpt>
      <trkpt lat="44.48214" lon="4.95848">
        <ele>463.01</ele>
        <time>2016-09-25T07:29:32Z</time>
      </trkpt>
      <trkpt lat="44.48235" lon="4.95854">
        <ele>465.42</ele>
        <time>2016-09-25T07:29:46Z</time>
      </trkpt>
      <trkpt lat="44.48255" lon="4.95863">
        <ele>467.82</ele>
        <time>2016-09-25T07:29:59Z</time>
      </trkpt>
      <trkpt lat="44.48275" lon="4.95877">
        <ele>470.7</ele>
        <time>2016-09-25T07:30:12Z</time>
      </trkpt>
      <trkpt lat="44.48296" lon="4.95875">
        <ele>473.11</ele>
        <time>2016-09-25T07:30:25Z</time>
      </trkpt>
      <trkpt lat="44.48317" lon="4.95874">
        <ele>474.55</ele>
        <time>2016-09-25T07:30:37Z</time>
      </trkpt>
      <trkpt lat="44.48342" lon="4.95876">
        <ele>477.43</ele>
        <time>2016-09-25T07:30:52Z</time>
      </trkpt>
      <trkpt lat="44.48368" lon="4.95873">
        <ele>479.84</ele>
        <time>2016-09-25T07:31:07Z</time>
      </trkpt>
      <trkpt lat="44.48394" lon="4.95873">
        <ele>482.72</ele>
        <time>2016-09-25T07:31:22Z</time>
      </trkpt>
      <trkpt lat="44.48414" lon="4.95875">
        <ele>485.12</ele>
        <time>2016-09-25T07:31:35Z</time>
      </trkpt>
      <trkpt lat="44.48433" lon="4.95874">
        <ele>487.05</ele>
        <time>2016-09-25T07:31:48Z</time>
      </trkpt>
      <trkpt lat="44.48458" lon="4.95876">
        <ele>489.93</ele>
        <time>2016-09-25T07:32:04Z</time>
      </trkpt>
      <trkpt lat="44.48481" lon="4.95882">
        <ele>491.85</ele>
        <time>2016-09-25T07:32:20Z</time>
      </trkpt>
      <trkpt lat="44.48505" lon="4.95885">
        <ele>493.29</ele>
        <time>2016-09-25T07:32:34Z</time>
      </trkpt>
      <trkpt lat="44.4853" lon="4.95888">
        <ele>495.22</ele>
        <time>2016-09-25T07:32:47Z</time>
      </trkpt>
      <trkpt lat="44.4854" lon="4.9589">
        <ele>495.7</ele>
        <time>2016-09-25T07:32:52Z</time>
      </trkpt>
      <trkpt lat="44.48542" lon="4.9589">
        <ele>495.7</ele>
        <time>2016-09-25T07:32:53Z</time>
      </trkpt>
      <trkpt lat="44.48544" lon="4.9589">
        <ele>495.7</ele>
        <time>2016-09-25T07:32:54Z</time>
      </trkpt>
      <trkpt lat="44.48566" lon="4.95882">
        <ele>497.62</ele>
        <time>2016-09-25T07:33:06Z</time>
      </trkpt>
      <trkpt lat="44.48569" lon="4.95881">
        <ele>497.62</ele>
        <time>2016-09-25T07:33:08Z</time>
      </trkpt>
      <trkpt lat="44.48571" lon="4.95879">
        <ele>497.62</ele>
        <time>2016-09-25T07:33:09Z</time>
      </trkpt>
      <trkpt lat="44.48572" lon="4.95879">
        <ele>497.62</ele>
        <time>2016-09-25T07:33:10Z</time>
      </trkpt>
      <trkpt lat="44.48574" lon="4.95878">
        <ele>497.62</ele>
        <time>2016-09-25T07:33:11Z</time>
      </trkpt>
      <trkpt lat="44.48576" lon="4.95878">
        <ele>498.1</ele>
        <time>2016-09-25T07:33:12Z</time>
      </trkpt>
      <trkpt lat="44.48605" lon="4.95868">
        <ele>499.06</ele>
        <time>2016-09-25T07:33:25Z</time>
      </trkpt>
      <trkpt lat="44.48607" lon="4.95867">
        <ele>499.54</ele>
        <time>2016-09-25T07:33:26Z</time>
      </trkpt>
      <trkpt lat="44.48635" lon="4.95862">
        <ele>500.02</ele>
        <time>2016-09-25T07:33:38Z</time>
      </trkpt>
      <trkpt lat="44.48637" lon="4.95862">
        <ele>500.02</ele>
        <time>2016-09-25T07:33:39Z</time>
      </trkpt>
      <trkpt lat="44.4864" lon="4.95861">
        <ele>500.02</ele>
        <time>2016-09-25T07:33:40Z</time>
      </trkpt>
      <trkpt lat="44.48663" lon="4.95853">
        <ele>500.98</ele>
        <time>2016-09-25T07:33:50Z</time>
      </trkpt>
      <trkpt lat="44.48674" lon="4.95851">
        <ele>501.46</ele>
        <time>2016-09-25T07:33:54Z</time>
      </trkpt>
      <trkpt lat="44.48692" lon="4.95852">
        <ele>501.95</ele>
        <time>2016-09-25T07:34:01Z</time>
      </trkpt>
      <trkpt lat="44.48723" lon="4.95857">
        <ele>502.43</ele>
        <time>2016-09-25T07:34:13Z</time>
      </trkpt>
      <trkpt lat="44.48752" lon="4.95872">
        <ele>503.39</ele>
        <time>2016-09-25T07:34:25Z</time>
      </trkpt>
      <trkpt lat="44.48778" lon="4.95883">
        <ele>504.35</ele>
        <time>2016-09-25T07:34:35Z</time>
      </trkpt>
      <trkpt lat="44.48815" lon="4.95891">
        <ele>504.35</ele>
        <time>2016-09-25T07:34:47Z</time>
      </trkpt>
      <trkpt lat="44.48843" lon="4.95901">
        <ele>504.83</ele>
        <time>2016-09-25T07:34:57Z</time>
      </trkpt>
      <trkpt lat="44.48877" lon="4.95907">
        <ele>505.79</ele>
        <time>2016-09-25T07:35:09Z</time>
      </trkpt>
      <trkpt lat="44.48909" lon="4.95905">
        <ele>506.75</ele>
        <time>2016-09-25T07:35:21Z</time>
      </trkpt>
      <trkpt lat="44.48943" lon="4.95916">
        <ele>508.67</ele>
        <time>2016-09-25T07:35:34Z</time>
      </trkpt>
      <trkpt lat="44.48965" lon="4.95925">
        <ele>511.08</ele>
        <time>2016-09-25T07:35:46Z</time>
      </trkpt>
      <trkpt lat="44.48965" lon="4.95926">
        <ele>511.08</ele>
        <time>2016-09-25T07:36:01Z</time>
      </trkpt>
      <trkpt lat="44.48965" lon="4.95926">
        <ele>511.08</ele>
        <time>2016-09-25T07:36:28Z</time>
      </trkpt>
      <trkpt lat="44.48965" lon="4.95926">
        <ele>511.08</ele>
        <time>2016-09-25T07:36:50Z</time>
      </trkpt>
      <trkpt lat="44.48965" lon="4.95926">
        <ele>511.08</ele>
        <time>2016-09-25T07:37:13Z</time>
      </trkpt>
      <trkpt lat="44.48965" lon="4.95926">
        <ele>510.6</ele>
        <time>2016-09-25T07:37:33Z</time>
      </trkpt>
      <trkpt lat="44.48966" lon="4.95927">
        <ele>510.6</ele>
        <time>2016-09-25T07:37:59Z</time>
      </trkpt>
      <trkpt lat="44.48968" lon="4.9593">
        <ele>510.6</ele>
        <time>2016-09-25T07:38:01Z</time>
      </trkpt>
      <trkpt lat="44.48983" lon="4.9594">
        <ele>510.12</ele>
        <time>2016-09-25T07:38:09Z</time>
      </trkpt>
      <trkpt lat="44.48988" lon="4.95952">
        <ele>509.64</ele>
        <time>2016-09-25T07:38:13Z</time>
      </trkpt>
      <trkpt lat="44.4899" lon="4.95965">
        <ele>509.16</ele>
        <time>2016-09-25T07:38:16Z</time>
      </trkpt>
      <trkpt lat="44.48966" lon="4.96004">
        <ele>509.64</ele>
        <time>2016-09-25T07:38:30Z</time>
      </trkpt>
      <trkpt lat="44.48964" lon="4.96007">
        <ele>510.12</ele>
        <time>2016-09-25T07:38:31Z</time>
      </trkpt>
      <trkpt lat="44.48958" lon="4.96049">
        <ele>512.52</ele>
        <time>2016-09-25T07:38:43Z</time>
      </trkpt>
      <trkpt lat="44.4896" lon="4.96093">
        <ele>514.44</ele>
        <time>2016-09-25T07:38:56Z</time>
      </trkpt>
      <trkpt lat="44.48992" lon="4.96124">
        <ele>513.96</ele>
        <time>2016-09-25T07:39:08Z</time>
      </trkpt>
      <trkpt lat="44.48995" lon="4.96128">
        <ele>513.48</ele>
        <time>2016-09-25T07:39:09Z</time>
      </trkpt>
      <trkpt lat="44.49033" lon="4.96152">
        <ele>510.12</ele>
        <time>2016-09-25T07:39:17Z</time>
      </trkpt>
      <trkpt lat="44.49079" lon="4.96145">
        <ele>508.19</ele>
        <time>2016-09-25T07:39:25Z</time>
      </trkpt>
      <trkpt lat="44.49102" lon="4.96143">
        <ele>505.79</ele>
        <time>2016-09-25T07:39:29Z</time>
      </trkpt>
      <trkpt lat="44.4912" lon="4.96141">
        <ele>503.39</ele>
        <time>2016-09-25T07:39:32Z</time>
      </trkpt>
      <trkpt lat="44.49148" lon="4.96139">
        <ele>498.58</ele>
        <time>2016-09-25T07:39:36Z</time>
      </trkpt>
      <trkpt lat="44.49174" lon="4.96137">
        <ele>495.7</ele>
        <time>2016-09-25T07:39:40Z</time>
      </trkpt>
      <trkpt lat="44.49199" lon="4.9612">
        <ele>492.33</ele>
        <time>2016-09-25T07:39:44Z</time>
      </trkpt>
      <trkpt lat="44.49205" lon="4.96115">
        <ele>492.33</ele>
        <time>2016-09-25T07:39:45Z</time>
      </trkpt>
      <trkpt lat="44.49227" lon="4.96104">
        <ele>491.37</ele>
        <time>2016-09-25T07:39:49Z</time>
      </trkpt>
      <trkpt lat="44.49243" lon="4.96104">
        <ele>488.97</ele>
        <time>2016-09-25T07:39:52Z</time>
      </trkpt>
      <trkpt lat="44.49248" lon="4.96107">
        <ele>488.49</ele>
        <time>2016-09-25T07:39:54Z</time>
      </trkpt>
      <trkpt lat="44.49248" lon="4.96111">
        <ele>488.49</ele>
        <time>2016-09-25T07:39:56Z</time>
      </trkpt>
      <trkpt lat="44.49247" lon="4.9612">
        <ele>488.97</ele>
        <time>2016-09-25T07:40:02Z</time>
      </trkpt>
      <trkpt lat="44.4924" lon="4.96126">
        <ele>487.05</ele>
        <time>2016-09-25T07:40:07Z</time>
      </trkpt>
      <trkpt lat="44.49237" lon="4.96127">
        <ele>486.56</ele>
        <time>2016-09-25T07:40:09Z</time>
      </trkpt>
      <trkpt lat="44.49226" lon="4.96133">
        <ele>484.16</ele>
        <time>2016-09-25T07:40:22Z</time>
      </trkpt>
      <trkpt lat="44.49224" lon="4.96136">
        <ele>483.68</ele>
        <time>2016-09-25T07:40:24Z</time>
      </trkpt>
      <trkpt lat="44.49217" lon="4.96153">
        <ele>480.8</ele>
        <time>2016-09-25T07:40:33Z</time>
      </trkpt>
      <trkpt lat="44.49215" lon="4.96156">
        <ele>480.32</ele>
        <time>2016-09-25T07:40:34Z</time>
      </trkpt>
      <trkpt lat="44.49206" lon="4.96179">
        <ele>475.51</ele>
        <time>2016-09-25T07:40:40Z</time>
      </trkpt>
      <trkpt lat="44.49199" lon="4.9619">
        <ele>473.11</ele>
        <time>2016-09-25T07:40:43Z</time>
      </trkpt>
      <trkpt lat="44.49195" lon="4.96196">
        <ele>475.03</ele>
        <time>2016-09-25T07:40:45Z</time>
      </trkpt>
      <trkpt lat="44.49175" lon="4.96214">
        <ele>474.55</ele>
        <time>2016-09-25T07:40:54Z</time>
      </trkpt>
      <trkpt lat="44.4917" lon="4.96215">
        <ele>474.55</ele>
        <time>2016-09-25T07:40:55Z</time>
      </trkpt>
      <trkpt lat="44.49148" lon="4.96233">
        <ele>472.63</ele>
        <time>2016-09-25T07:41:01Z</time>
      </trkpt>
      <trkpt lat="44.49144" lon="4.96236">
        <ele>472.14</ele>
        <time>2016-09-25T07:41:02Z</time>
      </trkpt>
      <trkpt lat="44.49136" lon="4.96244">
        <ele>471.18</ele>
        <time>2016-09-25T07:41:04Z</time>
      </trkpt>
      <trkpt lat="44.49118" lon="4.96271">
        <ele>470.22</ele>
        <time>2016-09-25T07:41:11Z</time>
      </trkpt>
      <trkpt lat="44.49115" lon="4.96282">
        <ele>470.22</ele>
        <time>2016-09-25T07:41:19Z</time>
      </trkpt>
      <trkpt lat="44.49117" lon="4.96298">
        <ele>472.14</ele>
        <time>2016-09-25T07:41:30Z</time>
      </trkpt>
      <trkpt lat="44.49118" lon="4.96307">
        <ele>472.63</ele>
        <time>2016-09-25T07:41:44Z</time>
      </trkpt>
      <trkpt lat="44.49119" lon="4.96313">
        <ele>472.63</ele>
        <time>2016-09-25T07:41:46Z</time>
      </trkpt>
      <trkpt lat="44.49124" lon="4.9635">
        <ele>474.55</ele>
        <time>2016-09-25T07:41:57Z</time>
      </trkpt>
      <trkpt lat="44.49126" lon="4.96354">
        <ele>474.55</ele>
        <time>2016-09-25T07:41:58Z</time>
      </trkpt>
      <trkpt lat="44.49137" lon="4.96394">
        <ele>477.43</ele>
        <time>2016-09-25T07:42:08Z</time>
      </trkpt>
      <trkpt lat="44.49151" lon="4.96424">
        <ele>478.87</ele>
        <time>2016-09-25T07:42:17Z</time>
      </trkpt>
      <trkpt lat="44.4916" lon="4.96447">
        <ele>481.76</ele>
        <time>2016-09-25T07:42:25Z</time>
      </trkpt>
      <trkpt lat="44.49164" lon="4.96456">
        <ele>483.2</ele>
        <time>2016-09-25T07:42:29Z</time>
      </trkpt>
      <trkpt lat="44.49169" lon="4.96466">
        <ele>484.16</ele>
        <time>2016-09-25T07:42:34Z</time>
      </trkpt>
      <trkpt lat="44.49187" lon="4.96492">
        <ele>485.6</ele>
        <time>2016-09-25T07:42:42Z</time>
      </trkpt>
      <trkpt lat="44.49193" lon="4.96498">
        <ele>486.56</ele>
        <time>2016-09-25T07:42:45Z</time>
      </trkpt>
      <trkpt lat="44.49202" lon="4.96505">
        <ele>488.49</ele>
        <time>2016-09-25T07:42:54Z</time>
      </trkpt>
      <trkpt lat="44.49224" lon="4.96523">
        <ele>488.97</ele>
        <time>2016-09-25T07:43:04Z</time>
      </trkpt>
      <trkpt lat="44.49227" lon="4.96524">
        <ele>489.45</ele>
        <time>2016-09-25T07:43:06Z</time>
      </trkpt>
      <trkpt lat="44.49241" lon="4.96533">
        <ele>491.37</ele>
        <time>2016-09-25T07:43:16Z</time>
      </trkpt>
      <trkpt lat="44.49262" lon="4.96546">
        <ele>493.29</ele>
        <time>2016-09-25T07:43:26Z</time>
      </trkpt>
      <trkpt lat="44.49267" lon="4.96557">
        <ele>493.77</ele>
        <time>2016-09-25T07:43:29Z</time>
      </trkpt>
      <trkpt lat="44.4927" lon="4.96563">
        <ele>493.77</ele>
        <time>2016-09-25T07:43:31Z</time>
      </trkpt>
      <trkpt lat="44.49286" lon="4.9659">
        <ele>494.74</ele>
        <time>2016-09-25T07:43:43Z</time>
      </trkpt>
      <trkpt lat="44.49291" lon="4.96601">
        <ele>495.7</ele>
        <time>2016-09-25T07:43:48Z</time>
      </trkpt>
      <trkpt lat="44.49297" lon="4.9661">
        <ele>495.22</ele>
        <time>2016-09-25T07:43:53Z</time>
      </trkpt>
      <trkpt lat="44.49295" lon="4.96614">
        <ele>495.22</ele>
        <time>2016-09-25T07:43:54Z</time>
      </trkpt>
      <trkpt lat="44.49287" lon="4.96616">
        <ele>496.18</ele>
        <time>2016-09-25T07:44:02Z</time>
      </trkpt>
      <trkpt lat="44.49266" lon="4.96617">
        <ele>499.54</ele>
        <time>2016-09-25T07:44:14Z</time>
      </trkpt>
      <trkpt lat="44.49249" lon="4.96607">
        <ele>500.98</ele>
        <time>2016-09-25T07:44:24Z</time>
      </trkpt>
      <trkpt lat="44.49236" lon="4.96601">
        <ele>501.95</ele>
        <time>2016-09-25T07:44:30Z</time>
      </trkpt>
      <trkpt lat="44.49224" lon="4.96597">
        <ele>502.91</ele>
        <time>2016-09-25T07:44:36Z</time>
      </trkpt>
      <trkpt lat="44.49215" lon="4.96597">
        <ele>503.39</ele>
        <time>2016-09-25T07:44:41Z</time>
      </trkpt>
      <trkpt lat="44.49203" lon="4.96599">
        <ele>504.35</ele>
        <time>2016-09-25T07:44:47Z</time>
      </trkpt>
      <trkpt lat="44.49188" lon="4.96604">
        <ele>506.27</ele>
        <time>2016-09-25T07:44:55Z</time>
      </trkpt>
      <trkpt lat="44.49171" lon="4.96606">
        <ele>509.64</ele>
        <time>2016-09-25T07:45:06Z</time>
      </trkpt>
      <trkpt lat="44.49154" lon="4.96601">
        <ele>511.56</ele>
        <time>2016-09-25T07:45:16Z</time>
      </trkpt>
      <trkpt lat="44.49145" lon="4.966">
        <ele>512.52</ele>
        <time>2016-09-25T07:45:21Z</time>
      </trkpt>
      <trkpt lat="44.49127" lon="4.966">
        <ele>513.96</ele>
        <time>2016-09-25T07:45:31Z</time>
      </trkpt>
      <trkpt lat="44.49123" lon="4.96599">
        <ele>514.44</ele>
        <time>2016-09-25T07:45:33Z</time>
      </trkpt>
      <trkpt lat="44.49105" lon="4.9659">
        <ele>516.85</ele>
        <time>2016-09-25T07:45:45Z</time>
      </trkpt>
      <trkpt lat="44.491" lon="4.96584">
        <ele>518.29</ele>
        <time>2016-09-25T07:45:48Z</time>
      </trkpt>
      <trkpt lat="44.49084" lon="4.96563">
        <ele>520.69</ele>
        <time>2016-09-25T07:46:00Z</time>
      </trkpt>
      <trkpt lat="44.49068" lon="4.9655">
        <ele>521.65</ele>
        <time>2016-09-25T07:46:09Z</time>
      </trkpt>
      <trkpt lat="44.49049" lon="4.96544">
        <ele>523.09</ele>
        <time>2016-09-25T07:46:20Z</time>
      </trkpt>
      <trkpt lat="44.49047" lon="4.96543">
        <ele>523.09</ele>
        <time>2016-09-25T07:46:21Z</time>
      </trkpt>
      <trkpt lat="44.49041" lon="4.96541">
        <ele>523.58</ele>
        <time>2016-09-25T07:46:24Z</time>
      </trkpt>
      <trkpt lat="44.49034" lon="4.96538">
        <ele>524.06</ele>
        <time>2016-09-25T07:46:28Z</time>
      </trkpt>
      <trkpt lat="44.4902" lon="4.96525">
        <ele>525.02</ele>
        <time>2016-09-25T07:46:37Z</time>
      </trkpt>
      <trkpt lat="44.49005" lon="4.96518">
        <ele>526.94</ele>
        <time>2016-09-25T07:46:46Z</time>
      </trkpt>
      <trkpt lat="44.48992" lon="4.96516">
        <ele>527.9</ele>
        <time>2016-09-25T07:46:53Z</time>
      </trkpt>
      <trkpt lat="44.48984" lon="4.96513">
        <ele>528.86</ele>
        <time>2016-09-25T07:46:57Z</time>
      </trkpt>
      <trkpt lat="44.48971" lon="4.96509">
        <ele>529.34</ele>
        <time>2016-09-25T07:47:04Z</time>
      </trkpt>
      <trkpt lat="44.48946" lon="4.96504">
        <ele>530.3</ele>
        <time>2016-09-25T07:47:16Z</time>
      </trkpt>
      <trkpt lat="44.48923" lon="4.96499">
        <ele>531.27</ele>
        <time>2016-09-25T07:47:25Z</time>
      </trkpt>
      <trkpt lat="44.48892" lon="4.96485">
        <ele>531.75</ele>
        <time>2016-09-25T07:47:37Z</time>
      </trkpt>
      <trkpt lat="44.48887" lon="4.96499">
        <ele>532.71</ele>
        <time>2016-09-25T07:47:45Z</time>
      </trkpt>
      <trkpt lat="44.48897" lon="4.96526">
        <ele>534.63</ele>
        <time>2016-09-25T07:47:57Z</time>
      </trkpt>
      <trkpt lat="44.48901" lon="4.96537">
        <ele>535.59</ele>
        <time>2016-09-25T07:48:02Z</time>
      </trkpt>
      <trkpt lat="44.48912" lon="4.96561">
        <ele>536.55</ele>
        <time>2016-09-25T07:48:12Z</time>
      </trkpt>
      <trkpt lat="44.48931" lon="4.96599">
        <ele>537.99</ele>
        <time>2016-09-25T07:48:27Z</time>
      </trkpt>
      <trkpt lat="44.4895" lon="4.96622">
        <ele>539.92</ele>
        <time>2016-09-25T07:48:38Z</time>
      </trkpt>
      <trkpt lat="44.4897" lon="4.96644">
        <ele>540.88</ele>
        <time>2016-09-25T07:48:49Z</time>
      </trkpt>
      <trkpt lat="44.48988" lon="4.96674">
        <ele>543.28</ele>
        <time>2016-09-25T07:49:02Z</time>
      </trkpt>
      <trkpt lat="44.49004" lon="4.96703">
        <ele>544.72</ele>
        <time>2016-09-25T07:49:14Z</time>
      </trkpt>
      <trkpt lat="44.49012" lon="4.96732">
        <ele>546.65</ele>
        <time>2016-09-25T07:49:25Z</time>
      </trkpt>
      <trkpt lat="44.49033" lon="4.96757">
        <ele>548.09</ele>
        <time>2016-09-25T07:49:38Z</time>
      </trkpt>
      <trkpt lat="44.49058" lon="4.96779">
        <ele>549.05</ele>
        <time>2016-09-25T07:49:50Z</time>
      </trkpt>
      <trkpt lat="44.49091" lon="4.96812">
        <ele>550.49</ele>
        <time>2016-09-25T07:50:05Z</time>
      </trkpt>
      <trkpt lat="44.49108" lon="4.96858">
        <ele>551.45</ele>
        <time>2016-09-25T07:50:19Z</time>
      </trkpt>
      <trkpt lat="44.49122" lon="4.96901">
        <ele>553.86</ele>
        <time>2016-09-25T07:50:33Z</time>
      </trkpt>
      <trkpt lat="44.49144" lon="4.96935">
        <ele>554.34</ele>
        <time>2016-09-25T07:50:46Z</time>
      </trkpt>
      <trkpt lat="44.49164" lon="4.9697">
        <ele>553.38</ele>
        <time>2016-09-25T07:50:57Z</time>
      </trkpt>
      <trkpt lat="44.4917" lon="4.96982">
        <ele>553.38</ele>
        <time>2016-09-25T07:51:01Z</time>
      </trkpt>
      <trkpt lat="44.492" lon="4.97015">
        <ele>553.86</ele>
        <time>2016-09-25T07:51:15Z</time>
      </trkpt>
      <trkpt lat="44.49229" lon="4.97042">
        <ele>553.86</ele>
        <time>2016-09-25T07:51:26Z</time>
      </trkpt>
      <trkpt lat="44.49261" lon="4.9705">
        <ele>554.82</ele>
        <time>2016-09-25T07:51:36Z</time>
      </trkpt>
      <trkpt lat="44.49302" lon="4.97061">
        <ele>555.78</ele>
        <time>2016-09-25T07:51:49Z</time>
      </trkpt>
      <trkpt lat="44.4933" lon="4.97075">
        <ele>556.74</ele>
        <time>2016-09-25T07:51:59Z</time>
      </trkpt>
      <trkpt lat="44.49352" lon="4.97092">
        <ele>558.18</ele>
        <time>2016-09-25T07:52:10Z</time>
      </trkpt>
      <trkpt lat="44.49356" lon="4.97093">
        <ele>558.18</ele>
        <time>2016-09-25T07:52:16Z</time>
      </trkpt>
      <trkpt lat="44.49359" lon="4.97092">
        <ele>558.18</ele>
        <time>2016-09-25T07:52:19Z</time>
      </trkpt>
      <trkpt lat="44.49367" lon="4.97082">
        <ele>557.7</ele>
        <time>2016-09-25T07:52:24Z</time>
      </trkpt>
      <trkpt lat="44.49378" lon="4.97063">
        <ele>555.78</ele>
        <time>2016-09-25T07:52:31Z</time>
      </trkpt>
      <trkpt lat="44.49384" lon="4.97055">
        <ele>554.34</ele>
        <time>2016-09-25T07:52:34Z</time>
      </trkpt>
      <trkpt lat="44.49387" lon="4.97054">
        <ele>554.34</ele>
        <time>2016-09-25T07:52:35Z</time>
      </trkpt>
      <trkpt lat="44.49396" lon="4.97044">
        <ele>551.45</ele>
        <time>2016-09-25T07:52:41Z</time>
      </trkpt>
      <trkpt lat="44.49398" lon="4.9704">
        <ele>550.49</ele>
        <time>2016-09-25T07:52:42Z</time>
      </trkpt>
      <trkpt lat="44.49406" lon="4.9703">
        <ele>548.57</ele>
        <time>2016-09-25T07:52:45Z</time>
      </trkpt>
      <trkpt lat="44.49422" lon="4.97006">
        <ele>546.65</ele>
        <time>2016-09-25T07:52:51Z</time>
      </trkpt>
      <trkpt lat="44.49459" lon="4.96969">
        <ele>544.72</ele>
        <time>2016-09-25T07:53:01Z</time>
      </trkpt>
      <trkpt lat="44.4947" lon="4.9695">
        <ele>543.76</ele>
        <time>2016-09-25T07:53:04Z</time>
      </trkpt>
      <trkpt lat="44.49497" lon="4.9695">
        <ele>541.36</ele>
        <time>2016-09-25T07:53:11Z</time>
      </trkpt>
      <trkpt lat="44.495" lon="4.96954">
        <ele>540.4</ele>
        <time>2016-09-25T07:53:12Z</time>
      </trkpt>
      <trkpt lat="44.49504" lon="4.96956">
        <ele>539.92</ele>
        <time>2016-09-25T07:53:13Z</time>
      </trkpt>
      <trkpt lat="44.4951" lon="4.96959">
        <ele>539.44</ele>
        <time>2016-09-25T07:53:14Z</time>
      </trkpt>
      <trkpt lat="44.49524" lon="4.96963">
        <ele>538.48</ele>
        <time>2016-09-25T07:53:18Z</time>
      </trkpt>
      <trkpt lat="44.49527" lon="4.9696">
        <ele>538.96</ele>
        <time>2016-09-25T07:53:20Z</time>
      </trkpt>
      <trkpt lat="44.49523" lon="4.96951">
        <ele>537.03</ele>
        <time>2016-09-25T07:53:25Z</time>
      </trkpt>
      <trkpt lat="44.4952" lon="4.96948">
        <ele>535.59</ele>
        <time>2016-09-25T07:53:27Z</time>
      </trkpt>
      <trkpt lat="44.49514" lon="4.96939">
        <ele>535.59</ele>
        <time>2016-09-25T07:53:32Z</time>
      </trkpt>
      <trkpt lat="44.49506" lon="4.96922">
        <ele>533.19</ele>
        <time>2016-09-25T07:53:37Z</time>
      </trkpt>
      <trkpt lat="44.49498" lon="4.9689">
        <ele>529.34</ele>
        <time>2016-09-25T07:53:44Z</time>
      </trkpt>
      <trkpt lat="44.49498" lon="4.96875">
        <ele>526.46</ele>
        <time>2016-09-25T07:53:47Z</time>
      </trkpt>
      <trkpt lat="44.49496" lon="4.9685">
        <ele>525.98</ele>
        <time>2016-09-25T07:53:52Z</time>
      </trkpt>
      <trkpt lat="44.4949" lon="4.96834">
        <ele>524.54</ele>
        <time>2016-09-25T07:53:55Z</time>
      </trkpt>
      <trkpt lat="44.49488" lon="4.9683">
        <ele>524.06</ele>
        <time>2016-09-25T07:53:56Z</time>
      </trkpt>
      <trkpt lat="44.49479" lon="4.96812">
        <ele>521.17</ele>
        <time>2016-09-25T07:54:01Z</time>
      </trkpt>
      <trkpt lat="44.49466" lon="4.96793">
        <ele>518.77</ele>
        <time>2016-09-25T07:54:06Z</time>
      </trkpt>
      <trkpt lat="44.4946" lon="4.96789">
        <ele>517.33</ele>
        <time>2016-09-25T07:54:08Z</time>
      </trkpt>
      <trkpt lat="44.49444" lon="4.96776">
        <ele>513.96</ele>
        <time>2016-09-25T07:54:12Z</time>
      </trkpt>
      <trkpt lat="44.49426" lon="4.96754">
        <ele>512.04</ele>
        <time>2016-09-25T07:54:18Z</time>
      </trkpt>
      <trkpt lat="44.49421" lon="4.96733">
        <ele>510.6</ele>
        <time>2016-09-25T07:54:22Z</time>
      </trkpt>
      <trkpt lat="44.49419" lon="4.96727">
        <ele>509.64</ele>
        <time>2016-09-25T07:54:23Z</time>
      </trkpt>
      <trkpt lat="44.49416" lon="4.96722">
        <ele>508.67</ele>
        <time>2016-09-25T07:54:24Z</time>
      </trkpt>
      <trkpt lat="44.49415" lon="4.96716">
        <ele>507.71</ele>
        <time>2016-09-25T07:54:25Z</time>
      </trkpt>
      <trkpt lat="44.49414" lon="4.96709">
        <ele>506.75</ele>
        <time>2016-09-25T07:54:26Z</time>
      </trkpt>
      <trkpt lat="44.49413" lon="4.96697">
        <ele>506.27</ele>
        <time>2016-09-25T07:54:28Z</time>
      </trkpt>
      <trkpt lat="44.49412" lon="4.96694">
        <ele>507.23</ele>
        <time>2016-09-25T07:54:29Z</time>
      </trkpt>
      <trkpt lat="44.49409" lon="4.96688">
        <ele>508.67</ele>
        <time>2016-09-25T07:54:31Z</time>
      </trkpt>
      <trkpt lat="44.49409" lon="4.96686">
        <ele>509.16</ele>
        <time>2016-09-25T07:54:32Z</time>
      </trkpt>
      <trkpt lat="44.49402" lon="4.96667">
        <ele>510.6</ele>
        <time>2016-09-25T07:54:42Z</time>
      </trkpt>
      <trkpt lat="44.494" lon="4.96662">
        <ele>511.08</ele>
        <time>2016-09-25T07:54:45Z</time>
      </trkpt>
      <trkpt lat="44.49399" lon="4.9666">
        <ele>511.08</ele>
        <time>2016-09-25T07:54:46Z</time>
      </trkpt>
      <trkpt lat="44.49397" lon="4.96657">
        <ele>511.08</ele>
        <time>2016-09-25T07:54:47Z</time>
      </trkpt>
      <trkpt lat="44.49396" lon="4.96655">
        <ele>511.08</ele>
        <time>2016-09-25T07:54:48Z</time>
      </trkpt>
      <trkpt lat="44.49395" lon="4.96652">
        <ele>511.08</ele>
        <time>2016-09-25T07:54:49Z</time>
      </trkpt>
      <trkpt lat="44.49394" lon="4.96649">
        <ele>511.56</ele>
        <time>2016-09-25T07:54:50Z</time>
      </trkpt>
      <trkpt lat="44.49393" lon="4.96647">
        <ele>511.56</ele>
        <time>2016-09-25T07:54:51Z</time>
      </trkpt>
      <trkpt lat="44.49371" lon="4.96616">
        <ele>513.96</ele>
        <time>2016-09-25T07:55:04Z</time>
      </trkpt>
      <trkpt lat="44.4935" lon="4.9659">
        <ele>515.88</ele>
        <time>2016-09-25T07:55:17Z</time>
      </trkpt>
      <trkpt lat="44.49332" lon="4.9657">
        <ele>516.85</ele>
        <time>2016-09-25T07:55:26Z</time>
      </trkpt>
      <trkpt lat="44.49307" lon="4.96531">
        <ele>518.29</ele>
        <time>2016-09-25T07:55:38Z</time>
      </trkpt>
      <trkpt lat="44.49274" lon="4.96477">
        <ele>520.69</ele>
        <time>2016-09-25T07:55:55Z</time>
      </trkpt>
      <trkpt lat="44.49261" lon="4.96448">
        <ele>521.65</ele>
        <time>2016-09-25T07:56:06Z</time>
      </trkpt>
      <trkpt lat="44.49261" lon="4.96442">
        <ele>521.65</ele>
        <time>2016-09-25T07:56:08Z</time>
      </trkpt>
      <trkpt lat="44.49262" lon="4.96439">
        <ele>522.13</ele>
        <time>2016-09-25T07:56:09Z</time>
      </trkpt>
      <trkpt lat="44.49263" lon="4.96437">
        <ele>522.13</ele>
        <time>2016-09-25T07:56:10Z</time>
      </trkpt>
      <trkpt lat="44.49265" lon="4.96436">
        <ele>522.13</ele>
        <time>2016-09-25T07:56:11Z</time>
      </trkpt>
      <trkpt lat="44.49267" lon="4.96436">
        <ele>522.61</ele>
        <time>2016-09-25T07:56:12Z</time>
      </trkpt>
      <trkpt lat="44.49268" lon="4.96437">
        <ele>523.09</ele>
        <time>2016-09-25T07:56:13Z</time>
      </trkpt>
      <trkpt lat="44.49296" lon="4.9645">
        <ele>525.02</ele>
        <time>2016-09-25T07:56:27Z</time>
      </trkpt>
      <trkpt lat="44.49322" lon="4.96464">
        <ele>528.38</ele>
        <time>2016-09-25T07:56:39Z</time>
      </trkpt>
      <trkpt lat="44.49348" lon="4.96474">
        <ele>531.27</ele>
        <time>2016-09-25T07:56:52Z</time>
      </trkpt>
      <trkpt lat="44.49368" lon="4.96488">
        <ele>534.15</ele>
        <time>2016-09-25T07:57:04Z</time>
      </trkpt>
      <trkpt lat="44.49388" lon="4.96515">
        <ele>536.55</ele>
        <time>2016-09-25T07:57:18Z</time>
      </trkpt>
      <trkpt lat="44.4939" lon="4.96516">
        <ele>536.55</ele>
        <time>2016-09-25T07:57:19Z</time>
      </trkpt>
      <trkpt lat="44.49393" lon="4.9652">
        <ele>537.03</ele>
        <time>2016-09-25T07:57:22Z</time>
      </trkpt>
      <trkpt lat="44.49413" lon="4.96534">
        <ele>537.51</ele>
        <time>2016-09-25T07:57:33Z</time>
      </trkpt>
      <trkpt lat="44.49434" lon="4.96552">
        <ele>537.99</ele>
        <time>2016-09-25T07:57:44Z</time>
      </trkpt>
      <trkpt lat="44.49464" lon="4.96576">
        <ele>538.48</ele>
        <time>2016-09-25T07:57:56Z</time>
      </trkpt>
      <trkpt lat="44.49495" lon="4.96605">
        <ele>539.92</ele>
        <time>2016-09-25T07:58:09Z</time>
      </trkpt>
      <trkpt lat="44.49517" lon="4.96625">
        <ele>542.32</ele>
        <time>2016-09-25T07:58:20Z</time>
      </trkpt>
      <trkpt lat="44.49539" lon="4.96645">
        <ele>544.72</ele>
        <time>2016-09-25T07:58:32Z</time>
      </trkpt>
      <trkpt lat="44.49546" lon="4.96649">
        <ele>545.2</ele>
        <time>2016-09-25T07:58:35Z</time>
      </trkpt>
      <trkpt lat="44.49547" lon="4.9665">
        <ele>545.2</ele>
        <time>2016-09-25T07:58:36Z</time>
      </trkpt>
      <trkpt lat="44.49574" lon="4.96659">
        <ele>547.61</ele>
        <time>2016-09-25T07:58:48Z</time>
      </trkpt>
      <trkpt lat="44.49603" lon="4.96661">
        <ele>550.01</ele>
        <time>2016-09-25T07:58:59Z</time>
      </trkpt>
      <trkpt lat="44.49638" lon="4.96652">
        <ele>551.45</ele>
        <time>2016-09-25T07:59:11Z</time>
      </trkpt>
      <trkpt lat="44.49666" lon="4.96642">
        <ele>551.93</ele>
        <time>2016-09-25T07:59:22Z</time>
      </trkpt>
      <trkpt lat="44.49697" lon="4.96636">
        <ele>554.34</ele>
        <time>2016-09-25T07:59:35Z</time>
      </trkpt>
      <trkpt lat="44.49724" lon="4.96635">
        <ele>556.74</ele>
        <time>2016-09-25T07:59:48Z</time>
      </trkpt>
      <trkpt lat="44.4973" lon="4.9664">
        <ele>558.18</ele>
        <time>2016-09-25T07:59:51Z</time>
      </trkpt>
      <trkpt lat="44.4975" lon="4.96665">
        <ele>560.11</ele>
        <time>2016-09-25T08:00:03Z</time>
      </trkpt>
      <trkpt lat="44.49776" lon="4.96686">
        <ele>561.55</ele>
        <time>2016-09-25T08:00:16Z</time>
      </trkpt>
      <trkpt lat="44.49773" lon="4.9671">
        <ele>562.03</ele>
        <time>2016-09-25T08:00:24Z</time>
      </trkpt>
      <trkpt lat="44.4975" lon="4.96757">
        <ele>562.99</ele>
        <time>2016-09-25T08:00:42Z</time>
      </trkpt>
      <trkpt lat="44.49748" lon="4.9679">
        <ele>565.39</ele>
        <time>2016-09-25T08:00:54Z</time>
      </trkpt>
      <trkpt lat="44.49747" lon="4.968">
        <ele>566.35</ele>
        <time>2016-09-25T08:00:58Z</time>
      </trkpt>
      <trkpt lat="44.49735" lon="4.96835">
        <ele>568.76</ele>
        <time>2016-09-25T08:01:14Z</time>
      </trkpt>
      <trkpt lat="44.49722" lon="4.96864">
        <ele>571.64</ele>
        <time>2016-09-25T08:01:30Z</time>
      </trkpt>
      <trkpt lat="44.49713" lon="4.96888">
        <ele>573.56</ele>
        <time>2016-09-25T08:01:42Z</time>
      </trkpt>
      <trkpt lat="44.4971" lon="4.96897">
        <ele>574.04</ele>
        <time>2016-09-25T08:01:47Z</time>
      </trkpt>
      <trkpt lat="44.49707" lon="4.96907">
        <ele>574.53</ele>
        <time>2016-09-25T08:01:52Z</time>
      </trkpt>
      <trkpt lat="44.49711" lon="4.9692">
        <ele>575.49</ele>
        <time>2016-09-25T08:01:58Z</time>
      </trkpt>
      <trkpt lat="44.49718" lon="4.96951">
        <ele>577.89</ele>
        <time>2016-09-25T08:02:11Z</time>
      </trkpt>
      <trkpt lat="44.49724" lon="4.96977">
        <ele>580.77</ele>
        <time>2016-09-25T08:02:23Z</time>
      </trkpt>
      <trkpt lat="44.49725" lon="4.96979">
        <ele>581.25</ele>
        <time>2016-09-25T08:02:24Z</time>
      </trkpt>
      <trkpt lat="44.49729" lon="4.9699">
        <ele>582.22</ele>
        <time>2016-09-25T08:02:29Z</time>
      </trkpt>
      <trkpt lat="44.49733" lon="4.97">
        <ele>583.18</ele>
        <time>2016-09-25T08:02:34Z</time>
      </trkpt>
      <trkpt lat="44.49744" lon="4.97032">
        <ele>585.58</ele>
        <time>2016-09-25T08:02:49Z</time>
      </trkpt>
      <trkpt lat="44.49755" lon="4.97069">
        <ele>587.98</ele>
        <time>2016-09-25T08:03:06Z</time>
      </trkpt>
      <trkpt lat="44.49762" lon="4.971">
        <ele>591.35</ele>
        <time>2016-09-25T08:03:20Z</time>
      </trkpt>
      <trkpt lat="44.49765" lon="4.97125">
        <ele>593.75</ele>
        <time>2016-09-25T08:03:32Z</time>
      </trkpt>
      <trkpt lat="44.49766" lon="4.97152">
        <ele>597.12</ele>
        <time>2016-09-25T08:03:45Z</time>
      </trkpt>
      <trkpt lat="44.49767" lon="4.97179">
        <ele>600</ele>
        <time>2016-09-25T08:03:58Z</time>
      </trkpt>
      <trkpt lat="44.49767" lon="4.97182">
        <ele>600</ele>
        <time>2016-09-25T08:04:00Z</time>
      </trkpt>
      <trkpt lat="44.4977" lon="4.97194">
        <ele>601.92</ele>
        <time>2016-09-25T08:04:06Z</time>
      </trkpt>
      <trkpt lat="44.49775" lon="4.97211">
        <ele>603.85</ele>
        <time>2016-09-25T08:04:20Z</time>
      </trkpt>
      <trkpt lat="44.49777" lon="4.9721">
        <ele>603.36</ele>
        <time>2016-09-25T08:04:31Z</time>
      </trkpt>
      <trkpt lat="44.49777" lon="4.9721">
        <ele>603.36</ele>
        <time>2016-09-25T08:04:47Z</time>
      </trkpt>
      <trkpt lat="44.49778" lon="4.97209">
        <ele>603.36</ele>
        <time>2016-09-25T08:05:20Z</time>
      </trkpt>
      <trkpt lat="44.49777" lon="4.97209">
        <ele>603.85</ele>
        <time>2016-09-25T08:05:50Z</time>
      </trkpt>
      <trkpt lat="44.49777" lon="4.97209">
        <ele>603.85</ele>
        <time>2016-09-25T08:06:23Z</time>
      </trkpt>
      <trkpt lat="44.49778" lon="4.97209">
        <ele>604.33</ele>
        <time>2016-09-25T08:06:59Z</time>
      </trkpt>
      <trkpt lat="44.49778" lon="4.97209">
        <ele>604.33</ele>
        <time>2016-09-25T08:07:35Z</time>
      </trkpt>
      <trkpt lat="44.49778" lon="4.97208">
        <ele>604.81</ele>
        <time>2016-09-25T08:08:13Z</time>
      </trkpt>
      <trkpt lat="44.49778" lon="4.97208">
        <ele>604.81</ele>
        <time>2016-09-25T08:08:55Z</time>
      </trkpt>
      <trkpt lat="44.49778" lon="4.97208">
        <ele>604.81</ele>
        <time>2016-09-25T08:09:31Z</time>
      </trkpt>
      <trkpt lat="44.49778" lon="4.97208">
        <ele>605.29</ele>
        <time>2016-09-25T08:10:01Z</time>
      </trkpt>
      <trkpt lat="44.49779" lon="4.9721">
        <ele>605.77</ele>
        <time>2016-09-25T08:10:21Z</time>
      </trkpt>
      <trkpt lat="44.49779" lon="4.97215">
        <ele>606.25</ele>
        <time>2016-09-25T08:10:36Z</time>
      </trkpt>
      <trkpt lat="44.49777" lon="4.97219">
        <ele>606.73</ele>
        <time>2016-09-25T08:10:46Z</time>
      </trkpt>
      <trkpt lat="44.4978" lon="4.97221">
        <ele>607.21</ele>
        <time>2016-09-25T08:10:49Z</time>
      </trkpt>
      <trkpt lat="44.4978" lon="4.97224">
        <ele>607.21</ele>
        <time>2016-09-25T08:10:51Z</time>
      </trkpt>
      <trkpt lat="44.49788" lon="4.97239">
        <ele>608.65</ele>
        <time>2016-09-25T08:11:02Z</time>
      </trkpt>
      <trkpt lat="44.49809" lon="4.97256">
        <ele>610.09</ele>
        <time>2016-09-25T08:11:14Z</time>
      </trkpt>
      <trkpt lat="44.49835" lon="4.97274">
        <ele>612.5</ele>
        <time>2016-09-25T08:11:27Z</time>
      </trkpt>
      <trkpt lat="44.49857" lon="4.97285">
        <ele>614.9</ele>
        <time>2016-09-25T08:11:39Z</time>
      </trkpt>
      <trkpt lat="44.49876" lon="4.97303">
        <ele>616.82</ele>
        <time>2016-09-25T08:11:52Z</time>
      </trkpt>
      <trkpt lat="44.49878" lon="4.97304">
        <ele>616.82</ele>
        <time>2016-09-25T08:11:53Z</time>
      </trkpt>
      <trkpt lat="44.49898" lon="4.97316">
        <ele>618.26</ele>
        <time>2016-09-25T08:12:04Z</time>
      </trkpt>
      <trkpt lat="44.49919" lon="4.97335">
        <ele>619.71</ele>
        <time>2016-09-25T08:12:16Z</time>
      </trkpt>
      <trkpt lat="44.49941" lon="4.9735">
        <ele>621.15</ele>
        <time>2016-09-25T08:12:28Z</time>
      </trkpt>
      <trkpt lat="44.49953" lon="4.97364">
        <ele>622.11</ele>
        <time>2016-09-25T08:12:36Z</time>
      </trkpt>
      <trkpt lat="44.49968" lon="4.97382">
        <ele>624.99</ele>
        <time>2016-09-25T08:12:49Z</time>
      </trkpt>
      <trkpt lat="44.49984" lon="4.97395">
        <ele>627.4</ele>
        <time>2016-09-25T08:13:00Z</time>
      </trkpt>
      <trkpt lat="44.49994" lon="4.9742">
        <ele>629.8</ele>
        <time>2016-09-25T08:13:12Z</time>
      </trkpt>
      <trkpt lat="44.49993" lon="4.97437">
        <ele>631.72</ele>
        <time>2016-09-25T08:13:22Z</time>
      </trkpt>
      <trkpt lat="44.49999" lon="4.97457">
        <ele>633.65</ele>
        <time>2016-09-25T08:13:32Z</time>
      </trkpt>
      <trkpt lat="44.49998" lon="4.97464">
        <ele>634.13</ele>
        <time>2016-09-25T08:13:35Z</time>
      </trkpt>
      <trkpt lat="44.49996" lon="4.97469">
        <ele>635.09</ele>
        <time>2016-09-25T08:13:39Z</time>
      </trkpt>
      <trkpt lat="44.50001" lon="4.97477">
        <ele>636.05</ele>
        <time>2016-09-25T08:13:44Z</time>
      </trkpt>
      <trkpt lat="44.50009" lon="4.97483">
        <ele>637.01</ele>
        <time>2016-09-25T08:13:51Z</time>
      </trkpt>
      <trkpt lat="44.50014" lon="4.97488">
        <ele>637.97</ele>
        <time>2016-09-25T08:13:54Z</time>
      </trkpt>
      <trkpt lat="44.50028" lon="4.97493">
        <ele>639.41</ele>
        <time>2016-09-25T08:14:02Z</time>
      </trkpt>
      <trkpt lat="44.50045" lon="4.97501">
        <ele>641.82</ele>
        <time>2016-09-25T08:14:13Z</time>
      </trkpt>
      <trkpt lat="44.50063" lon="4.97507">
        <ele>644.22</ele>
        <time>2016-09-25T08:14:24Z</time>
      </trkpt>
      <trkpt lat="44.5008" lon="4.97511">
        <ele>647.1</ele>
        <time>2016-09-25T08:14:36Z</time>
      </trkpt>
      <trkpt lat="44.50085" lon="4.97512">
        <ele>647.59</ele>
        <time>2016-09-25T08:14:42Z</time>
      </trkpt>
      <trkpt lat="44.50093" lon="4.97511">
        <ele>648.55</ele>
        <time>2016-09-25T08:14:47Z</time>
      </trkpt>
      <trkpt lat="44.50114" lon="4.9751">
        <ele>651.91</ele>
        <time>2016-09-25T08:15:01Z</time>
      </trkpt>
      <trkpt lat="44.50115" lon="4.97511">
        <ele>651.91</ele>
        <time>2016-09-25T08:15:02Z</time>
      </trkpt>
      <trkpt lat="44.50117" lon="4.97513">
        <ele>652.39</ele>
        <time>2016-09-25T08:15:04Z</time>
      </trkpt>
      <trkpt lat="44.50131" lon="4.97524">
        <ele>653.83</ele>
        <time>2016-09-25T08:15:15Z</time>
      </trkpt>
      <trkpt lat="44.50146" lon="4.97537">
        <ele>654.31</ele>
        <time>2016-09-25T08:15:24Z</time>
      </trkpt>
      <trkpt lat="44.50152" lon="4.97545">
        <ele>653.83</ele>
        <time>2016-09-25T08:15:27Z</time>
      </trkpt>
      <trkpt lat="44.50159" lon="4.97555">
        <ele>652.87</ele>
        <time>2016-09-25T08:15:30Z</time>
      </trkpt>
      <trkpt lat="44.50183" lon="4.97571">
        <ele>651.91</ele>
        <time>2016-09-25T08:15:39Z</time>
      </trkpt>
      <trkpt lat="44.50192" lon="4.97577">
        <ele>650.95</ele>
        <time>2016-09-25T08:15:41Z</time>
      </trkpt>
      <trkpt lat="44.50203" lon="4.97582">
        <ele>648.55</ele>
        <time>2016-09-25T08:15:43Z</time>
      </trkpt>
      <trkpt lat="44.50215" lon="4.9759">
        <ele>646.14</ele>
        <time>2016-09-25T08:15:45Z</time>
      </trkpt>
      <trkpt lat="44.5024" lon="4.97604">
        <ele>641.82</ele>
        <time>2016-09-25T08:15:49Z</time>
      </trkpt>
      <trkpt lat="44.50246" lon="4.97607">
        <ele>640.86</ele>
        <time>2016-09-25T08:15:50Z</time>
      </trkpt>
      <trkpt lat="44.50265" lon="4.97614">
        <ele>638.45</ele>
        <time>2016-09-25T08:15:53Z</time>
      </trkpt>
      <trkpt lat="44.50295" lon="4.9762">
        <ele>634.61</ele>
        <time>2016-09-25T08:15:58Z</time>
      </trkpt>
      <trkpt lat="44.50314" lon="4.97622">
        <ele>631.24</ele>
        <time>2016-09-25T08:16:05Z</time>
      </trkpt>
      <trkpt lat="44.50333" lon="4.97638">
        <ele>629.32</ele>
        <time>2016-09-25T08:16:13Z</time>
      </trkpt>
      <trkpt lat="44.50337" lon="4.97641">
        <ele>630.28</ele>
        <time>2016-09-25T08:16:15Z</time>
      </trkpt>
      <trkpt lat="44.50348" lon="4.97652">
        <ele>631.72</ele>
        <time>2016-09-25T08:16:24Z</time>
      </trkpt>
      <trkpt lat="44.50361" lon="4.97651">
        <ele>630.28</ele>
        <time>2016-09-25T08:16:28Z</time>
      </trkpt>
      <trkpt lat="44.50378" lon="4.97652">
        <ele>627.4</ele>
        <time>2016-09-25T08:16:33Z</time>
      </trkpt>
      <trkpt lat="44.50393" lon="4.97647">
        <ele>623.55</ele>
        <time>2016-09-25T08:16:38Z</time>
      </trkpt>
      <trkpt lat="44.50402" lon="4.97646">
        <ele>621.63</ele>
        <time>2016-09-25T08:16:40Z</time>
      </trkpt>
      <trkpt lat="44.50412" lon="4.9765">
        <ele>619.71</ele>
        <time>2016-09-25T08:16:43Z</time>
      </trkpt>
      <trkpt lat="44.50428" lon="4.97648">
        <ele>615.86</ele>
        <time>2016-09-25T08:16:48Z</time>
      </trkpt>
      <trkpt lat="44.50442" lon="4.97639">
        <ele>612.02</ele>
        <time>2016-09-25T08:16:53Z</time>
      </trkpt>
      <trkpt lat="44.50449" lon="4.97639">
        <ele>608.65</ele>
        <time>2016-09-25T08:16:55Z</time>
      </trkpt>
      <trkpt lat="44.50457" lon="4.97637">
        <ele>606.25</ele>
        <time>2016-09-25T08:16:58Z</time>
      </trkpt>
      <trkpt lat="44.50466" lon="4.97636">
        <ele>603.85</ele>
        <time>2016-09-25T08:17:02Z</time>
      </trkpt>
      <trkpt lat="44.50471" lon="4.97633">
        <ele>601.92</ele>
        <time>2016-09-25T08:17:05Z</time>
      </trkpt>
      <trkpt lat="44.50472" lon="4.97634">
        <ele>601.92</ele>
        <time>2016-09-25T08:17:09Z</time>
      </trkpt>
      <trkpt lat="44.50475" lon="4.97634">
        <ele>601.44</ele>
        <time>2016-09-25T08:17:12Z</time>
      </trkpt>
      <trkpt lat="44.50482" lon="4.9763">
        <ele>598.08</ele>
        <time>2016-09-25T08:17:24Z</time>
      </trkpt>
      <trkpt lat="44.50484" lon="4.97628">
        <ele>597.6</ele>
        <time>2016-09-25T08:17:26Z</time>
      </trkpt>
      <trkpt lat="44.50493" lon="4.97622">
        <ele>593.75</ele>
        <time>2016-09-25T08:17:31Z</time>
      </trkpt>
      <trkpt lat="44.50501" lon="4.9762">
        <ele>590.39</ele>
        <time>2016-09-25T08:17:36Z</time>
      </trkpt>
      <trkpt lat="44.50504" lon="4.97616">
        <ele>587.98</ele>
        <time>2016-09-25T08:17:41Z</time>
      </trkpt>
      <trkpt lat="44.50508" lon="4.97616">
        <ele>587.02</ele>
        <time>2016-09-25T08:17:45Z</time>
      </trkpt>
      <trkpt lat="44.50515" lon="4.97615">
        <ele>583.18</ele>
        <time>2016-09-25T08:17:51Z</time>
      </trkpt>
      <trkpt lat="44.50523" lon="4.97614">
        <ele>579.81</ele>
        <time>2016-09-25T08:17:56Z</time>
      </trkpt>
      <trkpt lat="44.50527" lon="4.97613">
        <ele>578.37</ele>
        <time>2016-09-25T08:17:59Z</time>
      </trkpt>
      <trkpt lat="44.50528" lon="4.97613">
        <ele>577.89</ele>
        <time>2016-09-25T08:18:00Z</time>
      </trkpt>
      <trkpt lat="44.50531" lon="4.97612">
        <ele>576.93</ele>
        <time>2016-09-25T08:18:02Z</time>
      </trkpt>
      <trkpt lat="44.50533" lon="4.97615">
        <ele>576.45</ele>
        <time>2016-09-25T08:18:04Z</time>
      </trkpt>
      <trkpt lat="44.50539" lon="4.97621">
        <ele>575.49</ele>
        <time>2016-09-25T08:18:07Z</time>
      </trkpt>
      <trkpt lat="44.50556" lon="4.97633">
        <ele>572.6</ele>
        <time>2016-09-25T08:18:12Z</time>
      </trkpt>
      <trkpt lat="44.50561" lon="4.97647">
        <ele>572.12</ele>
        <time>2016-09-25T08:18:15Z</time>
      </trkpt>
      <trkpt lat="44.50566" lon="4.97663">
        <ele>570.68</ele>
        <time>2016-09-25T08:18:18Z</time>
      </trkpt>
      <trkpt lat="44.50569" lon="4.97682">
        <ele>568.76</ele>
        <time>2016-09-25T08:18:21Z</time>
      </trkpt>
      <trkpt lat="44.50572" lon="4.97694">
        <ele>567.32</ele>
        <time>2016-09-25T08:18:23Z</time>
      </trkpt>
      <trkpt lat="44.50574" lon="4.97706">
        <ele>565.87</ele>
        <time>2016-09-25T08:18:25Z</time>
      </trkpt>
      <trkpt lat="44.50576" lon="4.97725">
        <ele>563.47</ele>
        <time>2016-09-25T08:18:28Z</time>
      </trkpt>
      <trkpt lat="44.50581" lon="4.97749">
        <ele>559.62</ele>
        <time>2016-09-25T08:18:32Z</time>
      </trkpt>
      <trkpt lat="44.50584" lon="4.97766">
        <ele>556.74</ele>
        <time>2016-09-25T08:18:35Z</time>
      </trkpt>
      <trkpt lat="44.50587" lon="4.97786">
        <ele>553.86</ele>
        <time>2016-09-25T08:18:38Z</time>
      </trkpt>
      <trkpt lat="44.50593" lon="4.97821">
        <ele>549.53</ele>
        <time>2016-09-25T08:18:45Z</time>
      </trkpt>
      <trkpt lat="44.50597" lon="4.97848">
        <ele>546.17</ele>
        <time>2016-09-25T08:18:51Z</time>
      </trkpt>
      <trkpt lat="44.50603" lon="4.97857">
        <ele>542.8</ele>
        <time>2016-09-25T08:18:54Z</time>
      </trkpt>
      <trkpt lat="44.50615" lon="4.97869">
        <ele>537.99</ele>
        <time>2016-09-25T08:18:58Z</time>
      </trkpt>
      <trkpt lat="44.50618" lon="4.97873">
        <ele>537.03</ele>
        <time>2016-09-25T08:19:00Z</time>
      </trkpt>
      <trkpt lat="44.50619" lon="4.97883">
        <ele>537.51</ele>
        <time>2016-09-25T08:19:08Z</time>
      </trkpt>
      <trkpt lat="44.50606" lon="4.97893">
        <ele>540.88</ele>
        <time>2016-09-25T08:19:18Z</time>
      </trkpt>
      <trkpt lat="44.5059" lon="4.97908">
        <ele>543.76</ele>
        <time>2016-09-25T08:19:29Z</time>
      </trkpt>
      <trkpt lat="44.50581" lon="4.97913">
        <ele>545.69</ele>
        <time>2016-09-25T08:19:38Z</time>
      </trkpt>
      <trkpt lat="44.50575" lon="4.97915">
        <ele>546.17</ele>
        <time>2016-09-25T08:19:42Z</time>
      </trkpt>
      <trkpt lat="44.50552" lon="4.9792">
        <ele>549.05</ele>
        <time>2016-09-25T08:19:58Z</time>
      </trkpt>
      <trkpt lat="44.50547" lon="4.97919">
        <ele>549.05</ele>
        <time>2016-09-25T08:20:10Z</time>
      </trkpt>
      <trkpt lat="44.50544" lon="4.97919">
        <ele>549.53</ele>
        <time>2016-09-25T08:20:12Z</time>
      </trkpt>
      <trkpt lat="44.50535" lon="4.97915">
        <ele>550.49</ele>
        <time>2016-09-25T08:20:17Z</time>
      </trkpt>
      <trkpt lat="44.50513" lon="4.97913">
        <ele>549.53</ele>
        <time>2016-09-25T08:20:30Z</time>
      </trkpt>
      <trkpt lat="44.50497" lon="4.97915">
        <ele>547.61</ele>
        <time>2016-09-25T08:20:37Z</time>
      </trkpt>
      <trkpt lat="44.50488" lon="4.97909">
        <ele>548.09</ele>
        <time>2016-09-25T08:20:43Z</time>
      </trkpt>
      <trkpt lat="44.50476" lon="4.97905">
        <ele>548.09</ele>
        <time>2016-09-25T08:20:54Z</time>
      </trkpt>
      <trkpt lat="44.50474" lon="4.97905">
        <ele>548.09</ele>
        <time>2016-09-25T08:20:55Z</time>
      </trkpt>
      <trkpt lat="44.50472" lon="4.97903">
        <ele>548.57</ele>
        <time>2016-09-25T08:20:58Z</time>
      </trkpt>
      <trkpt lat="44.50463" lon="4.97896">
        <ele>549.53</ele>
        <time>2016-09-25T08:21:10Z</time>
      </trkpt>
      <trkpt lat="44.50456" lon="4.9789">
        <ele>550.97</ele>
        <time>2016-09-25T08:21:21Z</time>
      </trkpt>
      <trkpt lat="44.50439" lon="4.97887">
        <ele>550.97</ele>
        <time>2016-09-25T08:21:34Z</time>
      </trkpt>
      <trkpt lat="44.50429" lon="4.97885">
        <ele>552.41</ele>
        <time>2016-09-25T08:21:45Z</time>
      </trkpt>
      <trkpt lat="44.5042" lon="4.97882">
        <ele>554.34</ele>
        <time>2016-09-25T08:21:55Z</time>
      </trkpt>
      <trkpt lat="44.50416" lon="4.97881">
        <ele>554.82</ele>
        <time>2016-09-25T08:21:57Z</time>
      </trkpt>
      <trkpt lat="44.50405" lon="4.9788">
        <ele>554.34</ele>
        <time>2016-09-25T08:22:07Z</time>
      </trkpt>
      <trkpt lat="44.50392" lon="4.97884">
        <ele>552.9</ele>
        <time>2016-09-25T08:22:17Z</time>
      </trkpt>
      <trkpt lat="44.50383" lon="4.97884">
        <ele>552.41</ele>
        <time>2016-09-25T08:22:25Z</time>
      </trkpt>
      <trkpt lat="44.50376" lon="4.97885">
        <ele>551.93</ele>
        <time>2016-09-25T08:22:29Z</time>
      </trkpt>
      <trkpt lat="44.50368" lon="4.97881">
        <ele>552.41</ele>
        <time>2016-09-25T08:22:41Z</time>
      </trkpt>
      <trkpt lat="44.50355" lon="4.97875">
        <ele>552.41</ele>
        <time>2016-09-25T08:22:53Z</time>
      </trkpt>
      <trkpt lat="44.50345" lon="4.97876">
        <ele>550.97</ele>
        <time>2016-09-25T08:22:57Z</time>
      </trkpt>
      <trkpt lat="44.50331" lon="4.9788">
        <ele>550.01</ele>
        <time>2016-09-25T08:23:05Z</time>
      </trkpt>
      <trkpt lat="44.50326" lon="4.97882">
        <ele>550.49</ele>
        <time>2016-09-25T08:23:13Z</time>
      </trkpt>
      <trkpt lat="44.50316" lon="4.97888">
        <ele>551.93</ele>
        <time>2016-09-25T08:23:19Z</time>
      </trkpt>
      <trkpt lat="44.50308" lon="4.97896">
        <ele>553.38</ele>
        <time>2016-09-25T08:23:24Z</time>
      </trkpt>
      <trkpt lat="44.50299" lon="4.97923">
        <ele>552.9</ele>
        <time>2016-09-25T08:23:32Z</time>
      </trkpt>
      <trkpt lat="44.50293" lon="4.97953">
        <ele>554.82</ele>
        <time>2016-09-25T08:23:42Z</time>
      </trkpt>
      <trkpt lat="44.50287" lon="4.97963">
        <ele>555.78</ele>
        <time>2016-09-25T08:23:47Z</time>
      </trkpt>
      <trkpt lat="44.50283" lon="4.97969">
        <ele>556.26</ele>
        <time>2016-09-25T08:23:51Z</time>
      </trkpt>
      <trkpt lat="44.50276" lon="4.97983">
        <ele>556.74</ele>
        <time>2016-09-25T08:23:58Z</time>
      </trkpt>
      <trkpt lat="44.5026" lon="4.98002">
        <ele>557.7</ele>
        <time>2016-09-25T08:24:07Z</time>
      </trkpt>
      <trkpt lat="44.50258" lon="4.98003">
        <ele>557.7</ele>
        <time>2016-09-25T08:24:08Z</time>
      </trkpt>
      <trkpt lat="44.50255" lon="4.98007">
        <ele>557.7</ele>
        <time>2016-09-25T08:24:10Z</time>
      </trkpt>
      <trkpt lat="44.50242" lon="4.98022">
        <ele>557.7</ele>
        <time>2016-09-25T08:24:17Z</time>
      </trkpt>
      <trkpt lat="44.50239" lon="4.98023">
        <ele>557.7</ele>
        <time>2016-09-25T08:24:18Z</time>
      </trkpt>
      <trkpt lat="44.50232" lon="4.9803">
        <ele>558.66</ele>
        <time>2016-09-25T08:24:22Z</time>
      </trkpt>
      <trkpt lat="44.50227" lon="4.98034">
        <ele>559.14</ele>
        <time>2016-09-25T08:24:24Z</time>
      </trkpt>
      <trkpt lat="44.50197" lon="4.98067">
        <ele>559.62</ele>
        <time>2016-09-25T08:24:37Z</time>
      </trkpt>
      <trkpt lat="44.50178" lon="4.98089">
        <ele>560.11</ele>
        <time>2016-09-25T08:24:46Z</time>
      </trkpt>
      <trkpt lat="44.50165" lon="4.98102">
        <ele>561.55</ele>
        <time>2016-09-25T08:24:53Z</time>
      </trkpt>
      <trkpt lat="44.50156" lon="4.98107">
        <ele>562.51</ele>
        <time>2016-09-25T08:24:56Z</time>
      </trkpt>
      <trkpt lat="44.50153" lon="4.98113">
        <ele>563.47</ele>
        <time>2016-09-25T08:24:59Z</time>
      </trkpt>
      <trkpt lat="44.50133" lon="4.9813">
        <ele>563.47</ele>
        <time>2016-09-25T08:25:09Z</time>
      </trkpt>
      <trkpt lat="44.50123" lon="4.98143">
        <ele>562.51</ele>
        <time>2016-09-25T08:25:13Z</time>
      </trkpt>
      <trkpt lat="44.50106" lon="4.98162">
        <ele>561.07</ele>
        <time>2016-09-25T08:25:20Z</time>
      </trkpt>
      <trkpt lat="44.50095" lon="4.98177">
        <ele>560.11</ele>
        <time>2016-09-25T08:25:23Z</time>
      </trkpt>
      <trkpt lat="44.50093" lon="4.98182">
        <ele>560.11</ele>
        <time>2016-09-25T08:25:24Z</time>
      </trkpt>
      <trkpt lat="44.50089" lon="4.98187">
        <ele>559.14</ele>
        <time>2016-09-25T08:25:25Z</time>
      </trkpt>
      <trkpt lat="44.50085" lon="4.98192">
        <ele>559.14</ele>
        <time>2016-09-25T08:25:26Z</time>
      </trkpt>
      <trkpt lat="44.50082" lon="4.98198">
        <ele>558.66</ele>
        <time>2016-09-25T08:25:27Z</time>
      </trkpt>
      <trkpt lat="44.50072" lon="4.98213">
        <ele>557.22</ele>
        <time>2016-09-25T08:25:30Z</time>
      </trkpt>
      <trkpt lat="44.50059" lon="4.98231">
        <ele>555.3</ele>
        <time>2016-09-25T08:25:34Z</time>
      </trkpt>
      <trkpt lat="44.50056" lon="4.98236">
        <ele>554.34</ele>
        <time>2016-09-25T08:25:35Z</time>
      </trkpt>
      <trkpt lat="44.50054" lon="4.98242">
        <ele>553.86</ele>
        <time>2016-09-25T08:25:36Z</time>
      </trkpt>
      <trkpt lat="44.50053" lon="4.98248">
        <ele>552.9</ele>
        <time>2016-09-25T08:25:37Z</time>
      </trkpt>
      <trkpt lat="44.50053" lon="4.98256">
        <ele>552.41</ele>
        <time>2016-09-25T08:25:38Z</time>
      </trkpt>
      <trkpt lat="44.50053" lon="4.98263">
        <ele>551.93</ele>
        <time>2016-09-25T08:25:39Z</time>
      </trkpt>
      <trkpt lat="44.50053" lon="4.98276">
        <ele>550.97</ele>
        <time>2016-09-25T08:25:41Z</time>
      </trkpt>
      <trkpt lat="44.50052" lon="4.9828">
        <ele>550.49</ele>
        <time>2016-09-25T08:25:42Z</time>
      </trkpt>
      <trkpt lat="44.5005" lon="4.98283">
        <ele>550.49</ele>
        <time>2016-09-25T08:25:43Z</time>
      </trkpt>
      <trkpt lat="44.50048" lon="4.98287">
        <ele>550.01</ele>
        <time>2016-09-25T08:25:44Z</time>
      </trkpt>
      <trkpt lat="44.50046" lon="4.9829">
        <ele>550.01</ele>
        <time>2016-09-25T08:25:45Z</time>
      </trkpt>
      <trkpt lat="44.50043" lon="4.98294">
        <ele>549.53</ele>
        <time>2016-09-25T08:25:46Z</time>
      </trkpt>
      <trkpt lat="44.50041" lon="4.983">
        <ele>549.53</ele>
        <time>2016-09-25T08:25:47Z</time>
      </trkpt>
      <trkpt lat="44.50039" lon="4.98305">
        <ele>549.05</ele>
        <time>2016-09-25T08:25:48Z</time>
      </trkpt>
      <trkpt lat="44.50039" lon="4.9831">
        <ele>549.05</ele>
        <time>2016-09-25T08:25:49Z</time>
      </trkpt>
      <trkpt lat="44.50039" lon="4.98315">
        <ele>549.53</ele>
        <time>2016-09-25T08:25:50Z</time>
      </trkpt>
      <trkpt lat="44.50047" lon="4.98354">
        <ele>550.01</ele>
        <time>2016-09-25T08:25:58Z</time>
      </trkpt>
      <trkpt lat="44.50048" lon="4.98408">
        <ele>551.93</ele>
        <time>2016-09-25T08:26:09Z</time>
      </trkpt>
      <trkpt lat="44.5004" lon="4.98439">
        <ele>554.82</ele>
        <time>2016-09-25T08:26:22Z</time>
      </trkpt>
      <trkpt lat="44.50038" lon="4.98472">
        <ele>556.74</ele>
        <time>2016-09-25T08:26:33Z</time>
      </trkpt>
      <trkpt lat="44.50032" lon="4.98498">
        <ele>557.7</ele>
        <time>2016-09-25T08:26:42Z</time>
      </trkpt>
      <trkpt lat="44.50013" lon="4.98527">
        <ele>558.66</ele>
        <time>2016-09-25T08:26:53Z</time>
      </trkpt>
      <trkpt lat="44.4999" lon="4.98558">
        <ele>559.62</ele>
        <time>2016-09-25T08:27:03Z</time>
      </trkpt>
      <trkpt lat="44.49978" lon="4.98591">
        <ele>560.11</ele>
        <time>2016-09-25T08:27:13Z</time>
      </trkpt>
      <trkpt lat="44.49954" lon="4.98631">
        <ele>560.11</ele>
        <time>2016-09-25T08:27:22Z</time>
      </trkpt>
      <trkpt lat="44.49945" lon="4.98655">
        <ele>559.62</ele>
        <time>2016-09-25T08:27:27Z</time>
      </trkpt>
      <trkpt lat="44.49945" lon="4.98661">
        <ele>559.14</ele>
        <time>2016-09-25T08:27:28Z</time>
      </trkpt>
      <trkpt lat="44.49946" lon="4.98666">
        <ele>558.66</ele>
        <time>2016-09-25T08:27:29Z</time>
      </trkpt>
      <trkpt lat="44.4995" lon="4.98704">
        <ele>559.62</ele>
        <time>2016-09-25T08:27:36Z</time>
      </trkpt>
      <trkpt lat="44.49949" lon="4.98708">
        <ele>560.11</ele>
        <time>2016-09-25T08:27:37Z</time>
      </trkpt>
      <trkpt lat="44.49947" lon="4.98712">
        <ele>560.11</ele>
        <time>2016-09-25T08:27:38Z</time>
      </trkpt>
      <trkpt lat="44.49942" lon="4.98718">
        <ele>560.59</ele>
        <time>2016-09-25T08:27:41Z</time>
      </trkpt>
      <trkpt lat="44.49919" lon="4.98717">
        <ele>562.51</ele>
        <time>2016-09-25T08:27:52Z</time>
      </trkpt>
      <trkpt lat="44.49912" lon="4.98715">
        <ele>562.99</ele>
        <time>2016-09-25T08:27:55Z</time>
      </trkpt>
      <trkpt lat="44.4991" lon="4.98715">
        <ele>562.99</ele>
        <time>2016-09-25T08:27:56Z</time>
      </trkpt>
      <trkpt lat="44.49908" lon="4.98715">
        <ele>563.47</ele>
        <time>2016-09-25T08:27:57Z</time>
      </trkpt>
      <trkpt lat="44.49876" lon="4.98711">
        <ele>565.39</ele>
        <time>2016-09-25T08:28:09Z</time>
      </trkpt>
      <trkpt lat="44.49839" lon="4.98713">
        <ele>568.28</ele>
        <time>2016-09-25T08:28:26Z</time>
      </trkpt>
      <trkpt lat="44.49827" lon="4.98726">
        <ele>568.76</ele>
        <time>2016-09-25T08:28:33Z</time>
      </trkpt>
      <trkpt lat="44.49826" lon="4.98729">
        <ele>568.76</ele>
        <time>2016-09-25T08:28:34Z</time>
      </trkpt>
      <trkpt lat="44.49806" lon="4.98757">
        <ele>567.8</ele>
        <time>2016-09-25T08:28:42Z</time>
      </trkpt>
      <trkpt lat="44.49804" lon="4.98762">
        <ele>568.28</ele>
        <time>2016-09-25T08:28:43Z</time>
      </trkpt>
      <trkpt lat="44.498" lon="4.98796">
        <ele>569.24</ele>
        <time>2016-09-25T08:28:52Z</time>
      </trkpt>
      <trkpt lat="44.498" lon="4.98799">
        <ele>569.24</ele>
        <time>2016-09-25T08:28:53Z</time>
      </trkpt>
      <trkpt lat="44.498" lon="4.98802">
        <ele>569.24</ele>
        <time>2016-09-25T08:28:54Z</time>
      </trkpt>
      <trkpt lat="44.49801" lon="4.98806">
        <ele>569.24</ele>
        <time>2016-09-25T08:28:55Z</time>
      </trkpt>
      <trkpt lat="44.49801" lon="4.9881">
        <ele>569.24</ele>
        <time>2016-09-25T08:28:56Z</time>
      </trkpt>
      <trkpt lat="44.49802" lon="4.98814">
        <ele>569.24</ele>
        <time>2016-09-25T08:28:57Z</time>
      </trkpt>
      <trkpt lat="44.4979" lon="4.98857">
        <ele>570.2</ele>
        <time>2016-09-25T08:29:07Z</time>
      </trkpt>
      <trkpt lat="44.49762" lon="4.98885">
        <ele>569.72</ele>
        <time>2016-09-25T08:29:17Z</time>
      </trkpt>
      <trkpt lat="44.49732" lon="4.98908">
        <ele>570.68</ele>
        <time>2016-09-25T08:29:28Z</time>
      </trkpt>
      <trkpt lat="44.49704" lon="4.98914">
        <ele>571.64</ele>
        <time>2016-09-25T08:29:39Z</time>
      </trkpt>
      <trkpt lat="44.49698" lon="4.98914">
        <ele>571.64</ele>
        <time>2016-09-25T08:29:42Z</time>
      </trkpt>
      <trkpt lat="44.49693" lon="4.98913">
        <ele>572.12</ele>
        <time>2016-09-25T08:29:44Z</time>
      </trkpt>
      <trkpt lat="44.49691" lon="4.98913">
        <ele>572.12</ele>
        <time>2016-09-25T08:29:45Z</time>
      </trkpt>
      <trkpt lat="44.49678" lon="4.9891">
        <ele>572.12</ele>
        <time>2016-09-25T08:29:51Z</time>
      </trkpt>
      <trkpt lat="44.49676" lon="4.9891">
        <ele>572.6</ele>
        <time>2016-09-25T08:29:52Z</time>
      </trkpt>
      <trkpt lat="44.49673" lon="4.98909">
        <ele>572.6</ele>
        <time>2016-09-25T08:29:53Z</time>
      </trkpt>
      <trkpt lat="44.4967" lon="4.9891">
        <ele>572.6</ele>
        <time>2016-09-25T08:29:54Z</time>
      </trkpt>
      <trkpt lat="44.49667" lon="4.98909">
        <ele>572.6</ele>
        <time>2016-09-25T08:29:55Z</time>
      </trkpt>
      <trkpt lat="44.49664" lon="4.98909">
        <ele>572.12</ele>
        <time>2016-09-25T08:29:56Z</time>
      </trkpt>
      <trkpt lat="44.49663" lon="4.98908">
        <ele>572.12</ele>
        <time>2016-09-25T08:29:57Z</time>
      </trkpt>
      <trkpt lat="44.49662" lon="4.98908">
        <ele>572.6</ele>
        <time>2016-09-25T08:29:58Z</time>
      </trkpt>
      <trkpt lat="44.49659" lon="4.98908">
        <ele>572.6</ele>
        <time>2016-09-25T08:29:59Z</time>
      </trkpt>
      <trkpt lat="44.49655" lon="4.98915">
        <ele>572.12</ele>
        <time>2016-09-25T08:30:01Z</time>
      </trkpt>
      <trkpt lat="44.49651" lon="4.98922">
        <ele>571.16</ele>
        <time>2016-09-25T08:30:02Z</time>
      </trkpt>
      <trkpt lat="44.49648" lon="4.98932">
        <ele>570.2</ele>
        <time>2016-09-25T08:30:04Z</time>
      </trkpt>
      <trkpt lat="44.4965" lon="4.98937">
        <ele>569.24</ele>
        <time>2016-09-25T08:30:05Z</time>
      </trkpt>
      <trkpt lat="44.49653" lon="4.98942">
        <ele>568.76</ele>
        <time>2016-09-25T08:30:06Z</time>
      </trkpt>
      <trkpt lat="44.49658" lon="4.98946">
        <ele>568.76</ele>
        <time>2016-09-25T08:30:07Z</time>
      </trkpt>
      <trkpt lat="44.49665" lon="4.98955">
        <ele>568.28</ele>
        <time>2016-09-25T08:30:09Z</time>
      </trkpt>
      <trkpt lat="44.49668" lon="4.98958">
        <ele>568.28</ele>
        <time>2016-09-25T08:30:10Z</time>
      </trkpt>
      <trkpt lat="44.49671" lon="4.98962">
        <ele>568.76</ele>
        <time>2016-09-25T08:30:11Z</time>
      </trkpt>
      <trkpt lat="44.49673" lon="4.98965">
        <ele>568.76</ele>
        <time>2016-09-25T08:30:12Z</time>
      </trkpt>
      <trkpt lat="44.49677" lon="4.98967">
        <ele>568.76</ele>
        <time>2016-09-25T08:30:13Z</time>
      </trkpt>
      <trkpt lat="44.49678" lon="4.9897">
        <ele>568.76</ele>
        <time>2016-09-25T08:30:14Z</time>
      </trkpt>
      <trkpt lat="44.49681" lon="4.98973">
        <ele>568.28</ele>
        <time>2016-09-25T08:30:15Z</time>
      </trkpt>
      <trkpt lat="44.49684" lon="4.98975">
        <ele>568.28</ele>
        <time>2016-09-25T08:30:16Z</time>
      </trkpt>
      <trkpt lat="44.49705" lon="4.98988">
        <ele>568.76</ele>
        <time>2016-09-25T08:30:24Z</time>
      </trkpt>
      <trkpt lat="44.49705" lon="4.9899">
        <ele>569.24</ele>
        <time>2016-09-25T08:30:25Z</time>
      </trkpt>
      <trkpt lat="44.49706" lon="4.98991">
        <ele>569.24</ele>
        <time>2016-09-25T08:30:26Z</time>
      </trkpt>
      <trkpt lat="44.49712" lon="4.99006">
        <ele>572.12</ele>
        <time>2016-09-25T08:30:37Z</time>
      </trkpt>
      <trkpt lat="44.49713" lon="4.99008">
        <ele>572.6</ele>
        <time>2016-09-25T08:30:38Z</time>
      </trkpt>
      <trkpt lat="44.49713" lon="4.9901">
        <ele>572.6</ele>
        <time>2016-09-25T08:30:39Z</time>
      </trkpt>
      <trkpt lat="44.49716" lon="4.99015">
        <ele>573.56</ele>
        <time>2016-09-25T08:30:42Z</time>
      </trkpt>
      <trkpt lat="44.49717" lon="4.99017">
        <ele>573.56</ele>
        <time>2016-09-25T08:30:43Z</time>
      </trkpt>
      <trkpt lat="44.49718" lon="4.99018">
        <ele>574.04</ele>
        <time>2016-09-25T08:30:44Z</time>
      </trkpt>
      <trkpt lat="44.49719" lon="4.9902">
        <ele>574.53</ele>
        <time>2016-09-25T08:30:45Z</time>
      </trkpt>
      <trkpt lat="44.49719" lon="4.99022">
        <ele>574.53</ele>
        <time>2016-09-25T08:30:46Z</time>
      </trkpt>
      <trkpt lat="44.49719" lon="4.99024">
        <ele>575.01</ele>
        <time>2016-09-25T08:30:47Z</time>
      </trkpt>
      <trkpt lat="44.4972" lon="4.99026">
        <ele>575.49</ele>
        <time>2016-09-25T08:30:48Z</time>
      </trkpt>
      <trkpt lat="44.49721" lon="4.99028">
        <ele>575.49</ele>
        <time>2016-09-25T08:30:49Z</time>
      </trkpt>
      <trkpt lat="44.49722" lon="4.9903">
        <ele>575.49</ele>
        <time>2016-09-25T08:30:50Z</time>
      </trkpt>
      <trkpt lat="44.49723" lon="4.99032">
        <ele>575.49</ele>
        <time>2016-09-25T08:30:51Z</time>
      </trkpt>
      <trkpt lat="44.4973" lon="4.99039">
        <ele>576.93</ele>
        <time>2016-09-25T08:30:56Z</time>
      </trkpt>
      <trkpt lat="44.49735" lon="4.99043">
        <ele>577.41</ele>
        <time>2016-09-25T08:30:59Z</time>
      </trkpt>
      <trkpt lat="44.49737" lon="4.99045">
        <ele>577.89</ele>
        <time>2016-09-25T08:31:00Z</time>
      </trkpt>
      <trkpt lat="44.49739" lon="4.99046">
        <ele>577.89</ele>
        <time>2016-09-25T08:31:01Z</time>
      </trkpt>
      <trkpt lat="44.49741" lon="4.99047">
        <ele>577.89</ele>
        <time>2016-09-25T08:31:02Z</time>
      </trkpt>
      <trkpt lat="44.49743" lon="4.99048">
        <ele>577.89</ele>
        <time>2016-09-25T08:31:03Z</time>
      </trkpt>
      <trkpt lat="44.49745" lon="4.99048">
        <ele>578.37</ele>
        <time>2016-09-25T08:31:04Z</time>
      </trkpt>
      <trkpt lat="44.49746" lon="4.99049">
        <ele>578.37</ele>
        <time>2016-09-25T08:31:05Z</time>
      </trkpt>
      <trkpt lat="44.49748" lon="4.99049">
        <ele>578.37</ele>
        <time>2016-09-25T08:31:06Z</time>
      </trkpt>
      <trkpt lat="44.49751" lon="4.99048">
        <ele>578.37</ele>
        <time>2016-09-25T08:31:07Z</time>
      </trkpt>
      <trkpt lat="44.49753" lon="4.99048">
        <ele>578.37</ele>
        <time>2016-09-25T08:31:08Z</time>
      </trkpt>
      <trkpt lat="44.49782" lon="4.99043">
        <ele>578.37</ele>
        <time>2016-09-25T08:31:18Z</time>
      </trkpt>
      <trkpt lat="44.49823" lon="4.99027">
        <ele>577.89</ele>
        <time>2016-09-25T08:31:30Z</time>
      </trkpt>
      <trkpt lat="44.49862" lon="4.99038">
        <ele>578.37</ele>
        <time>2016-09-25T08:31:42Z</time>
      </trkpt>
      <trkpt lat="44.49874" lon="4.99082">
        <ele>579.81</ele>
        <time>2016-09-25T08:31:54Z</time>
      </trkpt>
      <trkpt lat="44.49864" lon="4.99138">
        <ele>580.29</ele>
        <time>2016-09-25T08:32:07Z</time>
      </trkpt>
      <trkpt lat="44.49845" lon="4.99187">
        <ele>580.29</ele>
        <time>2016-09-25T08:32:20Z</time>
      </trkpt>
      <trkpt lat="44.49845" lon="4.99191">
        <ele>579.81</ele>
        <time>2016-09-25T08:32:21Z</time>
      </trkpt>
      <trkpt lat="44.49847" lon="4.99196">
        <ele>579.33</ele>
        <time>2016-09-25T08:32:22Z</time>
      </trkpt>
      <trkpt lat="44.49849" lon="4.992">
        <ele>579.33</ele>
        <time>2016-09-25T08:32:23Z</time>
      </trkpt>
      <trkpt lat="44.49852" lon="4.99202">
        <ele>579.33</ele>
        <time>2016-09-25T08:32:24Z</time>
      </trkpt>
      <trkpt lat="44.49855" lon="4.99201">
        <ele>579.33</ele>
        <time>2016-09-25T08:32:25Z</time>
      </trkpt>
      <trkpt lat="44.49858" lon="4.992">
        <ele>579.33</ele>
        <time>2016-09-25T08:32:26Z</time>
      </trkpt>
      <trkpt lat="44.49861" lon="4.99198">
        <ele>579.33</ele>
        <time>2016-09-25T08:32:27Z</time>
      </trkpt>
      <trkpt lat="44.49864" lon="4.99197">
        <ele>578.85</ele>
        <time>2016-09-25T08:32:28Z</time>
      </trkpt>
      <trkpt lat="44.49867" lon="4.99196">
        <ele>578.85</ele>
        <time>2016-09-25T08:32:29Z</time>
      </trkpt>
      <trkpt lat="44.49871" lon="4.99195">
        <ele>578.85</ele>
        <time>2016-09-25T08:32:30Z</time>
      </trkpt>
      <trkpt lat="44.49886" lon="4.99192">
        <ele>578.85</ele>
        <time>2016-09-25T08:32:34Z</time>
      </trkpt>
      <trkpt lat="44.4989" lon="4.99193">
        <ele>578.85</ele>
        <time>2016-09-25T08:32:35Z</time>
      </trkpt>
      <trkpt lat="44.49922" lon="4.99212">
        <ele>579.81</ele>
        <time>2016-09-25T08:32:46Z</time>
      </trkpt>
      <trkpt lat="44.49937" lon="4.99223">
        <ele>579.81</ele>
        <time>2016-09-25T08:32:52Z</time>
      </trkpt>
      <trkpt lat="44.4994" lon="4.99222">
        <ele>580.29</ele>
        <time>2016-09-25T08:32:53Z</time>
      </trkpt>
      <trkpt lat="44.49946" lon="4.99222">
        <ele>581.25</ele>
        <time>2016-09-25T08:32:58Z</time>
      </trkpt>
      <trkpt lat="44.49947" lon="4.99224">
        <ele>581.25</ele>
        <time>2016-09-25T08:33:10Z</time>
      </trkpt>
      <trkpt lat="44.49947" lon="4.99226">
        <ele>581.25</ele>
        <time>2016-09-25T08:33:13Z</time>
      </trkpt>
      <trkpt lat="44.49946" lon="4.99229">
        <ele>581.25</ele>
        <time>2016-09-25T08:33:14Z</time>
      </trkpt>
      <trkpt lat="44.49945" lon="4.99231">
        <ele>581.25</ele>
        <time>2016-09-25T08:33:15Z</time>
      </trkpt>
      <trkpt lat="44.49943" lon="4.99233">
        <ele>581.25</ele>
        <time>2016-09-25T08:33:16Z</time>
      </trkpt>
      <trkpt lat="44.49941" lon="4.99235">
        <ele>581.25</ele>
        <time>2016-09-25T08:33:17Z</time>
      </trkpt>
      <trkpt lat="44.4994" lon="4.99236">
        <ele>581.73</ele>
        <time>2016-09-25T08:33:19Z</time>
      </trkpt>
      <trkpt lat="44.49938" lon="4.99236">
        <ele>581.73</ele>
        <time>2016-09-25T08:33:20Z</time>
      </trkpt>
      <trkpt lat="44.49935" lon="4.99234">
        <ele>582.22</ele>
        <time>2016-09-25T08:33:21Z</time>
      </trkpt>
      <trkpt lat="44.49933" lon="4.99233">
        <ele>582.22</ele>
        <time>2016-09-25T08:33:22Z</time>
      </trkpt>
      <trkpt lat="44.49931" lon="4.99232">
        <ele>582.7</ele>
        <time>2016-09-25T08:33:23Z</time>
      </trkpt>
      <trkpt lat="44.49912" lon="4.99218">
        <ele>586.06</ele>
        <time>2016-09-25T08:33:34Z</time>
      </trkpt>
      <trkpt lat="44.49911" lon="4.99217">
        <ele>586.06</ele>
        <time>2016-09-25T08:33:35Z</time>
      </trkpt>
      <trkpt lat="44.49902" lon="4.99217">
        <ele>587.02</ele>
        <time>2016-09-25T08:33:40Z</time>
      </trkpt>
      <trkpt lat="44.499" lon="4.99217">
        <ele>587.5</ele>
        <time>2016-09-25T08:33:41Z</time>
      </trkpt>
      <trkpt lat="44.49898" lon="4.99218">
        <ele>587.5</ele>
        <time>2016-09-25T08:33:42Z</time>
      </trkpt>
      <trkpt lat="44.49876" lon="4.99231">
        <ele>589.91</ele>
        <time>2016-09-25T08:33:54Z</time>
      </trkpt>
      <trkpt lat="44.49848" lon="4.99245">
        <ele>591.35</ele>
        <time>2016-09-25T08:34:06Z</time>
      </trkpt>
      <trkpt lat="44.49837" lon="4.9925">
        <ele>590.87</ele>
        <time>2016-09-25T08:34:10Z</time>
      </trkpt>
      <trkpt lat="44.49813" lon="4.99236">
        <ele>592.79</ele>
        <time>2016-09-25T08:34:20Z</time>
      </trkpt>
      <trkpt lat="44.49807" lon="4.99235">
        <ele>592.79</ele>
        <time>2016-09-25T08:34:23Z</time>
      </trkpt>
      <trkpt lat="44.49804" lon="4.99233">
        <ele>592.79</ele>
        <time>2016-09-25T08:34:24Z</time>
      </trkpt>
      <trkpt lat="44.49801" lon="4.99232">
        <ele>593.27</ele>
        <time>2016-09-25T08:34:25Z</time>
      </trkpt>
      <trkpt lat="44.49789" lon="4.99227">
        <ele>594.23</ele>
        <time>2016-09-25T08:34:29Z</time>
      </trkpt>
      <trkpt lat="44.49779" lon="4.99227">
        <ele>595.67</ele>
        <time>2016-09-25T08:34:35Z</time>
      </trkpt>
      <trkpt lat="44.49778" lon="4.99228">
        <ele>595.67</ele>
        <time>2016-09-25T08:34:36Z</time>
      </trkpt>
      <trkpt lat="44.49776" lon="4.99229">
        <ele>596.15</ele>
        <time>2016-09-25T08:34:37Z</time>
      </trkpt>
      <trkpt lat="44.49775" lon="4.9923">
        <ele>596.15</ele>
        <time>2016-09-25T08:34:38Z</time>
      </trkpt>
      <trkpt lat="44.49773" lon="4.99231">
        <ele>596.15</ele>
        <time>2016-09-25T08:34:39Z</time>
      </trkpt>
      <trkpt lat="44.49771" lon="4.99232">
        <ele>596.64</ele>
        <time>2016-09-25T08:34:40Z</time>
      </trkpt>
      <trkpt lat="44.49769" lon="4.99233">
        <ele>597.12</ele>
        <time>2016-09-25T08:34:41Z</time>
      </trkpt>
      <trkpt lat="44.49768" lon="4.99233">
        <ele>597.12</ele>
        <time>2016-09-25T08:34:42Z</time>
      </trkpt>
      <trkpt lat="44.49766" lon="4.99234">
        <ele>597.6</ele>
        <time>2016-09-25T08:34:43Z</time>
      </trkpt>
      <trkpt lat="44.49764" lon="4.99235">
        <ele>598.08</ele>
        <time>2016-09-25T08:34:45Z</time>
      </trkpt>
      <trkpt lat="44.49748" lon="4.99241">
        <ele>600</ele>
        <time>2016-09-25T08:34:55Z</time>
      </trkpt>
      <trkpt lat="44.49728" lon="4.99246">
        <ele>601.92</ele>
        <time>2016-09-25T08:35:07Z</time>
      </trkpt>
      <trkpt lat="44.49708" lon="4.99256">
        <ele>604.81</ele>
        <time>2016-09-25T08:35:20Z</time>
      </trkpt>
      <trkpt lat="44.49703" lon="4.99261">
        <ele>605.29</ele>
        <time>2016-09-25T08:35:24Z</time>
      </trkpt>
      <trkpt lat="44.49701" lon="4.99263">
        <ele>605.29</ele>
        <time>2016-09-25T08:35:25Z</time>
      </trkpt>
      <trkpt lat="44.497" lon="4.99265">
        <ele>605.77</ele>
        <time>2016-09-25T08:35:26Z</time>
      </trkpt>
      <trkpt lat="44.49698" lon="4.99266">
        <ele>605.77</ele>
        <time>2016-09-25T08:35:27Z</time>
      </trkpt>
      <trkpt lat="44.49697" lon="4.99267">
        <ele>606.25</ele>
        <time>2016-09-25T08:35:28Z</time>
      </trkpt>
      <trkpt lat="44.49675" lon="4.99288">
        <ele>609.13</ele>
        <time>2016-09-25T08:35:44Z</time>
      </trkpt>
      <trkpt lat="44.49673" lon="4.99288">
        <ele>609.13</ele>
        <time>2016-09-25T08:35:45Z</time>
      </trkpt>
      <trkpt lat="44.4965" lon="4.99299">
        <ele>611.06</ele>
        <time>2016-09-25T08:35:59Z</time>
      </trkpt>
      <trkpt lat="44.49628" lon="4.99311">
        <ele>614.42</ele>
        <time>2016-09-25T08:36:13Z</time>
      </trkpt>
      <trkpt lat="44.49604" lon="4.99342">
        <ele>613.94</ele>
        <time>2016-09-25T08:36:27Z</time>
      </trkpt>
      <trkpt lat="44.49575" lon="4.99362">
        <ele>614.9</ele>
        <time>2016-09-25T08:36:40Z</time>
      </trkpt>
      <trkpt lat="44.49546" lon="4.99368">
        <ele>616.34</ele>
        <time>2016-09-25T08:36:53Z</time>
      </trkpt>
      <trkpt lat="44.49536" lon="4.99367">
        <ele>618.26</ele>
        <time>2016-09-25T08:37:04Z</time>
      </trkpt>
      <trkpt lat="44.49526" lon="4.99372">
        <ele>621.63</ele>
        <time>2016-09-25T08:37:17Z</time>
      </trkpt>
      <trkpt lat="44.49525" lon="4.99373">
        <ele>621.63</ele>
        <time>2016-09-25T08:37:18Z</time>
      </trkpt>
      <trkpt lat="44.49521" lon="4.99374">
        <ele>622.59</ele>
        <time>2016-09-25T08:37:21Z</time>
      </trkpt>
      <trkpt lat="44.4952" lon="4.99374">
        <ele>622.59</ele>
        <time>2016-09-25T08:37:22Z</time>
      </trkpt>
      <trkpt lat="44.49519" lon="4.99373">
        <ele>623.55</ele>
        <time>2016-09-25T08:37:23Z</time>
      </trkpt>
      <trkpt lat="44.49518" lon="4.99372">
        <ele>623.55</ele>
        <time>2016-09-25T08:37:24Z</time>
      </trkpt>
      <trkpt lat="44.49517" lon="4.9937">
        <ele>624.03</ele>
        <time>2016-09-25T08:37:25Z</time>
      </trkpt>
      <trkpt lat="44.49516" lon="4.99369">
        <ele>624.03</ele>
        <time>2016-09-25T08:37:26Z</time>
      </trkpt>
      <trkpt lat="44.49515" lon="4.99367">
        <ele>624.03</ele>
        <time>2016-09-25T08:37:27Z</time>
      </trkpt>
      <trkpt lat="44.49511" lon="4.99363">
        <ele>624.99</ele>
        <time>2016-09-25T08:37:38Z</time>
      </trkpt>
      <trkpt lat="44.49511" lon="4.99366">
        <ele>625.47</ele>
        <time>2016-09-25T08:37:43Z</time>
      </trkpt>
      <trkpt lat="44.49511" lon="4.99371">
        <ele>625.96</ele>
        <time>2016-09-25T08:37:57Z</time>
      </trkpt>
      <trkpt lat="44.49512" lon="4.99373">
        <ele>625.96</ele>
        <time>2016-09-25T08:38:11Z</time>
      </trkpt>
      <trkpt lat="44.49512" lon="4.99375">
        <ele>625.96</ele>
        <time>2016-09-25T08:38:29Z</time>
      </trkpt>
      <trkpt lat="44.49512" lon="4.99375">
        <ele>625.96</ele>
        <time>2016-09-25T08:38:52Z</time>
      </trkpt>
      <trkpt lat="44.49512" lon="4.99375">
        <ele>623.55</ele>
        <time>2016-09-25T08:39:00Z</time>
      </trkpt>
      <trkpt lat="44.49511" lon="4.99387">
        <ele>625.96</ele>
        <time>2016-09-25T08:43:20Z</time>
      </trkpt>
      <trkpt lat="44.49517" lon="4.9939">
        <ele>625.96</ele>
        <time>2016-09-25T08:43:24Z</time>
      </trkpt>
      <trkpt lat="44.49531" lon="4.99421">
        <ele>629.32</ele>
        <time>2016-09-25T08:43:40Z</time>
      </trkpt>
      <trkpt lat="44.49533" lon="4.99426">
        <ele>630.28</ele>
        <time>2016-09-25T08:43:45Z</time>
      </trkpt>
      <trkpt lat="44.49524" lon="4.99433">
        <ele>633.17</ele>
        <time>2016-09-25T08:43:58Z</time>
      </trkpt>
      <trkpt lat="44.4952" lon="4.99432">
        <ele>634.13</ele>
        <time>2016-09-25T08:44:02Z</time>
      </trkpt>
      <trkpt lat="44.49515" lon="4.99433">
        <ele>635.09</ele>
        <time>2016-09-25T08:44:08Z</time>
      </trkpt>
      <trkpt lat="44.49508" lon="4.99438">
        <ele>637.01</ele>
        <time>2016-09-25T08:44:18Z</time>
      </trkpt>
      <trkpt lat="44.49503" lon="4.9944">
        <ele>637.97</ele>
        <time>2016-09-25T08:44:22Z</time>
      </trkpt>
      <trkpt lat="44.49495" lon="4.99446">
        <ele>639.89</ele>
        <time>2016-09-25T08:44:33Z</time>
      </trkpt>
      <trkpt lat="44.49485" lon="4.99451">
        <ele>640.86</ele>
        <time>2016-09-25T08:44:46Z</time>
      </trkpt>
      <trkpt lat="44.49481" lon="4.99452">
        <ele>641.34</ele>
        <time>2016-09-25T08:44:48Z</time>
      </trkpt>
      <trkpt lat="44.49475" lon="4.99453">
        <ele>641.82</ele>
        <time>2016-09-25T08:44:52Z</time>
      </trkpt>
      <trkpt lat="44.49452" lon="4.99458">
        <ele>645.18</ele>
        <time>2016-09-25T08:45:06Z</time>
      </trkpt>
      <trkpt lat="44.49432" lon="4.99466">
        <ele>647.1</ele>
        <time>2016-09-25T08:45:18Z</time>
      </trkpt>
      <trkpt lat="44.49429" lon="4.99469">
        <ele>647.1</ele>
        <time>2016-09-25T08:45:20Z</time>
      </trkpt>
      <trkpt lat="44.49408" lon="4.99486">
        <ele>649.51</ele>
        <time>2016-09-25T08:45:34Z</time>
      </trkpt>
      <trkpt lat="44.49395" lon="4.99497">
        <ele>650.47</ele>
        <time>2016-09-25T08:45:44Z</time>
      </trkpt>
      <trkpt lat="44.49387" lon="4.99506">
        <ele>651.43</ele>
        <time>2016-09-25T08:45:50Z</time>
      </trkpt>
      <trkpt lat="44.49364" lon="4.99526">
        <ele>654.8</ele>
        <time>2016-09-25T08:46:06Z</time>
      </trkpt>
      <trkpt lat="44.49349" lon="4.99538">
        <ele>656.72</ele>
        <time>2016-09-25T08:46:17Z</time>
      </trkpt>
      <trkpt lat="44.4934" lon="4.99546">
        <ele>658.16</ele>
        <time>2016-09-25T08:46:24Z</time>
      </trkpt>
      <trkpt lat="44.49326" lon="4.99557">
        <ele>659.6</ele>
        <time>2016-09-25T08:46:34Z</time>
      </trkpt>
      <trkpt lat="44.49316" lon="4.99568">
        <ele>660.56</ele>
        <time>2016-09-25T08:46:42Z</time>
      </trkpt>
      <trkpt lat="44.493" lon="4.99586">
        <ele>662.97</ele>
        <time>2016-09-25T08:46:54Z</time>
      </trkpt>
      <trkpt lat="44.49279" lon="4.99609">
        <ele>664.89</ele>
        <time>2016-09-25T08:47:08Z</time>
      </trkpt>
      <trkpt lat="44.49271" lon="4.99618">
        <ele>665.37</ele>
        <time>2016-09-25T08:47:13Z</time>
      </trkpt>
      <trkpt lat="44.49265" lon="4.9963">
        <ele>665.37</ele>
        <time>2016-09-25T08:47:17Z</time>
      </trkpt>
      <trkpt lat="44.49251" lon="4.9964">
        <ele>664.41</ele>
        <time>2016-09-25T08:47:24Z</time>
      </trkpt>
      <trkpt lat="44.4925" lon="4.99646">
        <ele>663.93</ele>
        <time>2016-09-25T08:47:25Z</time>
      </trkpt>
      <trkpt lat="44.4925" lon="4.99651">
        <ele>664.41</ele>
        <time>2016-09-25T08:47:26Z</time>
      </trkpt>
      <trkpt lat="44.4925" lon="4.99657">
        <ele>664.41</ele>
        <time>2016-09-25T08:47:27Z</time>
      </trkpt>
      <trkpt lat="44.4925" lon="4.99663">
        <ele>664.41</ele>
        <time>2016-09-25T08:47:28Z</time>
      </trkpt>
      <trkpt lat="44.49251" lon="4.99669">
        <ele>663.93</ele>
        <time>2016-09-25T08:47:29Z</time>
      </trkpt>
      <trkpt lat="44.49263" lon="4.99717">
        <ele>663.45</ele>
        <time>2016-09-25T08:47:40Z</time>
      </trkpt>
      <trkpt lat="44.49273" lon="4.99771">
        <ele>661.04</ele>
        <time>2016-09-25T08:47:51Z</time>
      </trkpt>
      <trkpt lat="44.49281" lon="4.99791">
        <ele>660.56</ele>
        <time>2016-09-25T08:47:55Z</time>
      </trkpt>
      <trkpt lat="44.49284" lon="4.99795">
        <ele>660.56</ele>
        <time>2016-09-25T08:47:56Z</time>
      </trkpt>
      <trkpt lat="44.49286" lon="4.99799">
        <ele>660.56</ele>
        <time>2016-09-25T08:47:57Z</time>
      </trkpt>
      <trkpt lat="44.49288" lon="4.99803">
        <ele>660.56</ele>
        <time>2016-09-25T08:47:58Z</time>
      </trkpt>
      <trkpt lat="44.4929" lon="4.99806">
        <ele>660.56</ele>
        <time>2016-09-25T08:47:59Z</time>
      </trkpt>
      <trkpt lat="44.49292" lon="4.99809">
        <ele>661.04</ele>
        <time>2016-09-25T08:48:00Z</time>
      </trkpt>
      <trkpt lat="44.49298" lon="4.99821">
        <ele>660.56</ele>
        <time>2016-09-25T08:48:03Z</time>
      </trkpt>
      <trkpt lat="44.49321" lon="4.99868">
        <ele>660.08</ele>
        <time>2016-09-25T08:48:13Z</time>
      </trkpt>
      <trkpt lat="44.49341" lon="4.99909">
        <ele>662.49</ele>
        <time>2016-09-25T08:48:24Z</time>
      </trkpt>
      <trkpt lat="44.49341" lon="4.99912">
        <ele>662.97</ele>
        <time>2016-09-25T08:48:25Z</time>
      </trkpt>
      <trkpt lat="44.49342" lon="4.99916">
        <ele>662.97</ele>
        <time>2016-09-25T08:48:26Z</time>
      </trkpt>
      <trkpt lat="44.49342" lon="4.99919">
        <ele>662.97</ele>
        <time>2016-09-25T08:48:27Z</time>
      </trkpt>
      <trkpt lat="44.49342" lon="4.99922">
        <ele>662.97</ele>
        <time>2016-09-25T08:48:28Z</time>
      </trkpt>
      <trkpt lat="44.49345" lon="4.99935">
        <ele>663.93</ele>
        <time>2016-09-25T08:48:33Z</time>
      </trkpt>
      <trkpt lat="44.49345" lon="4.99937">
        <ele>663.93</ele>
        <time>2016-09-25T08:48:34Z</time>
      </trkpt>
      <trkpt lat="44.49344" lon="4.99939">
        <ele>664.41</ele>
        <time>2016-09-25T08:48:36Z</time>
      </trkpt>
      <trkpt lat="44.49342" lon="4.99937">
        <ele>664.41</ele>
        <time>2016-09-25T08:48:47Z</time>
      </trkpt>
      <trkpt lat="44.49341" lon="4.99935">
        <ele>664.41</ele>
        <time>2016-09-25T08:49:04Z</time>
      </trkpt>
      <trkpt lat="44.4934" lon="4.99934">
        <ele>663.93</ele>
        <time>2016-09-25T08:49:05Z</time>
      </trkpt>
      <trkpt lat="44.49338" lon="4.99934">
        <ele>663.93</ele>
        <time>2016-09-25T08:49:06Z</time>
      </trkpt>
      <trkpt lat="44.49336" lon="4.99933">
        <ele>663.93</ele>
        <time>2016-09-25T08:49:07Z</time>
      </trkpt>
      <trkpt lat="44.49334" lon="4.99932">
        <ele>663.93</ele>
        <time>2016-09-25T08:49:08Z</time>
      </trkpt>
      <trkpt lat="44.49332" lon="4.9993">
        <ele>663.93</ele>
        <time>2016-09-25T08:49:09Z</time>
      </trkpt>
      <trkpt lat="44.49331" lon="4.99928">
        <ele>663.45</ele>
        <time>2016-09-25T08:49:10Z</time>
      </trkpt>
      <trkpt lat="44.4933" lon="4.99926">
        <ele>663.45</ele>
        <time>2016-09-25T08:49:11Z</time>
      </trkpt>
      <trkpt lat="44.49328" lon="4.99923">
        <ele>663.45</ele>
        <time>2016-09-25T08:49:12Z</time>
      </trkpt>
      <trkpt lat="44.49325" lon="4.9992">
        <ele>662.49</ele>
        <time>2016-09-25T08:49:13Z</time>
      </trkpt>
      <trkpt lat="44.49321" lon="4.99917">
        <ele>662.49</ele>
        <time>2016-09-25T08:49:14Z</time>
      </trkpt>
      <trkpt lat="44.49316" lon="4.99911">
        <ele>661.52</ele>
        <time>2016-09-25T08:49:16Z</time>
      </trkpt>
      <trkpt lat="44.49313" lon="4.99907">
        <ele>660.56</ele>
        <time>2016-09-25T08:49:17Z</time>
      </trkpt>
      <trkpt lat="44.49305" lon="4.99898">
        <ele>660.08</ele>
        <time>2016-09-25T08:49:19Z</time>
      </trkpt>
      <trkpt lat="44.49286" lon="4.99875">
        <ele>656.72</ele>
        <time>2016-09-25T08:49:23Z</time>
      </trkpt>
      <trkpt lat="44.49269" lon="4.99855">
        <ele>654.31</ele>
        <time>2016-09-25T08:49:26Z</time>
      </trkpt>
      <trkpt lat="44.49265" lon="4.99851">
        <ele>653.83</ele>
        <time>2016-09-25T08:49:27Z</time>
      </trkpt>
      <trkpt lat="44.49261" lon="4.99847">
        <ele>653.83</ele>
        <time>2016-09-25T08:49:28Z</time>
      </trkpt>
      <trkpt lat="44.49257" lon="4.99843">
        <ele>652.87</ele>
        <time>2016-09-25T08:49:29Z</time>
      </trkpt>
      <trkpt lat="44.49252" lon="4.99838">
        <ele>651.91</ele>
        <time>2016-09-25T08:49:30Z</time>
      </trkpt>
      <trkpt lat="44.49247" lon="4.99833">
        <ele>649.99</ele>
        <time>2016-09-25T08:49:31Z</time>
      </trkpt>
      <trkpt lat="44.49232" lon="4.99815">
        <ele>646.62</ele>
        <time>2016-09-25T08:49:34Z</time>
      </trkpt>
      <trkpt lat="44.4921" lon="4.99786">
        <ele>643.26</ele>
        <time>2016-09-25T08:49:39Z</time>
      </trkpt>
      <trkpt lat="44.49203" lon="4.99778">
        <ele>642.78</ele>
        <time>2016-09-25T08:49:40Z</time>
      </trkpt>
      <trkpt lat="44.49181" lon="4.99753">
        <ele>639.41</ele>
        <time>2016-09-25T08:49:44Z</time>
      </trkpt>
      <trkpt lat="44.49174" lon="4.99748">
        <ele>638.93</ele>
        <time>2016-09-25T08:49:45Z</time>
      </trkpt>
      <trkpt lat="44.49162" lon="4.9974">
        <ele>637.97</ele>
        <time>2016-09-25T08:49:47Z</time>
      </trkpt>
      <trkpt lat="44.49141" lon="4.99725">
        <ele>635.09</ele>
        <time>2016-09-25T08:49:51Z</time>
      </trkpt>
      <trkpt lat="44.49119" lon="4.99703">
        <ele>631.24</ele>
        <time>2016-09-25T08:49:55Z</time>
      </trkpt>
      <trkpt lat="44.49102" lon="4.99684">
        <ele>627.88</ele>
        <time>2016-09-25T08:49:59Z</time>
      </trkpt>
      <trkpt lat="44.49098" lon="4.99678">
        <ele>626.92</ele>
        <time>2016-09-25T08:50:00Z</time>
      </trkpt>
      <trkpt lat="44.49095" lon="4.99673">
        <ele>625.96</ele>
        <time>2016-09-25T08:50:01Z</time>
      </trkpt>
      <trkpt lat="44.49091" lon="4.99667">
        <ele>625.47</ele>
        <time>2016-09-25T08:50:02Z</time>
      </trkpt>
      <trkpt lat="44.4908" lon="4.99647">
        <ele>623.55</ele>
        <time>2016-09-25T08:50:05Z</time>
      </trkpt>
      <trkpt lat="44.49077" lon="4.9964">
        <ele>623.07</ele>
        <time>2016-09-25T08:50:06Z</time>
      </trkpt>
      <trkpt lat="44.49074" lon="4.99632">
        <ele>622.11</ele>
        <time>2016-09-25T08:50:07Z</time>
      </trkpt>
      <trkpt lat="44.49069" lon="4.99617">
        <ele>620.67</ele>
        <time>2016-09-25T08:50:09Z</time>
      </trkpt>
      <trkpt lat="44.49067" lon="4.99611">
        <ele>619.71</ele>
        <time>2016-09-25T08:50:10Z</time>
      </trkpt>
      <trkpt lat="44.49066" lon="4.99605">
        <ele>618.75</ele>
        <time>2016-09-25T08:50:11Z</time>
      </trkpt>
      <trkpt lat="44.49063" lon="4.99598">
        <ele>618.26</ele>
        <time>2016-09-25T08:50:12Z</time>
      </trkpt>
      <trkpt lat="44.49061" lon="4.99589">
        <ele>616.82</ele>
        <time>2016-09-25T08:50:13Z</time>
      </trkpt>
      <trkpt lat="44.4906" lon="4.99581">
        <ele>616.34</ele>
        <time>2016-09-25T08:50:14Z</time>
      </trkpt>
      <trkpt lat="44.49057" lon="4.99563">
        <ele>613.94</ele>
        <time>2016-09-25T08:50:16Z</time>
      </trkpt>
      <trkpt lat="44.49058" lon="4.99555">
        <ele>612.98</ele>
        <time>2016-09-25T08:50:17Z</time>
      </trkpt>
      <trkpt lat="44.49059" lon="4.99547">
        <ele>612.02</ele>
        <time>2016-09-25T08:50:18Z</time>
      </trkpt>
      <trkpt lat="44.49058" lon="4.99539">
        <ele>611.06</ele>
        <time>2016-09-25T08:50:19Z</time>
      </trkpt>
      <trkpt lat="44.49058" lon="4.99531">
        <ele>609.13</ele>
        <time>2016-09-25T08:50:20Z</time>
      </trkpt>
      <trkpt lat="44.49057" lon="4.99523">
        <ele>608.17</ele>
        <time>2016-09-25T08:50:21Z</time>
      </trkpt>
      <trkpt lat="44.49056" lon="4.99515">
        <ele>607.69</ele>
        <time>2016-09-25T08:50:22Z</time>
      </trkpt>
      <trkpt lat="44.49054" lon="4.99507">
        <ele>606.73</ele>
        <time>2016-09-25T08:50:23Z</time>
      </trkpt>
      <trkpt lat="44.49051" lon="4.99499">
        <ele>605.77</ele>
        <time>2016-09-25T08:50:24Z</time>
      </trkpt>
      <trkpt lat="44.49048" lon="4.99491">
        <ele>604.81</ele>
        <time>2016-09-25T08:50:25Z</time>
      </trkpt>
      <trkpt lat="44.49044" lon="4.99485">
        <ele>603.85</ele>
        <time>2016-09-25T08:50:26Z</time>
      </trkpt>
      <trkpt lat="44.49039" lon="4.99479">
        <ele>602.88</ele>
        <time>2016-09-25T08:50:27Z</time>
      </trkpt>
      <trkpt lat="44.49032" lon="4.99474">
        <ele>601.44</ele>
        <time>2016-09-25T08:50:28Z</time>
      </trkpt>
      <trkpt lat="44.49012" lon="4.99464">
        <ele>598.56</ele>
        <time>2016-09-25T08:50:31Z</time>
      </trkpt>
      <trkpt lat="44.49005" lon="4.99461">
        <ele>597.12</ele>
        <time>2016-09-25T08:50:32Z</time>
      </trkpt>
      <trkpt lat="44.48998" lon="4.99459">
        <ele>596.15</ele>
        <time>2016-09-25T08:50:33Z</time>
      </trkpt>
      <trkpt lat="44.48992" lon="4.99458">
        <ele>595.19</ele>
        <time>2016-09-25T08:50:34Z</time>
      </trkpt>
      <trkpt lat="44.48986" lon="4.99459">
        <ele>595.19</ele>
        <time>2016-09-25T08:50:35Z</time>
      </trkpt>
      <trkpt lat="44.48982" lon="4.9946">
        <ele>594.23</ele>
        <time>2016-09-25T08:50:36Z</time>
      </trkpt>
      <trkpt lat="44.48977" lon="4.99462">
        <ele>594.23</ele>
        <time>2016-09-25T08:50:37Z</time>
      </trkpt>
      <trkpt lat="44.48974" lon="4.99465">
        <ele>594.23</ele>
        <time>2016-09-25T08:50:38Z</time>
      </trkpt>
      <trkpt lat="44.48972" lon="4.9947">
        <ele>593.75</ele>
        <time>2016-09-25T08:50:39Z</time>
      </trkpt>
      <trkpt lat="44.4897" lon="4.99473">
        <ele>593.75</ele>
        <time>2016-09-25T08:50:40Z</time>
      </trkpt>
      <trkpt lat="44.48965" lon="4.99474">
        <ele>594.71</ele>
        <time>2016-09-25T08:50:44Z</time>
      </trkpt>
      <trkpt lat="44.48963" lon="4.99471">
        <ele>594.23</ele>
        <time>2016-09-25T08:50:45Z</time>
      </trkpt>
      <trkpt lat="44.4896" lon="4.99453">
        <ele>590.87</ele>
        <time>2016-09-25T08:50:49Z</time>
      </trkpt>
      <trkpt lat="44.48949" lon="4.99435">
        <ele>587.02</ele>
        <time>2016-09-25T08:50:54Z</time>
      </trkpt>
      <trkpt lat="44.48942" lon="4.99422">
        <ele>584.14</ele>
        <time>2016-09-25T08:50:57Z</time>
      </trkpt>
      <trkpt lat="44.48939" lon="4.99417">
        <ele>583.18</ele>
        <time>2016-09-25T08:50:58Z</time>
      </trkpt>
      <trkpt lat="44.48918" lon="4.99397">
        <ele>579.33</ele>
        <time>2016-09-25T08:51:03Z</time>
      </trkpt>
      <trkpt lat="44.48908" lon="4.99386">
        <ele>578.85</ele>
        <time>2016-09-25T08:51:07Z</time>
      </trkpt>
      <trkpt lat="44.48907" lon="4.99376">
        <ele>574.53</ele>
        <time>2016-09-25T08:51:10Z</time>
      </trkpt>
      <trkpt lat="44.48907" lon="4.99372">
        <ele>575.01</ele>
        <time>2016-09-25T08:51:11Z</time>
      </trkpt>
      <trkpt lat="44.48901" lon="4.99356">
        <ele>575.01</ele>
        <time>2016-09-25T08:51:22Z</time>
      </trkpt>
      <trkpt lat="44.489" lon="4.99352">
        <ele>576.93</ele>
        <time>2016-09-25T08:51:31Z</time>
      </trkpt>
      <trkpt lat="44.48887" lon="4.9933">
        <ele>578.37</ele>
        <time>2016-09-25T08:51:45Z</time>
      </trkpt>
      <trkpt lat="44.48884" lon="4.99327">
        <ele>578.37</ele>
        <time>2016-09-25T08:51:47Z</time>
      </trkpt>
      <trkpt lat="44.48873" lon="4.99315">
        <ele>576.45</ele>
        <time>2016-09-25T08:51:53Z</time>
      </trkpt>
      <trkpt lat="44.48869" lon="4.99313">
        <ele>575.49</ele>
        <time>2016-09-25T08:51:55Z</time>
      </trkpt>
      <trkpt lat="44.48865" lon="4.99311">
        <ele>574.53</ele>
        <time>2016-09-25T08:51:57Z</time>
      </trkpt>
      <trkpt lat="44.48835" lon="4.99274">
        <ele>570.2</ele>
        <time>2016-09-25T08:52:10Z</time>
      </trkpt>
      <trkpt lat="44.48829" lon="4.9927">
        <ele>567.8</ele>
        <time>2016-09-25T08:52:12Z</time>
      </trkpt>
      <trkpt lat="44.48822" lon="4.99258">
        <ele>565.39</ele>
        <time>2016-09-25T08:52:17Z</time>
      </trkpt>
      <trkpt lat="44.48818" lon="4.99246">
        <ele>565.87</ele>
        <time>2016-09-25T08:52:28Z</time>
      </trkpt>
      <trkpt lat="44.48817" lon="4.99245">
        <ele>565.39</ele>
        <time>2016-09-25T08:53:02Z</time>
      </trkpt>
      <trkpt lat="44.48815" lon="4.9924">
        <ele>564.91</ele>
        <time>2016-09-25T08:53:03Z</time>
      </trkpt>
      <trkpt lat="44.4881" lon="4.99227">
        <ele>562.99</ele>
        <time>2016-09-25T08:53:06Z</time>
      </trkpt>
      <trkpt lat="44.48797" lon="4.99205">
        <ele>559.62</ele>
        <time>2016-09-25T08:53:12Z</time>
      </trkpt>
      <trkpt lat="44.4878" lon="4.99182">
        <ele>557.7</ele>
        <time>2016-09-25T08:53:20Z</time>
      </trkpt>
      <trkpt lat="44.48765" lon="4.99175">
        <ele>560.59</ele>
        <time>2016-09-25T08:53:31Z</time>
      </trkpt>
      <trkpt lat="44.48757" lon="4.99174">
        <ele>563.47</ele>
        <time>2016-09-25T08:53:42Z</time>
      </trkpt>
      <trkpt lat="44.48746" lon="4.99175">
        <ele>566.35</ele>
        <time>2016-09-25T08:53:54Z</time>
      </trkpt>
      <trkpt lat="44.48742" lon="4.99175">
        <ele>567.32</ele>
        <time>2016-09-25T08:54:09Z</time>
      </trkpt>
      <trkpt lat="44.48737" lon="4.99172">
        <ele>567.8</ele>
        <time>2016-09-25T08:54:16Z</time>
      </trkpt>
      <trkpt lat="44.48719" lon="4.99167">
        <ele>570.68</ele>
        <time>2016-09-25T08:54:27Z</time>
      </trkpt>
      <trkpt lat="44.48703" lon="4.99155">
        <ele>573.08</ele>
        <time>2016-09-25T08:54:39Z</time>
      </trkpt>
      <trkpt lat="44.48691" lon="4.99147">
        <ele>575.01</ele>
        <time>2016-09-25T08:54:48Z</time>
      </trkpt>
      <trkpt lat="44.4868" lon="4.99143">
        <ele>576.45</ele>
        <time>2016-09-25T08:54:55Z</time>
      </trkpt>
      <trkpt lat="44.4867" lon="4.99147">
        <ele>577.89</ele>
        <time>2016-09-25T08:55:08Z</time>
      </trkpt>
      <trkpt lat="44.48663" lon="4.99154">
        <ele>579.81</ele>
        <time>2016-09-25T08:55:14Z</time>
      </trkpt>
      <trkpt lat="44.48646" lon="4.99169">
        <ele>581.73</ele>
        <time>2016-09-25T08:55:28Z</time>
      </trkpt>
      <trkpt lat="44.48644" lon="4.99172">
        <ele>582.22</ele>
        <time>2016-09-25T08:55:30Z</time>
      </trkpt>
      <trkpt lat="44.48639" lon="4.99178">
        <ele>583.18</ele>
        <time>2016-09-25T08:55:34Z</time>
      </trkpt>
      <trkpt lat="44.48635" lon="4.99194">
        <ele>585.58</ele>
        <time>2016-09-25T08:55:43Z</time>
      </trkpt>
      <trkpt lat="44.48623" lon="4.99213">
        <ele>587.5</ele>
        <time>2016-09-25T08:55:55Z</time>
      </trkpt>
      <trkpt lat="44.48614" lon="4.99233">
        <ele>589.91</ele>
        <time>2016-09-25T08:56:08Z</time>
      </trkpt>
      <trkpt lat="44.48606" lon="4.99247">
        <ele>591.35</ele>
        <time>2016-09-25T08:56:16Z</time>
      </trkpt>
      <trkpt lat="44.48602" lon="4.99251">
        <ele>591.83</ele>
        <time>2016-09-25T08:56:19Z</time>
      </trkpt>
      <trkpt lat="44.48592" lon="4.99267">
        <ele>590.87</ele>
        <time>2016-09-25T08:56:26Z</time>
      </trkpt>
      <trkpt lat="44.48583" lon="4.99271">
        <ele>590.39</ele>
        <time>2016-09-25T08:56:29Z</time>
      </trkpt>
      <trkpt lat="44.48575" lon="4.99283">
        <ele>590.87</ele>
        <time>2016-09-25T08:56:33Z</time>
      </trkpt>
      <trkpt lat="44.4857" lon="4.99291">
        <ele>591.83</ele>
        <time>2016-09-25T08:56:37Z</time>
      </trkpt>
      <trkpt lat="44.48555" lon="4.99308">
        <ele>593.75</ele>
        <time>2016-09-25T08:56:47Z</time>
      </trkpt>
      <trkpt lat="44.48543" lon="4.99326">
        <ele>596.64</ele>
        <time>2016-09-25T08:56:59Z</time>
      </trkpt>
      <trkpt lat="44.48539" lon="4.99334">
        <ele>598.08</ele>
        <time>2016-09-25T08:57:04Z</time>
      </trkpt>
      <trkpt lat="44.48538" lon="4.99346">
        <ele>600.96</ele>
        <time>2016-09-25T08:57:16Z</time>
      </trkpt>
      <trkpt lat="44.48533" lon="4.99356">
        <ele>601.92</ele>
        <time>2016-09-25T08:57:27Z</time>
      </trkpt>
      <trkpt lat="44.48533" lon="4.99358">
        <ele>601.92</ele>
        <time>2016-09-25T08:57:30Z</time>
      </trkpt>
      <trkpt lat="44.48531" lon="4.99375">
        <ele>603.36</ele>
        <time>2016-09-25T08:57:40Z</time>
      </trkpt>
      <trkpt lat="44.48531" lon="4.99382">
        <ele>604.33</ele>
        <time>2016-09-25T08:57:44Z</time>
      </trkpt>
      <trkpt lat="44.48526" lon="4.99406">
        <ele>606.25</ele>
        <time>2016-09-25T08:57:55Z</time>
      </trkpt>
      <trkpt lat="44.48525" lon="4.99417">
        <ele>606.73</ele>
        <time>2016-09-25T08:58:00Z</time>
      </trkpt>
      <trkpt lat="44.48526" lon="4.9944">
        <ele>609.13</ele>
        <time>2016-09-25T08:58:11Z</time>
      </trkpt>
      <trkpt lat="44.48525" lon="4.99448">
        <ele>610.09</ele>
        <time>2016-09-25T08:58:14Z</time>
      </trkpt>
      <trkpt lat="44.48524" lon="4.99468">
        <ele>612.02</ele>
        <time>2016-09-25T08:58:26Z</time>
      </trkpt>
      <trkpt lat="44.48522" lon="4.99482">
        <ele>614.42</ele>
        <time>2016-09-25T08:58:36Z</time>
      </trkpt>
      <trkpt lat="44.48522" lon="4.99484">
        <ele>614.42</ele>
        <time>2016-09-25T08:58:52Z</time>
      </trkpt>
      <trkpt lat="44.48522" lon="4.99484">
        <ele>614.9</ele>
        <time>2016-09-25T08:59:24Z</time>
      </trkpt>
      <trkpt lat="44.48522" lon="4.99502">
        <ele>616.82</ele>
        <time>2016-09-25T08:59:39Z</time>
      </trkpt>
      <trkpt lat="44.48524" lon="4.99514">
        <ele>619.71</ele>
        <time>2016-09-25T08:59:49Z</time>
      </trkpt>
      <trkpt lat="44.48524" lon="4.99522">
        <ele>621.15</ele>
        <time>2016-09-25T08:59:58Z</time>
      </trkpt>
      <trkpt lat="44.48525" lon="4.99533">
        <ele>623.55</ele>
        <time>2016-09-25T09:00:08Z</time>
      </trkpt>
      <trkpt lat="44.48529" lon="4.99546">
        <ele>626.44</ele>
        <time>2016-09-25T09:00:24Z</time>
      </trkpt>
      <trkpt lat="44.48529" lon="4.99557">
        <ele>628.36</ele>
        <time>2016-09-25T09:00:35Z</time>
      </trkpt>
      <trkpt lat="44.48529" lon="4.99559">
        <ele>628.36</ele>
        <time>2016-09-25T09:00:51Z</time>
      </trkpt>
      <trkpt lat="44.48528" lon="4.99562">
        <ele>628.36</ele>
        <time>2016-09-25T09:01:09Z</time>
      </trkpt>
      <trkpt lat="44.48527" lon="4.99565">
        <ele>628.36</ele>
        <time>2016-09-25T09:01:11Z</time>
      </trkpt>
      <trkpt lat="44.4852" lon="4.99574">
        <ele>628.36</ele>
        <time>2016-09-25T09:01:18Z</time>
      </trkpt>
      <trkpt lat="44.48514" lon="4.99575">
        <ele>628.36</ele>
        <time>2016-09-25T09:01:30Z</time>
      </trkpt>
      <trkpt lat="44.485" lon="4.99574">
        <ele>629.32</ele>
        <time>2016-09-25T09:01:38Z</time>
      </trkpt>
      <trkpt lat="44.48476" lon="4.99558">
        <ele>630.28</ele>
        <time>2016-09-25T09:01:51Z</time>
      </trkpt>
      <trkpt lat="44.48468" lon="4.99552">
        <ele>631.24</ele>
        <time>2016-09-25T09:01:55Z</time>
      </trkpt>
      <trkpt lat="44.48446" lon="4.99539">
        <ele>633.17</ele>
        <time>2016-09-25T09:02:06Z</time>
      </trkpt>
      <trkpt lat="44.48424" lon="4.99521">
        <ele>633.65</ele>
        <time>2016-09-25T09:02:17Z</time>
      </trkpt>
      <trkpt lat="44.48402" lon="4.9951">
        <ele>634.13</ele>
        <time>2016-09-25T09:02:26Z</time>
      </trkpt>
      <trkpt lat="44.48377" lon="4.99505">
        <ele>633.65</ele>
        <time>2016-09-25T09:02:34Z</time>
      </trkpt>
      <trkpt lat="44.48367" lon="4.99504">
        <ele>633.65</ele>
        <time>2016-09-25T09:02:37Z</time>
      </trkpt>
      <trkpt lat="44.48344" lon="4.99498">
        <ele>636.05</ele>
        <time>2016-09-25T09:02:47Z</time>
      </trkpt>
      <trkpt lat="44.48317" lon="4.99487">
        <ele>636.53</ele>
        <time>2016-09-25T09:02:56Z</time>
      </trkpt>
      <trkpt lat="44.48303" lon="4.99484">
        <ele>637.01</ele>
        <time>2016-09-25T09:03:01Z</time>
      </trkpt>
      <trkpt lat="44.48296" lon="4.99479">
        <ele>636.53</ele>
        <time>2016-09-25T09:03:05Z</time>
      </trkpt>
      <trkpt lat="44.48287" lon="4.99475">
        <ele>635.57</ele>
        <time>2016-09-25T09:03:08Z</time>
      </trkpt>
      <trkpt lat="44.48247" lon="4.99473">
        <ele>633.65</ele>
        <time>2016-09-25T09:03:18Z</time>
      </trkpt>
      <trkpt lat="44.48245" lon="4.99474">
        <ele>634.13</ele>
        <time>2016-09-25T09:03:19Z</time>
      </trkpt>
      <trkpt lat="44.48242" lon="4.99473">
        <ele>633.65</ele>
        <time>2016-09-25T09:03:21Z</time>
      </trkpt>
      <trkpt lat="44.48238" lon="4.99467">
        <ele>631.72</ele>
        <time>2016-09-25T09:03:26Z</time>
      </trkpt>
      <trkpt lat="44.48237" lon="4.99457">
        <ele>630.76</ele>
        <time>2016-09-25T09:03:29Z</time>
      </trkpt>
      <trkpt lat="44.48234" lon="4.99428">
        <ele>626.92</ele>
        <time>2016-09-25T09:03:34Z</time>
      </trkpt>
      <trkpt lat="44.48237" lon="4.99422">
        <ele>625.47</ele>
        <time>2016-09-25T09:03:36Z</time>
      </trkpt>
      <trkpt lat="44.48243" lon="4.99419">
        <ele>625.47</ele>
        <time>2016-09-25T09:03:38Z</time>
      </trkpt>
      <trkpt lat="44.48243" lon="4.99412">
        <ele>624.03</ele>
        <time>2016-09-25T09:03:41Z</time>
      </trkpt>
      <trkpt lat="44.48244" lon="4.99403">
        <ele>621.15</ele>
        <time>2016-09-25T09:03:44Z</time>
      </trkpt>
      <trkpt lat="44.48241" lon="4.99395">
        <ele>619.23</ele>
        <time>2016-09-25T09:03:46Z</time>
      </trkpt>
      <trkpt lat="44.4824" lon="4.99391">
        <ele>618.75</ele>
        <time>2016-09-25T09:03:47Z</time>
      </trkpt>
      <trkpt lat="44.48237" lon="4.99388">
        <ele>618.26</ele>
        <time>2016-09-25T09:03:48Z</time>
      </trkpt>
      <trkpt lat="44.48229" lon="4.9938">
        <ele>618.75</ele>
        <time>2016-09-25T09:04:01Z</time>
      </trkpt>
      <trkpt lat="44.48227" lon="4.99377">
        <ele>617.3</ele>
        <time>2016-09-25T09:04:16Z</time>
      </trkpt>
      <trkpt lat="44.4822" lon="4.99371">
        <ele>615.38</ele>
        <time>2016-09-25T09:04:19Z</time>
      </trkpt>
      <trkpt lat="44.48211" lon="4.99366">
        <ele>614.42</ele>
        <time>2016-09-25T09:04:21Z</time>
      </trkpt>
      <trkpt lat="44.48201" lon="4.99359">
        <ele>612.5</ele>
        <time>2016-09-25T09:04:24Z</time>
      </trkpt>
      <trkpt lat="44.48197" lon="4.99357">
        <ele>611.06</ele>
        <time>2016-09-25T09:04:26Z</time>
      </trkpt>
      <trkpt lat="44.4819" lon="4.99349">
        <ele>607.21</ele>
        <time>2016-09-25T09:04:29Z</time>
      </trkpt>
      <trkpt lat="44.48187" lon="4.99347">
        <ele>607.21</ele>
        <time>2016-09-25T09:04:30Z</time>
      </trkpt>
      <trkpt lat="44.48171" lon="4.99341">
        <ele>604.81</ele>
        <time>2016-09-25T09:04:34Z</time>
      </trkpt>
      <trkpt lat="44.48156" lon="4.9932">
        <ele>600.48</ele>
        <time>2016-09-25T09:04:38Z</time>
      </trkpt>
      <trkpt lat="44.48147" lon="4.99305">
        <ele>596.15</ele>
        <time>2016-09-25T09:04:41Z</time>
      </trkpt>
      <trkpt lat="44.48144" lon="4.993">
        <ele>595.19</ele>
        <time>2016-09-25T09:04:42Z</time>
      </trkpt>
      <trkpt lat="44.4814" lon="4.99296">
        <ele>594.23</ele>
        <time>2016-09-25T09:04:43Z</time>
      </trkpt>
      <trkpt lat="44.48136" lon="4.99293">
        <ele>592.79</ele>
        <time>2016-09-25T09:04:44Z</time>
      </trkpt>
      <trkpt lat="44.48125" lon="4.9929">
        <ele>588.46</ele>
        <time>2016-09-25T09:04:48Z</time>
      </trkpt>
      <trkpt lat="44.48118" lon="4.99281">
        <ele>587.02</ele>
        <time>2016-09-25T09:04:50Z</time>
      </trkpt>
      <trkpt lat="44.48104" lon="4.99258">
        <ele>582.22</ele>
        <time>2016-09-25T09:04:55Z</time>
      </trkpt>
      <trkpt lat="44.48097" lon="4.99248">
        <ele>577.41</ele>
        <time>2016-09-25T09:04:58Z</time>
      </trkpt>
      <trkpt lat="44.4809" lon="4.99239">
        <ele>573.08</ele>
        <time>2016-09-25T09:05:02Z</time>
      </trkpt>
      <trkpt lat="44.4809" lon="4.99237">
        <ele>571.64</ele>
        <time>2016-09-25T09:05:03Z</time>
      </trkpt>
      <trkpt lat="44.48081" lon="4.99231">
        <ele>570.2</ele>
        <time>2016-09-25T09:05:05Z</time>
      </trkpt>
      <trkpt lat="44.48074" lon="4.99228">
        <ele>570.2</ele>
        <time>2016-09-25T09:05:07Z</time>
      </trkpt>
      <trkpt lat="44.48067" lon="4.99225">
        <ele>569.24</ele>
        <time>2016-09-25T09:05:09Z</time>
      </trkpt>
      <trkpt lat="44.48051" lon="4.99218">
        <ele>568.28</ele>
        <time>2016-09-25T09:05:13Z</time>
      </trkpt>
      <trkpt lat="44.48032" lon="4.99205">
        <ele>566.83</ele>
        <time>2016-09-25T09:05:16Z</time>
      </trkpt>
      <trkpt lat="44.48005" lon="4.99185">
        <ele>565.39</ele>
        <time>2016-09-25T09:05:22Z</time>
      </trkpt>
      <trkpt lat="44.48001" lon="4.99174">
        <ele>562.51</ele>
        <time>2016-09-25T09:05:24Z</time>
      </trkpt>
      <trkpt lat="44.47995" lon="4.99166">
        <ele>561.55</ele>
        <time>2016-09-25T09:05:26Z</time>
      </trkpt>
      <trkpt lat="44.47969" lon="4.99159">
        <ele>559.14</ele>
        <time>2016-09-25T09:05:36Z</time>
      </trkpt>
      <trkpt lat="44.47955" lon="4.99157">
        <ele>559.62</ele>
        <time>2016-09-25T09:05:47Z</time>
      </trkpt>
      <trkpt lat="44.47945" lon="4.99157">
        <ele>559.62</ele>
        <time>2016-09-25T09:06:00Z</time>
      </trkpt>
      <trkpt lat="44.47936" lon="4.99156">
        <ele>559.14</ele>
        <time>2016-09-25T09:06:04Z</time>
      </trkpt>
      <trkpt lat="44.47913" lon="4.99159">
        <ele>557.22</ele>
        <time>2016-09-25T09:06:14Z</time>
      </trkpt>
      <trkpt lat="44.47906" lon="4.99159">
        <ele>556.74</ele>
        <time>2016-09-25T09:06:16Z</time>
      </trkpt>
      <trkpt lat="44.47897" lon="4.99159">
        <ele>555.78</ele>
        <time>2016-09-25T09:06:19Z</time>
      </trkpt>
      <trkpt lat="44.47883" lon="4.99163">
        <ele>555.78</ele>
        <time>2016-09-25T09:06:25Z</time>
      </trkpt>
      <trkpt lat="44.47877" lon="4.99167">
        <ele>556.26</ele>
        <time>2016-09-25T09:06:27Z</time>
      </trkpt>
      <trkpt lat="44.47861" lon="4.99167">
        <ele>556.74</ele>
        <time>2016-09-25T09:06:31Z</time>
      </trkpt>
      <trkpt lat="44.47848" lon="4.99165">
        <ele>556.26</ele>
        <time>2016-09-25T09:06:35Z</time>
      </trkpt>
      <trkpt lat="44.47839" lon="4.99166">
        <ele>556.74</ele>
        <time>2016-09-25T09:06:43Z</time>
      </trkpt>
      <trkpt lat="44.47834" lon="4.99166">
        <ele>556.26</ele>
        <time>2016-09-25T09:06:45Z</time>
      </trkpt>
      <trkpt lat="44.47829" lon="4.9917">
        <ele>556.74</ele>
        <time>2016-09-25T09:06:49Z</time>
      </trkpt>
      <trkpt lat="44.47816" lon="4.99172">
        <ele>555.78</ele>
        <time>2016-09-25T09:06:54Z</time>
      </trkpt>
      <trkpt lat="44.4781" lon="4.99177">
        <ele>557.22</ele>
        <time>2016-09-25T09:06:59Z</time>
      </trkpt>
      <trkpt lat="44.47807" lon="4.99179">
        <ele>557.22</ele>
        <time>2016-09-25T09:07:01Z</time>
      </trkpt>
      <trkpt lat="44.47799" lon="4.99177">
        <ele>556.26</ele>
        <time>2016-09-25T09:07:04Z</time>
      </trkpt>
      <trkpt lat="44.4777" lon="4.99177">
        <ele>555.3</ele>
        <time>2016-09-25T09:07:14Z</time>
      </trkpt>
      <trkpt lat="44.47768" lon="4.99178">
        <ele>555.3</ele>
        <time>2016-09-25T09:07:15Z</time>
      </trkpt>
      <trkpt lat="44.4773" lon="4.9918">
        <ele>552.41</ele>
        <time>2016-09-25T09:07:28Z</time>
      </trkpt>
      <trkpt lat="44.47727" lon="4.99181">
        <ele>552.9</ele>
        <time>2016-09-25T09:07:29Z</time>
      </trkpt>
      <trkpt lat="44.477" lon="4.99176">
        <ele>550.01</ele>
        <time>2016-09-25T09:07:37Z</time>
      </trkpt>
      <trkpt lat="44.47686" lon="4.99175">
        <ele>549.53</ele>
        <time>2016-09-25T09:07:40Z</time>
      </trkpt>
      <trkpt lat="44.47646" lon="4.99174">
        <ele>548.09</ele>
        <time>2016-09-25T09:07:50Z</time>
      </trkpt>
      <trkpt lat="44.47622" lon="4.99162">
        <ele>545.2</ele>
        <time>2016-09-25T09:07:56Z</time>
      </trkpt>
      <trkpt lat="44.47613" lon="4.99156">
        <ele>543.28</ele>
        <time>2016-09-25T09:07:58Z</time>
      </trkpt>
      <trkpt lat="44.47598" lon="4.99149">
        <ele>541.84</ele>
        <time>2016-09-25T09:08:02Z</time>
      </trkpt>
      <trkpt lat="44.47595" lon="4.99145">
        <ele>540.4</ele>
        <time>2016-09-25T09:08:04Z</time>
      </trkpt>
      <trkpt lat="44.47585" lon="4.99136">
        <ele>538.48</ele>
        <time>2016-09-25T09:08:07Z</time>
      </trkpt>
      <trkpt lat="44.47563" lon="4.99128">
        <ele>537.03</ele>
        <time>2016-09-25T09:08:12Z</time>
      </trkpt>
      <trkpt lat="44.47553" lon="4.99124">
        <ele>536.55</ele>
        <time>2016-09-25T09:08:14Z</time>
      </trkpt>
      <trkpt lat="44.47548" lon="4.99122">
        <ele>536.07</ele>
        <time>2016-09-25T09:08:15Z</time>
      </trkpt>
      <trkpt lat="44.47543" lon="4.9912">
        <ele>536.07</ele>
        <time>2016-09-25T09:08:16Z</time>
      </trkpt>
      <trkpt lat="44.4754" lon="4.99118">
        <ele>536.07</ele>
        <time>2016-09-25T09:08:17Z</time>
      </trkpt>
      <trkpt lat="44.47537" lon="4.99115">
        <ele>535.59</ele>
        <time>2016-09-25T09:08:18Z</time>
      </trkpt>
      <trkpt lat="44.47534" lon="4.99112">
        <ele>534.63</ele>
        <time>2016-09-25T09:08:19Z</time>
      </trkpt>
      <trkpt lat="44.47531" lon="4.99108">
        <ele>534.15</ele>
        <time>2016-09-25T09:08:20Z</time>
      </trkpt>
      <trkpt lat="44.47527" lon="4.99105">
        <ele>533.19</ele>
        <time>2016-09-25T09:08:21Z</time>
      </trkpt>
      <trkpt lat="44.47523" lon="4.99103">
        <ele>532.71</ele>
        <time>2016-09-25T09:08:22Z</time>
      </trkpt>
      <trkpt lat="44.47519" lon="4.991">
        <ele>532.71</ele>
        <time>2016-09-25T09:08:23Z</time>
      </trkpt>
      <trkpt lat="44.47515" lon="4.99097">
        <ele>531.75</ele>
        <time>2016-09-25T09:08:24Z</time>
      </trkpt>
      <trkpt lat="44.47494" lon="4.99074">
        <ele>528.38</ele>
        <time>2016-09-25T09:08:32Z</time>
      </trkpt>
      <trkpt lat="44.47477" lon="4.99059">
        <ele>525.02</ele>
        <time>2016-09-25T09:08:37Z</time>
      </trkpt>
      <trkpt lat="44.47463" lon="4.9904">
        <ele>522.61</ele>
        <time>2016-09-25T09:08:41Z</time>
      </trkpt>
      <trkpt lat="44.4746" lon="4.99035">
        <ele>521.65</ele>
        <time>2016-09-25T09:08:42Z</time>
      </trkpt>
      <trkpt lat="44.47458" lon="4.9903">
        <ele>520.69</ele>
        <time>2016-09-25T09:08:43Z</time>
      </trkpt>
      <trkpt lat="44.47455" lon="4.99027">
        <ele>520.21</ele>
        <time>2016-09-25T09:08:44Z</time>
      </trkpt>
      <trkpt lat="44.47452" lon="4.99024">
        <ele>519.73</ele>
        <time>2016-09-25T09:08:45Z</time>
      </trkpt>
      <trkpt lat="44.47451" lon="4.99023">
        <ele>519.25</ele>
        <time>2016-09-25T09:08:46Z</time>
      </trkpt>
      <trkpt lat="44.47449" lon="4.99019">
        <ele>518.77</ele>
        <time>2016-09-25T09:08:47Z</time>
      </trkpt>
      <trkpt lat="44.47448" lon="4.99014">
        <ele>517.81</ele>
        <time>2016-09-25T09:08:48Z</time>
      </trkpt>
      <trkpt lat="44.47446" lon="4.9901">
        <ele>517.33</ele>
        <time>2016-09-25T09:08:49Z</time>
      </trkpt>
      <trkpt lat="44.47443" lon="4.99008">
        <ele>517.33</ele>
        <time>2016-09-25T09:08:50Z</time>
      </trkpt>
      <trkpt lat="44.4744" lon="4.99006">
        <ele>516.85</ele>
        <time>2016-09-25T09:08:51Z</time>
      </trkpt>
      <trkpt lat="44.47436" lon="4.99003">
        <ele>516.37</ele>
        <time>2016-09-25T09:08:52Z</time>
      </trkpt>
      <trkpt lat="44.47433" lon="4.99002">
        <ele>515.88</ele>
        <time>2016-09-25T09:08:53Z</time>
      </trkpt>
      <trkpt lat="44.47416" lon="4.98991">
        <ele>514.44</ele>
        <time>2016-09-25T09:08:57Z</time>
      </trkpt>
      <trkpt lat="44.4741" lon="4.98983">
        <ele>513.96</ele>
        <time>2016-09-25T09:08:59Z</time>
      </trkpt>
      <trkpt lat="44.47397" lon="4.98963">
        <ele>511.56</ele>
        <time>2016-09-25T09:09:04Z</time>
      </trkpt>
      <trkpt lat="44.47394" lon="4.98958">
        <ele>510.6</ele>
        <time>2016-09-25T09:09:05Z</time>
      </trkpt>
      <trkpt lat="44.47391" lon="4.98954">
        <ele>509.64</ele>
        <time>2016-09-25T09:09:06Z</time>
      </trkpt>
      <trkpt lat="44.47381" lon="4.98945">
        <ele>508.67</ele>
        <time>2016-09-25T09:09:08Z</time>
      </trkpt>
      <trkpt lat="44.47378" lon="4.98943">
        <ele>508.19</ele>
        <time>2016-09-25T09:09:09Z</time>
      </trkpt>
      <trkpt lat="44.47374" lon="4.9894">
        <ele>507.23</ele>
        <time>2016-09-25T09:09:10Z</time>
      </trkpt>
      <trkpt lat="44.47367" lon="4.98932">
        <ele>506.75</ele>
        <time>2016-09-25T09:09:12Z</time>
      </trkpt>
      <trkpt lat="44.47353" lon="4.98916">
        <ele>504.83</ele>
        <time>2016-09-25T09:09:15Z</time>
      </trkpt>
      <trkpt lat="44.47348" lon="4.98911">
        <ele>504.35</ele>
        <time>2016-09-25T09:09:16Z</time>
      </trkpt>
      <trkpt lat="44.47344" lon="4.98907">
        <ele>503.87</ele>
        <time>2016-09-25T09:09:17Z</time>
      </trkpt>
      <trkpt lat="44.47335" lon="4.98899">
        <ele>503.87</ele>
        <time>2016-09-25T09:09:19Z</time>
      </trkpt>
      <trkpt lat="44.47332" lon="4.98895">
        <ele>503.39</ele>
        <time>2016-09-25T09:09:20Z</time>
      </trkpt>
      <trkpt lat="44.47327" lon="4.98891">
        <ele>502.91</ele>
        <time>2016-09-25T09:09:21Z</time>
      </trkpt>
      <trkpt lat="44.47323" lon="4.98887">
        <ele>502.43</ele>
        <time>2016-09-25T09:09:22Z</time>
      </trkpt>
      <trkpt lat="44.47319" lon="4.98884">
        <ele>501.95</ele>
        <time>2016-09-25T09:09:23Z</time>
      </trkpt>
      <trkpt lat="44.47315" lon="4.9888">
        <ele>501.46</ele>
        <time>2016-09-25T09:09:24Z</time>
      </trkpt>
      <trkpt lat="44.47311" lon="4.98875">
        <ele>500.98</ele>
        <time>2016-09-25T09:09:25Z</time>
      </trkpt>
      <trkpt lat="44.47296" lon="4.98852">
        <ele>497.62</ele>
        <time>2016-09-25T09:09:30Z</time>
      </trkpt>
      <trkpt lat="44.47293" lon="4.98847">
        <ele>497.14</ele>
        <time>2016-09-25T09:09:31Z</time>
      </trkpt>
      <trkpt lat="44.4729" lon="4.98843">
        <ele>496.18</ele>
        <time>2016-09-25T09:09:32Z</time>
      </trkpt>
      <trkpt lat="44.47286" lon="4.9884">
        <ele>495.7</ele>
        <time>2016-09-25T09:09:33Z</time>
      </trkpt>
      <trkpt lat="44.47284" lon="4.98839">
        <ele>495.7</ele>
        <time>2016-09-25T09:09:34Z</time>
      </trkpt>
      <trkpt lat="44.47281" lon="4.98838">
        <ele>495.22</ele>
        <time>2016-09-25T09:09:35Z</time>
      </trkpt>
      <trkpt lat="44.47279" lon="4.98836">
        <ele>494.74</ele>
        <time>2016-09-25T09:09:36Z</time>
      </trkpt>
      <trkpt lat="44.47278" lon="4.98835">
        <ele>494.26</ele>
        <time>2016-09-25T09:09:37Z</time>
      </trkpt>
      <trkpt lat="44.47277" lon="4.98833">
        <ele>493.77</ele>
        <time>2016-09-25T09:09:38Z</time>
      </trkpt>
      <trkpt lat="44.47275" lon="4.9883">
        <ele>492.81</ele>
        <time>2016-09-25T09:09:39Z</time>
      </trkpt>
      <trkpt lat="44.47273" lon="4.98827">
        <ele>492.33</ele>
        <time>2016-09-25T09:09:40Z</time>
      </trkpt>
      <trkpt lat="44.4727" lon="4.98824">
        <ele>491.37</ele>
        <time>2016-09-25T09:09:41Z</time>
      </trkpt>
      <trkpt lat="44.47268" lon="4.98823">
        <ele>491.37</ele>
        <time>2016-09-25T09:09:42Z</time>
      </trkpt>
      <trkpt lat="44.47266" lon="4.98822">
        <ele>491.85</ele>
        <time>2016-09-25T09:09:43Z</time>
      </trkpt>
      <trkpt lat="44.47263" lon="4.9882">
        <ele>491.85</ele>
        <time>2016-09-25T09:09:44Z</time>
      </trkpt>
      <trkpt lat="44.47253" lon="4.98814">
        <ele>489.93</ele>
        <time>2016-09-25T09:09:47Z</time>
      </trkpt>
      <trkpt lat="44.47247" lon="4.98813">
        <ele>488.97</ele>
        <time>2016-09-25T09:09:48Z</time>
      </trkpt>
      <trkpt lat="44.47242" lon="4.9881">
        <ele>488.01</ele>
        <time>2016-09-25T09:09:49Z</time>
      </trkpt>
      <trkpt lat="44.47237" lon="4.98807">
        <ele>487.05</ele>
        <time>2016-09-25T09:09:50Z</time>
      </trkpt>
      <trkpt lat="44.47231" lon="4.98804">
        <ele>486.56</ele>
        <time>2016-09-25T09:09:51Z</time>
      </trkpt>
      <trkpt lat="44.47226" lon="4.98801">
        <ele>485.6</ele>
        <time>2016-09-25T09:09:52Z</time>
      </trkpt>
      <trkpt lat="44.47223" lon="4.98797">
        <ele>485.12</ele>
        <time>2016-09-25T09:09:53Z</time>
      </trkpt>
      <trkpt lat="44.47219" lon="4.98794">
        <ele>484.64</ele>
        <time>2016-09-25T09:09:54Z</time>
      </trkpt>
      <trkpt lat="44.47215" lon="4.98791">
        <ele>483.68</ele>
        <time>2016-09-25T09:09:55Z</time>
      </trkpt>
      <trkpt lat="44.47211" lon="4.98788">
        <ele>483.2</ele>
        <time>2016-09-25T09:09:56Z</time>
      </trkpt>
      <trkpt lat="44.47197" lon="4.98779">
        <ele>479.35</ele>
        <time>2016-09-25T09:10:00Z</time>
      </trkpt>
      <trkpt lat="44.47182" lon="4.98773">
        <ele>475.99</ele>
        <time>2016-09-25T09:10:04Z</time>
      </trkpt>
      <trkpt lat="44.47158" lon="4.98756">
        <ele>472.63</ele>
        <time>2016-09-25T09:10:09Z</time>
      </trkpt>
      <trkpt lat="44.47153" lon="4.98753">
        <ele>472.63</ele>
        <time>2016-09-25T09:10:10Z</time>
      </trkpt>
      <trkpt lat="44.47148" lon="4.98751">
        <ele>472.14</ele>
        <time>2016-09-25T09:10:11Z</time>
      </trkpt>
      <trkpt lat="44.47142" lon="4.98748">
        <ele>471.66</ele>
        <time>2016-09-25T09:10:12Z</time>
      </trkpt>
      <trkpt lat="44.47137" lon="4.98746">
        <ele>471.18</ele>
        <time>2016-09-25T09:10:13Z</time>
      </trkpt>
      <trkpt lat="44.47131" lon="4.98744">
        <ele>470.7</ele>
        <time>2016-09-25T09:10:14Z</time>
      </trkpt>
      <trkpt lat="44.47125" lon="4.98741">
        <ele>470.22</ele>
        <time>2016-09-25T09:10:15Z</time>
      </trkpt>
      <trkpt lat="44.4712" lon="4.98739">
        <ele>470.22</ele>
        <time>2016-09-25T09:10:16Z</time>
      </trkpt>
      <trkpt lat="44.47115" lon="4.98737">
        <ele>470.22</ele>
        <time>2016-09-25T09:10:17Z</time>
      </trkpt>
      <trkpt lat="44.47113" lon="4.98735">
        <ele>469.74</ele>
        <time>2016-09-25T09:10:18Z</time>
      </trkpt>
      <trkpt lat="44.47094" lon="4.98721">
        <ele>468.3</ele>
        <time>2016-09-25T09:10:25Z</time>
      </trkpt>
      <trkpt lat="44.47091" lon="4.98718">
        <ele>467.82</ele>
        <time>2016-09-25T09:10:26Z</time>
      </trkpt>
      <trkpt lat="44.47081" lon="4.98713">
        <ele>466.38</ele>
        <time>2016-09-25T09:10:28Z</time>
      </trkpt>
      <trkpt lat="44.47077" lon="4.98709">
        <ele>466.38</ele>
        <time>2016-09-25T09:10:29Z</time>
      </trkpt>
      <trkpt lat="44.47068" lon="4.98702">
        <ele>465.42</ele>
        <time>2016-09-25T09:10:31Z</time>
      </trkpt>
      <trkpt lat="44.47046" lon="4.98687">
        <ele>462.53</ele>
        <time>2016-09-25T09:10:35Z</time>
      </trkpt>
      <trkpt lat="44.47041" lon="4.98685">
        <ele>461.57</ele>
        <time>2016-09-25T09:10:36Z</time>
      </trkpt>
      <trkpt lat="44.47036" lon="4.98684">
        <ele>461.09</ele>
        <time>2016-09-25T09:10:37Z</time>
      </trkpt>
      <trkpt lat="44.47032" lon="4.98681">
        <ele>460.13</ele>
        <time>2016-09-25T09:10:38Z</time>
      </trkpt>
      <trkpt lat="44.47029" lon="4.98677">
        <ele>459.65</ele>
        <time>2016-09-25T09:10:39Z</time>
      </trkpt>
      <trkpt lat="44.47027" lon="4.98673">
        <ele>459.65</ele>
        <time>2016-09-25T09:10:40Z</time>
      </trkpt>
      <trkpt lat="44.47027" lon="4.98669">
        <ele>459.65</ele>
        <time>2016-09-25T09:10:41Z</time>
      </trkpt>
      <trkpt lat="44.47024" lon="4.9866">
        <ele>461.09</ele>
        <time>2016-09-25T09:10:48Z</time>
      </trkpt>
      <trkpt lat="44.47023" lon="4.98658">
        <ele>460.61</ele>
        <time>2016-09-25T09:10:49Z</time>
      </trkpt>
      <trkpt lat="44.47021" lon="4.98655">
        <ele>460.61</ele>
        <time>2016-09-25T09:10:50Z</time>
      </trkpt>
      <trkpt lat="44.47018" lon="4.9865">
        <ele>459.17</ele>
        <time>2016-09-25T09:10:53Z</time>
      </trkpt>
      <trkpt lat="44.47016" lon="4.98647">
        <ele>458.69</ele>
        <time>2016-09-25T09:10:54Z</time>
      </trkpt>
      <trkpt lat="44.47013" lon="4.98644">
        <ele>458.21</ele>
        <time>2016-09-25T09:10:55Z</time>
      </trkpt>
      <trkpt lat="44.4701" lon="4.98643">
        <ele>457.72</ele>
        <time>2016-09-25T09:10:56Z</time>
      </trkpt>
      <trkpt lat="44.47" lon="4.98645">
        <ele>455.32</ele>
        <time>2016-09-25T09:11:02Z</time>
      </trkpt>
      <trkpt lat="44.46994" lon="4.98634">
        <ele>455.32</ele>
        <time>2016-09-25T09:11:07Z</time>
      </trkpt>
      <trkpt lat="44.4698" lon="4.98626">
        <ele>451.48</ele>
        <time>2016-09-25T09:11:12Z</time>
      </trkpt>
      <trkpt lat="44.46978" lon="4.98622">
        <ele>451.48</ele>
        <time>2016-09-25T09:11:13Z</time>
      </trkpt>
      <trkpt lat="44.46978" lon="4.98615">
        <ele>452.44</ele>
        <time>2016-09-25T09:11:15Z</time>
      </trkpt>
      <trkpt lat="44.46972" lon="4.98607">
        <ele>450.52</ele>
        <time>2016-09-25T09:11:18Z</time>
      </trkpt>
      <trkpt lat="44.46969" lon="4.98602">
        <ele>450.03</ele>
        <time>2016-09-25T09:11:19Z</time>
      </trkpt>
      <trkpt lat="44.46966" lon="4.98597">
        <ele>449.55</ele>
        <time>2016-09-25T09:11:20Z</time>
      </trkpt>
      <trkpt lat="44.46963" lon="4.98592">
        <ele>449.07</ele>
        <time>2016-09-25T09:11:21Z</time>
      </trkpt>
      <trkpt lat="44.46959" lon="4.98587">
        <ele>448.59</ele>
        <time>2016-09-25T09:11:22Z</time>
      </trkpt>
      <trkpt lat="44.46956" lon="4.98584">
        <ele>448.11</ele>
        <time>2016-09-25T09:11:23Z</time>
      </trkpt>
      <trkpt lat="44.46952" lon="4.9858">
        <ele>447.63</ele>
        <time>2016-09-25T09:11:24Z</time>
      </trkpt>
      <trkpt lat="44.46949" lon="4.98575">
        <ele>447.15</ele>
        <time>2016-09-25T09:11:25Z</time>
      </trkpt>
      <trkpt lat="44.46946" lon="4.98571">
        <ele>446.67</ele>
        <time>2016-09-25T09:11:26Z</time>
      </trkpt>
      <trkpt lat="44.46942" lon="4.98565">
        <ele>446.19</ele>
        <time>2016-09-25T09:11:27Z</time>
      </trkpt>
      <trkpt lat="44.46939" lon="4.98558">
        <ele>445.71</ele>
        <time>2016-09-25T09:11:28Z</time>
      </trkpt>
      <trkpt lat="44.46936" lon="4.98551">
        <ele>445.23</ele>
        <time>2016-09-25T09:11:29Z</time>
      </trkpt>
      <trkpt lat="44.46932" lon="4.98544">
        <ele>443.79</ele>
        <time>2016-09-25T09:11:30Z</time>
      </trkpt>
      <trkpt lat="44.4692" lon="4.98524">
        <ele>440.9</ele>
        <time>2016-09-25T09:11:33Z</time>
      </trkpt>
      <trkpt lat="44.46913" lon="4.98513">
        <ele>438.98</ele>
        <time>2016-09-25T09:11:35Z</time>
      </trkpt>
      <trkpt lat="44.46905" lon="4.98504">
        <ele>436.58</ele>
        <time>2016-09-25T09:11:37Z</time>
      </trkpt>
      <trkpt lat="44.46902" lon="4.98498">
        <ele>434.17</ele>
        <time>2016-09-25T09:11:38Z</time>
      </trkpt>
      <trkpt lat="44.46899" lon="4.98492">
        <ele>432.73</ele>
        <time>2016-09-25T09:11:39Z</time>
      </trkpt>
      <trkpt lat="44.46898" lon="4.98487">
        <ele>432.73</ele>
        <time>2016-09-25T09:11:40Z</time>
      </trkpt>
      <trkpt lat="44.46899" lon="4.98482">
        <ele>432.25</ele>
        <time>2016-09-25T09:11:41Z</time>
      </trkpt>
      <trkpt lat="44.46899" lon="4.98478">
        <ele>431.77</ele>
        <time>2016-09-25T09:11:43Z</time>
      </trkpt>
      <trkpt lat="44.46896" lon="4.98471">
        <ele>429.85</ele>
        <time>2016-09-25T09:11:45Z</time>
      </trkpt>
      <trkpt lat="44.46893" lon="4.98467">
        <ele>428.89</ele>
        <time>2016-09-25T09:11:46Z</time>
      </trkpt>
      <trkpt lat="44.4689" lon="4.98462">
        <ele>427.92</ele>
        <time>2016-09-25T09:11:47Z</time>
      </trkpt>
      <trkpt lat="44.46888" lon="4.98457">
        <ele>426.96</ele>
        <time>2016-09-25T09:11:48Z</time>
      </trkpt>
      <trkpt lat="44.46886" lon="4.9845">
        <ele>426</ele>
        <time>2016-09-25T09:11:49Z</time>
      </trkpt>
      <trkpt lat="44.46883" lon="4.98445">
        <ele>425.52</ele>
        <time>2016-09-25T09:11:50Z</time>
      </trkpt>
      <trkpt lat="44.46881" lon="4.98441">
        <ele>424.56</ele>
        <time>2016-09-25T09:11:51Z</time>
      </trkpt>
      <trkpt lat="44.46879" lon="4.98439">
        <ele>424.08</ele>
        <time>2016-09-25T09:11:52Z</time>
      </trkpt>
      <trkpt lat="44.46877" lon="4.98438">
        <ele>424.08</ele>
        <time>2016-09-25T09:11:53Z</time>
      </trkpt>
      <trkpt lat="44.46874" lon="4.98431">
        <ele>424.08</ele>
        <time>2016-09-25T09:12:01Z</time>
      </trkpt>
      <trkpt lat="44.46872" lon="4.98428">
        <ele>423.6</ele>
        <time>2016-09-25T09:12:16Z</time>
      </trkpt>
      <trkpt lat="44.46871" lon="4.98422">
        <ele>422.16</ele>
        <time>2016-09-25T09:12:18Z</time>
      </trkpt>
      <trkpt lat="44.46869" lon="4.98419">
        <ele>421.19</ele>
        <time>2016-09-25T09:12:19Z</time>
      </trkpt>
      <trkpt lat="44.46867" lon="4.98418">
        <ele>420.71</ele>
        <time>2016-09-25T09:12:20Z</time>
      </trkpt>
      <trkpt lat="44.46864" lon="4.98417">
        <ele>419.75</ele>
        <time>2016-09-25T09:12:21Z</time>
      </trkpt>
      <trkpt lat="44.46862" lon="4.98415">
        <ele>419.27</ele>
        <time>2016-09-25T09:12:22Z</time>
      </trkpt>
      <trkpt lat="44.4686" lon="4.98414">
        <ele>418.31</ele>
        <time>2016-09-25T09:12:23Z</time>
      </trkpt>
      <trkpt lat="44.46859" lon="4.98411">
        <ele>417.35</ele>
        <time>2016-09-25T09:12:24Z</time>
      </trkpt>
      <trkpt lat="44.4686" lon="4.98409">
        <ele>416.39</ele>
        <time>2016-09-25T09:12:25Z</time>
      </trkpt>
      <trkpt lat="44.46861" lon="4.98407">
        <ele>416.39</ele>
        <time>2016-09-25T09:12:26Z</time>
      </trkpt>
      <trkpt lat="44.46861" lon="4.98405">
        <ele>415.91</ele>
        <time>2016-09-25T09:12:27Z</time>
      </trkpt>
      <trkpt lat="44.46859" lon="4.98402">
        <ele>414.95</ele>
        <time>2016-09-25T09:12:28Z</time>
      </trkpt>
      <trkpt lat="44.46856" lon="4.984">
        <ele>413.98</ele>
        <time>2016-09-25T09:12:29Z</time>
      </trkpt>
      <trkpt lat="44.46853" lon="4.98398">
        <ele>412.54</ele>
        <time>2016-09-25T09:12:30Z</time>
      </trkpt>
      <trkpt lat="44.4684" lon="4.98388">
        <ele>409.66</ele>
        <time>2016-09-25T09:12:35Z</time>
      </trkpt>
      <trkpt lat="44.46829" lon="4.98372">
        <ele>405.81</ele>
        <time>2016-09-25T09:12:41Z</time>
      </trkpt>
      <trkpt lat="44.46814" lon="4.98354">
        <ele>402.45</ele>
        <time>2016-09-25T09:12:47Z</time>
      </trkpt>
      <trkpt lat="44.46809" lon="4.98351">
        <ele>401.49</ele>
        <time>2016-09-25T09:12:48Z</time>
      </trkpt>
      <trkpt lat="44.46806" lon="4.98347">
        <ele>400.05</ele>
        <time>2016-09-25T09:12:49Z</time>
      </trkpt>
      <trkpt lat="44.46803" lon="4.9834">
        <ele>399.57</ele>
        <time>2016-09-25T09:12:50Z</time>
      </trkpt>
      <trkpt lat="44.46798" lon="4.98327">
        <ele>396.68</ele>
        <time>2016-09-25T09:12:52Z</time>
      </trkpt>
      <trkpt lat="44.46794" lon="4.98323">
        <ele>396.2</ele>
        <time>2016-09-25T09:12:53Z</time>
      </trkpt>
      <trkpt lat="44.46791" lon="4.9832">
        <ele>396.2</ele>
        <time>2016-09-25T09:12:54Z</time>
      </trkpt>
      <trkpt lat="44.46783" lon="4.9831">
        <ele>394.76</ele>
        <time>2016-09-25T09:13:03Z</time>
      </trkpt>
      <trkpt lat="44.46783" lon="4.9831">
        <ele>393.8</ele>
        <time>2016-09-25T09:13:06Z</time>
      </trkpt>
      <trkpt lat="44.46776" lon="4.98311">
        <ele>395.72</ele>
        <time>2016-09-25T09:27:06Z</time>
      </trkpt>
      <trkpt lat="44.46775" lon="4.98312">
        <ele>395.72</ele>
        <time>2016-09-25T09:27:07Z</time>
      </trkpt>
      <trkpt lat="44.46775" lon="4.98308">
        <ele>394.76</ele>
        <time>2016-09-25T09:27:18Z</time>
      </trkpt>
      <trkpt lat="44.46773" lon="4.98307">
        <ele>391.87</ele>
        <time>2016-09-25T09:27:23Z</time>
      </trkpt>
      <trkpt lat="44.46763" lon="4.98293">
        <ele>391.87</ele>
        <time>2016-09-25T09:31:00Z</time>
      </trkpt>
      <trkpt lat="44.4676" lon="4.98292">
        <ele>391.87</ele>
        <time>2016-09-25T09:31:01Z</time>
      </trkpt>
      <trkpt lat="44.46758" lon="4.9829">
        <ele>390.91</ele>
        <time>2016-09-25T09:31:02Z</time>
      </trkpt>
      <trkpt lat="44.46753" lon="4.98287">
        <ele>390.43</ele>
        <time>2016-09-25T09:31:03Z</time>
      </trkpt>
      <trkpt lat="44.46746" lon="4.98282">
        <ele>389.47</ele>
        <time>2016-09-25T09:31:05Z</time>
      </trkpt>
      <trkpt lat="44.46743" lon="4.9828">
        <ele>388.99</ele>
        <time>2016-09-25T09:31:06Z</time>
      </trkpt>
      <trkpt lat="44.46734" lon="4.98268">
        <ele>387.07</ele>
        <time>2016-09-25T09:31:09Z</time>
      </trkpt>
      <trkpt lat="44.46727" lon="4.98258">
        <ele>386.59</ele>
        <time>2016-09-25T09:31:11Z</time>
      </trkpt>
      <trkpt lat="44.46724" lon="4.98252">
        <ele>386.59</ele>
        <time>2016-09-25T09:31:12Z</time>
      </trkpt>
      <trkpt lat="44.46723" lon="4.98247">
        <ele>386.59</ele>
        <time>2016-09-25T09:31:13Z</time>
      </trkpt>
      <trkpt lat="44.46722" lon="4.98241">
        <ele>387.07</ele>
        <time>2016-09-25T09:31:14Z</time>
      </trkpt>
      <trkpt lat="44.46721" lon="4.98235">
        <ele>386.59</ele>
        <time>2016-09-25T09:31:15Z</time>
      </trkpt>
      <trkpt lat="44.46719" lon="4.98229">
        <ele>386.59</ele>
        <time>2016-09-25T09:31:16Z</time>
      </trkpt>
      <trkpt lat="44.46716" lon="4.98224">
        <ele>385.63</ele>
        <time>2016-09-25T09:31:17Z</time>
      </trkpt>
      <trkpt lat="44.46714" lon="4.9822">
        <ele>386.11</ele>
        <time>2016-09-25T09:31:18Z</time>
      </trkpt>
      <trkpt lat="44.46713" lon="4.98217">
        <ele>386.59</ele>
        <time>2016-09-25T09:31:19Z</time>
      </trkpt>
      <trkpt lat="44.46712" lon="4.98212">
        <ele>386.11</ele>
        <time>2016-09-25T09:31:25Z</time>
      </trkpt>
      <trkpt lat="44.46711" lon="4.98211">
        <ele>386.11</ele>
        <time>2016-09-25T09:31:26Z</time>
      </trkpt>
      <trkpt lat="44.4671" lon="4.98209">
        <ele>386.11</ele>
        <time>2016-09-25T09:31:27Z</time>
      </trkpt>
      <trkpt lat="44.46709" lon="4.98208">
        <ele>386.11</ele>
        <time>2016-09-25T09:31:28Z</time>
      </trkpt>
      <trkpt lat="44.46708" lon="4.98205">
        <ele>386.59</ele>
        <time>2016-09-25T09:31:29Z</time>
      </trkpt>
      <trkpt lat="44.46707" lon="4.98203">
        <ele>387.07</ele>
        <time>2016-09-25T09:31:30Z</time>
      </trkpt>
      <trkpt lat="44.46707" lon="4.98198">
        <ele>388.51</ele>
        <time>2016-09-25T09:31:40Z</time>
      </trkpt>
      <trkpt lat="44.46704" lon="4.98195">
        <ele>388.51</ele>
        <time>2016-09-25T09:31:48Z</time>
      </trkpt>
      <trkpt lat="44.46703" lon="4.98193">
        <ele>388.51</ele>
        <time>2016-09-25T09:31:49Z</time>
      </trkpt>
      <trkpt lat="44.46702" lon="4.9819">
        <ele>388.51</ele>
        <time>2016-09-25T09:31:50Z</time>
      </trkpt>
      <trkpt lat="44.46699" lon="4.98189">
        <ele>388.51</ele>
        <time>2016-09-25T09:31:51Z</time>
      </trkpt>
      <trkpt lat="44.46697" lon="4.98187">
        <ele>388.51</ele>
        <time>2016-09-25T09:31:52Z</time>
      </trkpt>
      <trkpt lat="44.46696" lon="4.98186">
        <ele>388.51</ele>
        <time>2016-09-25T09:31:53Z</time>
      </trkpt>
      <trkpt lat="44.46694" lon="4.98185">
        <ele>389.47</ele>
        <time>2016-09-25T09:31:54Z</time>
      </trkpt>
      <trkpt lat="44.46682" lon="4.98179">
        <ele>389.95</ele>
        <time>2016-09-25T09:32:04Z</time>
      </trkpt>
      <trkpt lat="44.46668" lon="4.98166">
        <ele>389.47</ele>
        <time>2016-09-25T09:32:10Z</time>
      </trkpt>
      <trkpt lat="44.46664" lon="4.98162">
        <ele>388.99</ele>
        <time>2016-09-25T09:32:11Z</time>
      </trkpt>
      <trkpt lat="44.46661" lon="4.98159">
        <ele>388.51</ele>
        <time>2016-09-25T09:32:12Z</time>
      </trkpt>
      <trkpt lat="44.46657" lon="4.98158">
        <ele>388.51</ele>
        <time>2016-09-25T09:32:13Z</time>
      </trkpt>
      <trkpt lat="44.46655" lon="4.9816">
        <ele>388.51</ele>
        <time>2016-09-25T09:32:14Z</time>
      </trkpt>
      <trkpt lat="44.46652" lon="4.98161">
        <ele>388.51</ele>
        <time>2016-09-25T09:32:15Z</time>
      </trkpt>
      <trkpt lat="44.46648" lon="4.98161">
        <ele>388.51</ele>
        <time>2016-09-25T09:32:16Z</time>
      </trkpt>
      <trkpt lat="44.46644" lon="4.9816">
        <ele>388.03</ele>
        <time>2016-09-25T09:32:17Z</time>
      </trkpt>
      <trkpt lat="44.46639" lon="4.98158">
        <ele>388.03</ele>
        <time>2016-09-25T09:32:18Z</time>
      </trkpt>
      <trkpt lat="44.46627" lon="4.98153">
        <ele>390.91</ele>
        <time>2016-09-25T09:32:25Z</time>
      </trkpt>
      <trkpt lat="44.46625" lon="4.98151">
        <ele>390.91</ele>
        <time>2016-09-25T09:32:27Z</time>
      </trkpt>
      <trkpt lat="44.46624" lon="4.9815">
        <ele>390.91</ele>
        <time>2016-09-25T09:32:28Z</time>
      </trkpt>
      <trkpt lat="44.46623" lon="4.9815">
        <ele>390.91</ele>
        <time>2016-09-25T09:32:29Z</time>
      </trkpt>
      <trkpt lat="44.46621" lon="4.9815">
        <ele>390.91</ele>
        <time>2016-09-25T09:32:30Z</time>
      </trkpt>
      <trkpt lat="44.4662" lon="4.9815">
        <ele>390.91</ele>
        <time>2016-09-25T09:32:31Z</time>
      </trkpt>
      <trkpt lat="44.46618" lon="4.98149">
        <ele>390.91</ele>
        <time>2016-09-25T09:32:32Z</time>
      </trkpt>
      <trkpt lat="44.46617" lon="4.98148">
        <ele>390.91</ele>
        <time>2016-09-25T09:32:33Z</time>
      </trkpt>
      <trkpt lat="44.46608" lon="4.98148">
        <ele>390.43</ele>
        <time>2016-09-25T09:32:41Z</time>
      </trkpt>
      <trkpt lat="44.46606" lon="4.98148">
        <ele>390.43</ele>
        <time>2016-09-25T09:32:42Z</time>
      </trkpt>
      <trkpt lat="44.46603" lon="4.98149">
        <ele>389.95</ele>
        <time>2016-09-25T09:32:43Z</time>
      </trkpt>
      <trkpt lat="44.46601" lon="4.9815">
        <ele>389.95</ele>
        <time>2016-09-25T09:32:44Z</time>
      </trkpt>
      <trkpt lat="44.46598" lon="4.98151">
        <ele>389.47</ele>
        <time>2016-09-25T09:32:45Z</time>
      </trkpt>
      <trkpt lat="44.46595" lon="4.98154">
        <ele>389.47</ele>
        <time>2016-09-25T09:32:46Z</time>
      </trkpt>
      <trkpt lat="44.46592" lon="4.98157">
        <ele>388.99</ele>
        <time>2016-09-25T09:32:47Z</time>
      </trkpt>
      <trkpt lat="44.46589" lon="4.98158">
        <ele>388.03</ele>
        <time>2016-09-25T09:32:48Z</time>
      </trkpt>
      <trkpt lat="44.46586" lon="4.98159">
        <ele>387.55</ele>
        <time>2016-09-25T09:32:49Z</time>
      </trkpt>
      <trkpt lat="44.46582" lon="4.98158">
        <ele>387.07</ele>
        <time>2016-09-25T09:32:50Z</time>
      </trkpt>
      <trkpt lat="44.4657" lon="4.98161">
        <ele>385.63</ele>
        <time>2016-09-25T09:32:53Z</time>
      </trkpt>
      <trkpt lat="44.46567" lon="4.98164">
        <ele>385.15</ele>
        <time>2016-09-25T09:32:54Z</time>
      </trkpt>
      <trkpt lat="44.46564" lon="4.98167">
        <ele>384.18</ele>
        <time>2016-09-25T09:32:55Z</time>
      </trkpt>
      <trkpt lat="44.4656" lon="4.9817">
        <ele>383.7</ele>
        <time>2016-09-25T09:32:56Z</time>
      </trkpt>
      <trkpt lat="44.46555" lon="4.98172">
        <ele>382.74</ele>
        <time>2016-09-25T09:32:57Z</time>
      </trkpt>
      <trkpt lat="44.4655" lon="4.98174">
        <ele>381.78</ele>
        <time>2016-09-25T09:32:58Z</time>
      </trkpt>
      <trkpt lat="44.46546" lon="4.98177">
        <ele>381.3</ele>
        <time>2016-09-25T09:32:59Z</time>
      </trkpt>
      <trkpt lat="44.46534" lon="4.98187">
        <ele>378.9</ele>
        <time>2016-09-25T09:33:02Z</time>
      </trkpt>
      <trkpt lat="44.4653" lon="4.98189">
        <ele>378.42</ele>
        <time>2016-09-25T09:33:03Z</time>
      </trkpt>
      <trkpt lat="44.46525" lon="4.98189">
        <ele>378.42</ele>
        <time>2016-09-25T09:33:04Z</time>
      </trkpt>
      <trkpt lat="44.46516" lon="4.98189">
        <ele>377.94</ele>
        <time>2016-09-25T09:33:06Z</time>
      </trkpt>
      <trkpt lat="44.46504" lon="4.98192">
        <ele>376.01</ele>
        <time>2016-09-25T09:33:08Z</time>
      </trkpt>
      <trkpt lat="44.46498" lon="4.98195">
        <ele>375.53</ele>
        <time>2016-09-25T09:33:09Z</time>
      </trkpt>
      <trkpt lat="44.46489" lon="4.98199">
        <ele>374.57</ele>
        <time>2016-09-25T09:33:11Z</time>
      </trkpt>
      <trkpt lat="44.46488" lon="4.98203">
        <ele>374.57</ele>
        <time>2016-09-25T09:33:12Z</time>
      </trkpt>
      <trkpt lat="44.46486" lon="4.98209">
        <ele>373.61</ele>
        <time>2016-09-25T09:33:13Z</time>
      </trkpt>
      <trkpt lat="44.46483" lon="4.98214">
        <ele>372.17</ele>
        <time>2016-09-25T09:33:14Z</time>
      </trkpt>
      <trkpt lat="44.4648" lon="4.98219">
        <ele>371.21</ele>
        <time>2016-09-25T09:33:15Z</time>
      </trkpt>
      <trkpt lat="44.46476" lon="4.98222">
        <ele>370.24</ele>
        <time>2016-09-25T09:33:16Z</time>
      </trkpt>
      <trkpt lat="44.46461" lon="4.9823">
        <ele>367.84</ele>
        <time>2016-09-25T09:33:19Z</time>
      </trkpt>
      <trkpt lat="44.46457" lon="4.98229">
        <ele>367.36</ele>
        <time>2016-09-25T09:33:20Z</time>
      </trkpt>
      <trkpt lat="44.46453" lon="4.98226">
        <ele>366.88</ele>
        <time>2016-09-25T09:33:21Z</time>
      </trkpt>
      <trkpt lat="44.46449" lon="4.98222">
        <ele>366.88</ele>
        <time>2016-09-25T09:33:22Z</time>
      </trkpt>
      <trkpt lat="44.46444" lon="4.9822">
        <ele>367.36</ele>
        <time>2016-09-25T09:33:23Z</time>
      </trkpt>
      <trkpt lat="44.46439" lon="4.9822">
        <ele>366.88</ele>
        <time>2016-09-25T09:33:24Z</time>
      </trkpt>
      <trkpt lat="44.46435" lon="4.9822">
        <ele>366.88</ele>
        <time>2016-09-25T09:33:25Z</time>
      </trkpt>
      <trkpt lat="44.4643" lon="4.98219">
        <ele>366.4</ele>
        <time>2016-09-25T09:33:26Z</time>
      </trkpt>
      <trkpt lat="44.46425" lon="4.98218">
        <ele>365.92</ele>
        <time>2016-09-25T09:33:27Z</time>
      </trkpt>
      <trkpt lat="44.4642" lon="4.98217">
        <ele>365.44</ele>
        <time>2016-09-25T09:33:28Z</time>
      </trkpt>
      <trkpt lat="44.46415" lon="4.98216">
        <ele>365.92</ele>
        <time>2016-09-25T09:33:29Z</time>
      </trkpt>
      <trkpt lat="44.4641" lon="4.98215">
        <ele>364.96</ele>
        <time>2016-09-25T09:33:30Z</time>
      </trkpt>
      <trkpt lat="44.46405" lon="4.98213">
        <ele>364.96</ele>
        <time>2016-09-25T09:33:31Z</time>
      </trkpt>
      <trkpt lat="44.46401" lon="4.98212">
        <ele>364.48</ele>
        <time>2016-09-25T09:33:32Z</time>
      </trkpt>
      <trkpt lat="44.46396" lon="4.98213">
        <ele>364.48</ele>
        <time>2016-09-25T09:33:33Z</time>
      </trkpt>
      <trkpt lat="44.46392" lon="4.98214">
        <ele>364.48</ele>
        <time>2016-09-25T09:33:34Z</time>
      </trkpt>
      <trkpt lat="44.46388" lon="4.98213">
        <ele>364</ele>
        <time>2016-09-25T09:33:35Z</time>
      </trkpt>
      <trkpt lat="44.46377" lon="4.98211">
        <ele>363.04</ele>
        <time>2016-09-25T09:33:37Z</time>
      </trkpt>
      <trkpt lat="44.4636" lon="4.9821">
        <ele>362.55</ele>
        <time>2016-09-25T09:33:40Z</time>
      </trkpt>
      <trkpt lat="44.46348" lon="4.98205">
        <ele>361.59</ele>
        <time>2016-09-25T09:33:43Z</time>
      </trkpt>
      <trkpt lat="44.46342" lon="4.98205">
        <ele>361.11</ele>
        <time>2016-09-25T09:33:44Z</time>
      </trkpt>
      <trkpt lat="44.46336" lon="4.98205">
        <ele>361.11</ele>
        <time>2016-09-25T09:33:45Z</time>
      </trkpt>
      <trkpt lat="44.46331" lon="4.98204">
        <ele>360.63</ele>
        <time>2016-09-25T09:33:46Z</time>
      </trkpt>
      <trkpt lat="44.46326" lon="4.98204">
        <ele>360.63</ele>
        <time>2016-09-25T09:33:47Z</time>
      </trkpt>
      <trkpt lat="44.46323" lon="4.98207">
        <ele>360.63</ele>
        <time>2016-09-25T09:33:48Z</time>
      </trkpt>
      <trkpt lat="44.4632" lon="4.98209">
        <ele>359.67</ele>
        <time>2016-09-25T09:33:49Z</time>
      </trkpt>
      <trkpt lat="44.46317" lon="4.98211">
        <ele>359.67</ele>
        <time>2016-09-25T09:33:50Z</time>
      </trkpt>
      <trkpt lat="44.46314" lon="4.98211">
        <ele>359.19</ele>
        <time>2016-09-25T09:33:51Z</time>
      </trkpt>
      <trkpt lat="44.46311" lon="4.9821">
        <ele>359.19</ele>
        <time>2016-09-25T09:33:52Z</time>
      </trkpt>
      <trkpt lat="44.46308" lon="4.98211">
        <ele>358.71</ele>
        <time>2016-09-25T09:33:53Z</time>
      </trkpt>
      <trkpt lat="44.46307" lon="4.98213">
        <ele>358.23</ele>
        <time>2016-09-25T09:33:54Z</time>
      </trkpt>
      <trkpt lat="44.46307" lon="4.98218">
        <ele>357.75</ele>
        <time>2016-09-25T09:33:55Z</time>
      </trkpt>
      <trkpt lat="44.46309" lon="4.98223">
        <ele>357.27</ele>
        <time>2016-09-25T09:33:56Z</time>
      </trkpt>
      <trkpt lat="44.4631" lon="4.98228">
        <ele>356.31</ele>
        <time>2016-09-25T09:33:57Z</time>
      </trkpt>
      <trkpt lat="44.46311" lon="4.98234">
        <ele>356.31</ele>
        <time>2016-09-25T09:33:58Z</time>
      </trkpt>
      <trkpt lat="44.46311" lon="4.9824">
        <ele>356.31</ele>
        <time>2016-09-25T09:33:59Z</time>
      </trkpt>
      <trkpt lat="44.46308" lon="4.98297">
        <ele>358.23</ele>
        <time>2016-09-25T09:34:11Z</time>
      </trkpt>
      <trkpt lat="44.46298" lon="4.98323">
        <ele>360.15</ele>
        <time>2016-09-25T09:34:20Z</time>
      </trkpt>
      <trkpt lat="44.46296" lon="4.98324">
        <ele>360.15</ele>
        <time>2016-09-25T09:34:21Z</time>
      </trkpt>
      <trkpt lat="44.46263" lon="4.98334">
        <ele>360.63</ele>
        <time>2016-09-25T09:34:32Z</time>
      </trkpt>
      <trkpt lat="44.46246" lon="4.98335">
        <ele>359.67</ele>
        <time>2016-09-25T09:34:36Z</time>
      </trkpt>
      <trkpt lat="44.46242" lon="4.98336">
        <ele>359.67</ele>
        <time>2016-09-25T09:34:37Z</time>
      </trkpt>
      <trkpt lat="44.46239" lon="4.98337">
        <ele>359.19</ele>
        <time>2016-09-25T09:34:38Z</time>
      </trkpt>
      <trkpt lat="44.46235" lon="4.98338">
        <ele>359.19</ele>
        <time>2016-09-25T09:34:39Z</time>
      </trkpt>
      <trkpt lat="44.4623" lon="4.98339">
        <ele>359.19</ele>
        <time>2016-09-25T09:34:40Z</time>
      </trkpt>
      <trkpt lat="44.46203" lon="4.98351">
        <ele>359.19</ele>
        <time>2016-09-25T09:34:47Z</time>
      </trkpt>
      <trkpt lat="44.462" lon="4.98354">
        <ele>359.19</ele>
        <time>2016-09-25T09:34:48Z</time>
      </trkpt>
      <trkpt lat="44.46197" lon="4.98358">
        <ele>358.71</ele>
        <time>2016-09-25T09:34:49Z</time>
      </trkpt>
      <trkpt lat="44.46194" lon="4.98362">
        <ele>358.71</ele>
        <time>2016-09-25T09:34:50Z</time>
      </trkpt>
      <trkpt lat="44.46191" lon="4.98366">
        <ele>358.71</ele>
        <time>2016-09-25T09:34:51Z</time>
      </trkpt>
      <trkpt lat="44.46175" lon="4.98407">
        <ele>358.71</ele>
        <time>2016-09-25T09:35:00Z</time>
      </trkpt>
      <trkpt lat="44.46175" lon="4.98413">
        <ele>358.23</ele>
        <time>2016-09-25T09:35:01Z</time>
      </trkpt>
      <trkpt lat="44.46175" lon="4.98418">
        <ele>358.23</ele>
        <time>2016-09-25T09:35:02Z</time>
      </trkpt>
      <trkpt lat="44.46177" lon="4.98424">
        <ele>358.23</ele>
        <time>2016-09-25T09:35:03Z</time>
      </trkpt>
      <trkpt lat="44.46179" lon="4.98429">
        <ele>358.23</ele>
        <time>2016-09-25T09:35:04Z</time>
      </trkpt>
      <trkpt lat="44.46182" lon="4.98434">
        <ele>358.23</ele>
        <time>2016-09-25T09:35:05Z</time>
      </trkpt>
      <trkpt lat="44.46188" lon="4.98449">
        <ele>357.75</ele>
        <time>2016-09-25T09:35:08Z</time>
      </trkpt>
      <trkpt lat="44.46201" lon="4.985">
        <ele>358.71</ele>
        <time>2016-09-25T09:35:19Z</time>
      </trkpt>
      <trkpt lat="44.46199" lon="4.98503">
        <ele>358.71</ele>
        <time>2016-09-25T09:35:20Z</time>
      </trkpt>
      <trkpt lat="44.46198" lon="4.98506">
        <ele>359.19</ele>
        <time>2016-09-25T09:35:21Z</time>
      </trkpt>
      <trkpt lat="44.46197" lon="4.98509">
        <ele>359.67</ele>
        <time>2016-09-25T09:35:22Z</time>
      </trkpt>
      <trkpt lat="44.46195" lon="4.98511">
        <ele>359.67</ele>
        <time>2016-09-25T09:35:23Z</time>
      </trkpt>
      <trkpt lat="44.46195" lon="4.98512">
        <ele>360.15</ele>
        <time>2016-09-25T09:35:24Z</time>
      </trkpt>
      <trkpt lat="44.46194" lon="4.98514">
        <ele>360.15</ele>
        <time>2016-09-25T09:35:25Z</time>
      </trkpt>
      <trkpt lat="44.46186" lon="4.98522">
        <ele>361.59</ele>
        <time>2016-09-25T09:35:34Z</time>
      </trkpt>
      <trkpt lat="44.46185" lon="4.98523">
        <ele>362.07</ele>
        <time>2016-09-25T09:35:40Z</time>
      </trkpt>
      <trkpt lat="44.46184" lon="4.98527">
        <ele>362.07</ele>
        <time>2016-09-25T09:35:43Z</time>
      </trkpt>
      <trkpt lat="44.46181" lon="4.98534">
        <ele>362.55</ele>
        <time>2016-09-25T09:35:47Z</time>
      </trkpt>
      <trkpt lat="44.4618" lon="4.98537">
        <ele>363.04</ele>
        <time>2016-09-25T09:35:48Z</time>
      </trkpt>
      <trkpt lat="44.46178" lon="4.98544">
        <ele>363.52</ele>
        <time>2016-09-25T09:35:50Z</time>
      </trkpt>
      <trkpt lat="44.46171" lon="4.98603">
        <ele>365.92</ele>
        <time>2016-09-25T09:36:04Z</time>
      </trkpt>
      <trkpt lat="44.46175" lon="4.98623">
        <ele>365.44</ele>
        <time>2016-09-25T09:36:08Z</time>
      </trkpt>
      <trkpt lat="44.46177" lon="4.98627">
        <ele>365.92</ele>
        <time>2016-09-25T09:36:09Z</time>
      </trkpt>
      <trkpt lat="44.46179" lon="4.98632">
        <ele>365.92</ele>
        <time>2016-09-25T09:36:10Z</time>
      </trkpt>
      <trkpt lat="44.46181" lon="4.98637">
        <ele>365.92</ele>
        <time>2016-09-25T09:36:11Z</time>
      </trkpt>
      <trkpt lat="44.46182" lon="4.98642">
        <ele>365.92</ele>
        <time>2016-09-25T09:36:12Z</time>
      </trkpt>
      <trkpt lat="44.46182" lon="4.98647">
        <ele>365.44</ele>
        <time>2016-09-25T09:36:13Z</time>
      </trkpt>
      <trkpt lat="44.46181" lon="4.98653">
        <ele>364.96</ele>
        <time>2016-09-25T09:36:14Z</time>
      </trkpt>
      <trkpt lat="44.46179" lon="4.98658">
        <ele>364.96</ele>
        <time>2016-09-25T09:36:15Z</time>
      </trkpt>
      <trkpt lat="44.46174" lon="4.98687">
        <ele>367.84</ele>
        <time>2016-09-25T09:36:26Z</time>
      </trkpt>
      <trkpt lat="44.46174" lon="4.98692">
        <ele>368.32</ele>
        <time>2016-09-25T09:36:28Z</time>
      </trkpt>
      <trkpt lat="44.46174" lon="4.98693">
        <ele>368.8</ele>
        <time>2016-09-25T09:36:29Z</time>
      </trkpt>
      <trkpt lat="44.46174" lon="4.98695">
        <ele>368.8</ele>
        <time>2016-09-25T09:36:30Z</time>
      </trkpt>
      <trkpt lat="44.46174" lon="4.98712">
        <ele>371.21</ele>
        <time>2016-09-25T09:36:39Z</time>
      </trkpt>
      <trkpt lat="44.46174" lon="4.98714">
        <ele>371.21</ele>
        <time>2016-09-25T09:36:40Z</time>
      </trkpt>
      <trkpt lat="44.46174" lon="4.98716">
        <ele>371.69</ele>
        <time>2016-09-25T09:36:41Z</time>
      </trkpt>
      <trkpt lat="44.46174" lon="4.98719">
        <ele>371.69</ele>
        <time>2016-09-25T09:36:42Z</time>
      </trkpt>
      <trkpt lat="44.46173" lon="4.98721">
        <ele>371.69</ele>
        <time>2016-09-25T09:36:43Z</time>
      </trkpt>
      <trkpt lat="44.46173" lon="4.98723">
        <ele>371.69</ele>
        <time>2016-09-25T09:36:44Z</time>
      </trkpt>
      <trkpt lat="44.46173" lon="4.98725">
        <ele>372.17</ele>
        <time>2016-09-25T09:36:45Z</time>
      </trkpt>
      <trkpt lat="44.46173" lon="4.98727">
        <ele>372.17</ele>
        <time>2016-09-25T09:36:46Z</time>
      </trkpt>
      <trkpt lat="44.46173" lon="4.98729">
        <ele>372.65</ele>
        <time>2016-09-25T09:36:47Z</time>
      </trkpt>
      <trkpt lat="44.46172" lon="4.98731">
        <ele>372.65</ele>
        <time>2016-09-25T09:36:48Z</time>
      </trkpt>
      <trkpt lat="44.46172" lon="4.98733">
        <ele>373.13</ele>
        <time>2016-09-25T09:36:49Z</time>
      </trkpt>
      <trkpt lat="44.46172" lon="4.98736">
        <ele>373.13</ele>
        <time>2016-09-25T09:36:50Z</time>
      </trkpt>
      <trkpt lat="44.46171" lon="4.98738">
        <ele>373.13</ele>
        <time>2016-09-25T09:36:51Z</time>
      </trkpt>
      <trkpt lat="44.46171" lon="4.98741">
        <ele>373.13</ele>
        <time>2016-09-25T09:36:52Z</time>
      </trkpt>
      <trkpt lat="44.46164" lon="4.98776">
        <ele>376.01</ele>
        <time>2016-09-25T09:37:06Z</time>
      </trkpt>
      <trkpt lat="44.46158" lon="4.98816">
        <ele>378.42</ele>
        <time>2016-09-25T09:37:21Z</time>
      </trkpt>
      <trkpt lat="44.4615" lon="4.98849">
        <ele>379.86</ele>
        <time>2016-09-25T09:37:33Z</time>
      </trkpt>
      <trkpt lat="44.46141" lon="4.98865">
        <ele>380.34</ele>
        <time>2016-09-25T09:37:39Z</time>
      </trkpt>
      <trkpt lat="44.46139" lon="4.98867">
        <ele>380.34</ele>
        <time>2016-09-25T09:37:40Z</time>
      </trkpt>
      <trkpt lat="44.46136" lon="4.98871">
        <ele>379.86</ele>
        <time>2016-09-25T09:37:41Z</time>
      </trkpt>
      <trkpt lat="44.46135" lon="4.98874">
        <ele>379.86</ele>
        <time>2016-09-25T09:37:42Z</time>
      </trkpt>
      <trkpt lat="44.46133" lon="4.98879">
        <ele>380.34</ele>
        <time>2016-09-25T09:37:43Z</time>
      </trkpt>
      <trkpt lat="44.46123" lon="4.98941">
        <ele>380.34</ele>
        <time>2016-09-25T09:37:56Z</time>
      </trkpt>
      <trkpt lat="44.46119" lon="4.98956">
        <ele>379.86</ele>
        <time>2016-09-25T09:37:59Z</time>
      </trkpt>
      <trkpt lat="44.46116" lon="4.9896">
        <ele>379.38</ele>
        <time>2016-09-25T09:38:00Z</time>
      </trkpt>
      <trkpt lat="44.46111" lon="4.98963">
        <ele>378.9</ele>
        <time>2016-09-25T09:38:01Z</time>
      </trkpt>
      <trkpt lat="44.46106" lon="4.98965">
        <ele>378.42</ele>
        <time>2016-09-25T09:38:02Z</time>
      </trkpt>
      <trkpt lat="44.461" lon="4.98966">
        <ele>377.94</ele>
        <time>2016-09-25T09:38:03Z</time>
      </trkpt>
      <trkpt lat="44.46094" lon="4.98967">
        <ele>376.97</ele>
        <time>2016-09-25T09:38:04Z</time>
      </trkpt>
      <trkpt lat="44.46089" lon="4.98966">
        <ele>376.49</ele>
        <time>2016-09-25T09:38:05Z</time>
      </trkpt>
      <trkpt lat="44.46084" lon="4.98965">
        <ele>376.01</ele>
        <time>2016-09-25T09:38:06Z</time>
      </trkpt>
      <trkpt lat="44.46069" lon="4.98959">
        <ele>374.09</ele>
        <time>2016-09-25T09:38:09Z</time>
      </trkpt>
      <trkpt lat="44.46065" lon="4.98957">
        <ele>373.13</ele>
        <time>2016-09-25T09:38:10Z</time>
      </trkpt>
      <trkpt lat="44.4606" lon="4.98956">
        <ele>372.65</ele>
        <time>2016-09-25T09:38:11Z</time>
      </trkpt>
      <trkpt lat="44.46055" lon="4.98954">
        <ele>372.17</ele>
        <time>2016-09-25T09:38:12Z</time>
      </trkpt>
      <trkpt lat="44.4605" lon="4.98951">
        <ele>371.21</ele>
        <time>2016-09-25T09:38:13Z</time>
      </trkpt>
      <trkpt lat="44.46045" lon="4.98948">
        <ele>370.73</ele>
        <time>2016-09-25T09:38:14Z</time>
      </trkpt>
      <trkpt lat="44.4604" lon="4.98946">
        <ele>369.76</ele>
        <time>2016-09-25T09:38:15Z</time>
      </trkpt>
      <trkpt lat="44.46034" lon="4.98945">
        <ele>368.8</ele>
        <time>2016-09-25T09:38:16Z</time>
      </trkpt>
      <trkpt lat="44.46003" lon="4.98936">
        <ele>365.92</ele>
        <time>2016-09-25T09:38:21Z</time>
      </trkpt>
      <trkpt lat="44.45976" lon="4.9893">
        <ele>362.55</ele>
        <time>2016-09-25T09:38:25Z</time>
      </trkpt>
      <trkpt lat="44.45969" lon="4.98928">
        <ele>362.55</ele>
        <time>2016-09-25T09:38:26Z</time>
      </trkpt>
      <trkpt lat="44.45926" lon="4.9892">
        <ele>359.19</ele>
        <time>2016-09-25T09:38:33Z</time>
      </trkpt>
      <trkpt lat="44.45914" lon="4.98917">
        <ele>358.23</ele>
        <time>2016-09-25T09:38:35Z</time>
      </trkpt>
      <trkpt lat="44.45869" lon="4.9891">
        <ele>355.83</ele>
        <time>2016-09-25T09:38:43Z</time>
      </trkpt>
      <trkpt lat="44.45853" lon="4.98903">
        <ele>354.38</ele>
        <time>2016-09-25T09:38:46Z</time>
      </trkpt>
      <trkpt lat="44.45847" lon="4.989">
        <ele>354.38</ele>
        <time>2016-09-25T09:38:47Z</time>
      </trkpt>
      <trkpt lat="44.4583" lon="4.98894">
        <ele>352.94</ele>
        <time>2016-09-25T09:38:50Z</time>
      </trkpt>
      <trkpt lat="44.45814" lon="4.98887">
        <ele>351.02</ele>
        <time>2016-09-25T09:38:53Z</time>
      </trkpt>
      <trkpt lat="44.45809" lon="4.98884">
        <ele>350.54</ele>
        <time>2016-09-25T09:38:54Z</time>
      </trkpt>
      <trkpt lat="44.45791" lon="4.98875">
        <ele>350.06</ele>
        <time>2016-09-25T09:38:58Z</time>
      </trkpt>
      <trkpt lat="44.45786" lon="4.98874">
        <ele>349.58</ele>
        <time>2016-09-25T09:38:59Z</time>
      </trkpt>
      <trkpt lat="44.45776" lon="4.98874">
        <ele>349.58</ele>
        <time>2016-09-25T09:39:01Z</time>
      </trkpt>
      <trkpt lat="44.45772" lon="4.98874">
        <ele>349.1</ele>
        <time>2016-09-25T09:39:02Z</time>
      </trkpt>
      <trkpt lat="44.45768" lon="4.98873">
        <ele>349.1</ele>
        <time>2016-09-25T09:39:03Z</time>
      </trkpt>
      <trkpt lat="44.45729" lon="4.9885">
        <ele>351.02</ele>
        <time>2016-09-25T09:39:14Z</time>
      </trkpt>
      <trkpt lat="44.45693" lon="4.98825">
        <ele>350.06</ele>
        <time>2016-09-25T09:39:25Z</time>
      </trkpt>
      <trkpt lat="44.45667" lon="4.9881">
        <ele>349.58</ele>
        <time>2016-09-25T09:39:31Z</time>
      </trkpt>
      <trkpt lat="44.45655" lon="4.98801">
        <ele>350.06</ele>
        <time>2016-09-25T09:39:34Z</time>
      </trkpt>
      <trkpt lat="44.45651" lon="4.98797">
        <ele>349.58</ele>
        <time>2016-09-25T09:39:35Z</time>
      </trkpt>
      <trkpt lat="44.45627" lon="4.98769">
        <ele>350.06</ele>
        <time>2016-09-25T09:39:42Z</time>
      </trkpt>
      <trkpt lat="44.45624" lon="4.98766">
        <ele>350.06</ele>
        <time>2016-09-25T09:39:43Z</time>
      </trkpt>
      <trkpt lat="44.4562" lon="4.98763">
        <ele>350.54</ele>
        <time>2016-09-25T09:39:44Z</time>
      </trkpt>
      <trkpt lat="44.45616" lon="4.98761">
        <ele>350.54</ele>
        <time>2016-09-25T09:39:45Z</time>
      </trkpt>
      <trkpt lat="44.45612" lon="4.9876">
        <ele>351.02</ele>
        <time>2016-09-25T09:39:46Z</time>
      </trkpt>
      <trkpt lat="44.45608" lon="4.98759">
        <ele>351.02</ele>
        <time>2016-09-25T09:39:47Z</time>
      </trkpt>
      <trkpt lat="44.45562" lon="4.98757">
        <ele>354.86</ele>
        <time>2016-09-25T09:40:00Z</time>
      </trkpt>
      <trkpt lat="44.45524" lon="4.98752">
        <ele>357.75</ele>
        <time>2016-09-25T09:40:12Z</time>
      </trkpt>
      <trkpt lat="44.45487" lon="4.9873">
        <ele>358.23</ele>
        <time>2016-09-25T09:40:24Z</time>
      </trkpt>
      <trkpt lat="44.45453" lon="4.98713">
        <ele>356.79</ele>
        <time>2016-09-25T09:40:33Z</time>
      </trkpt>
      <trkpt lat="44.45431" lon="4.9871">
        <ele>353.9</ele>
        <time>2016-09-25T09:40:37Z</time>
      </trkpt>
      <trkpt lat="44.45425" lon="4.98708">
        <ele>353.42</ele>
        <time>2016-09-25T09:40:38Z</time>
      </trkpt>
      <trkpt lat="44.4542" lon="4.98706">
        <ele>353.42</ele>
        <time>2016-09-25T09:40:39Z</time>
      </trkpt>
      <trkpt lat="44.45414" lon="4.98703">
        <ele>352.94</ele>
        <time>2016-09-25T09:40:40Z</time>
      </trkpt>
      <trkpt lat="44.45409" lon="4.98702">
        <ele>352.46</ele>
        <time>2016-09-25T09:40:41Z</time>
      </trkpt>
      <trkpt lat="44.45403" lon="4.98702">
        <ele>351.98</ele>
        <time>2016-09-25T09:40:42Z</time>
      </trkpt>
      <trkpt lat="44.45397" lon="4.98702">
        <ele>351.02</ele>
        <time>2016-09-25T09:40:43Z</time>
      </trkpt>
      <trkpt lat="44.45391" lon="4.98702">
        <ele>351.02</ele>
        <time>2016-09-25T09:40:44Z</time>
      </trkpt>
      <trkpt lat="44.45385" lon="4.98704">
        <ele>350.54</ele>
        <time>2016-09-25T09:40:45Z</time>
      </trkpt>
      <trkpt lat="44.4538" lon="4.98706">
        <ele>350.54</ele>
        <time>2016-09-25T09:40:46Z</time>
      </trkpt>
      <trkpt lat="44.45375" lon="4.98706">
        <ele>349.58</ele>
        <time>2016-09-25T09:40:47Z</time>
      </trkpt>
      <trkpt lat="44.45371" lon="4.98705">
        <ele>350.06</ele>
        <time>2016-09-25T09:40:48Z</time>
      </trkpt>
      <trkpt lat="44.45367" lon="4.98703">
        <ele>349.1</ele>
        <time>2016-09-25T09:40:49Z</time>
      </trkpt>
      <trkpt lat="44.45362" lon="4.98702">
        <ele>348.62</ele>
        <time>2016-09-25T09:40:50Z</time>
      </trkpt>
      <trkpt lat="44.45357" lon="4.987">
        <ele>348.13</ele>
        <time>2016-09-25T09:40:51Z</time>
      </trkpt>
      <trkpt lat="44.45352" lon="4.98697">
        <ele>347.65</ele>
        <time>2016-09-25T09:40:52Z</time>
      </trkpt>
      <trkpt lat="44.45347" lon="4.98693">
        <ele>347.17</ele>
        <time>2016-09-25T09:40:53Z</time>
      </trkpt>
      <trkpt lat="44.45341" lon="4.9869">
        <ele>346.69</ele>
        <time>2016-09-25T09:40:54Z</time>
      </trkpt>
      <trkpt lat="44.45336" lon="4.98687">
        <ele>346.21</ele>
        <time>2016-09-25T09:40:55Z</time>
      </trkpt>
      <trkpt lat="44.4533" lon="4.98684">
        <ele>345.73</ele>
        <time>2016-09-25T09:40:56Z</time>
      </trkpt>
      <trkpt lat="44.45302" lon="4.9867">
        <ele>342.37</ele>
        <time>2016-09-25T09:41:01Z</time>
      </trkpt>
      <trkpt lat="44.45277" lon="4.98658">
        <ele>339.48</ele>
        <time>2016-09-25T09:41:05Z</time>
      </trkpt>
      <trkpt lat="44.45251" lon="4.9865">
        <ele>336.12</ele>
        <time>2016-09-25T09:41:09Z</time>
      </trkpt>
      <trkpt lat="44.45245" lon="4.98648">
        <ele>336.12</ele>
        <time>2016-09-25T09:41:10Z</time>
      </trkpt>
      <trkpt lat="44.4524" lon="4.98648">
        <ele>335.64</ele>
        <time>2016-09-25T09:41:11Z</time>
      </trkpt>
      <trkpt lat="44.45234" lon="4.98647">
        <ele>335.16</ele>
        <time>2016-09-25T09:41:12Z</time>
      </trkpt>
      <trkpt lat="44.45229" lon="4.98646">
        <ele>334.68</ele>
        <time>2016-09-25T09:41:13Z</time>
      </trkpt>
      <trkpt lat="44.45223" lon="4.98643">
        <ele>333.23</ele>
        <time>2016-09-25T09:41:14Z</time>
      </trkpt>
      <trkpt lat="44.45218" lon="4.98639">
        <ele>332.75</ele>
        <time>2016-09-25T09:41:15Z</time>
      </trkpt>
      <trkpt lat="44.45212" lon="4.98635">
        <ele>332.27</ele>
        <time>2016-09-25T09:41:16Z</time>
      </trkpt>
      <trkpt lat="44.45206" lon="4.98631">
        <ele>331.31</ele>
        <time>2016-09-25T09:41:17Z</time>
      </trkpt>
      <trkpt lat="44.452" lon="4.9863">
        <ele>330.35</ele>
        <time>2016-09-25T09:41:18Z</time>
      </trkpt>
      <trkpt lat="44.45195" lon="4.9863">
        <ele>329.87</ele>
        <time>2016-09-25T09:41:19Z</time>
      </trkpt>
      <trkpt lat="44.45189" lon="4.9863">
        <ele>329.39</ele>
        <time>2016-09-25T09:41:20Z</time>
      </trkpt>
      <trkpt lat="44.45184" lon="4.9863">
        <ele>328.91</ele>
        <time>2016-09-25T09:41:21Z</time>
      </trkpt>
      <trkpt lat="44.45178" lon="4.9863">
        <ele>328.43</ele>
        <time>2016-09-25T09:41:22Z</time>
      </trkpt>
      <trkpt lat="44.45173" lon="4.9863">
        <ele>327.95</ele>
        <time>2016-09-25T09:41:23Z</time>
      </trkpt>
      <trkpt lat="44.45143" lon="4.9863">
        <ele>324.58</ele>
        <time>2016-09-25T09:41:28Z</time>
      </trkpt>
      <trkpt lat="44.45137" lon="4.98628">
        <ele>324.58</ele>
        <time>2016-09-25T09:41:29Z</time>
      </trkpt>
      <trkpt lat="44.45127" lon="4.98625">
        <ele>323.62</ele>
        <time>2016-09-25T09:41:31Z</time>
      </trkpt>
      <trkpt lat="44.45113" lon="4.98623">
        <ele>323.14</ele>
        <time>2016-09-25T09:41:34Z</time>
      </trkpt>
      <trkpt lat="44.45104" lon="4.9862">
        <ele>322.66</ele>
        <time>2016-09-25T09:41:36Z</time>
      </trkpt>
      <trkpt lat="44.45083" lon="4.98616">
        <ele>320.26</ele>
        <time>2016-09-25T09:41:41Z</time>
      </trkpt>
      <trkpt lat="44.4508" lon="4.98614">
        <ele>319.78</ele>
        <time>2016-09-25T09:41:42Z</time>
      </trkpt>
      <trkpt lat="44.45063" lon="4.98607">
        <ele>318.81</ele>
        <time>2016-09-25T09:41:46Z</time>
      </trkpt>
      <trkpt lat="44.45058" lon="4.98606">
        <ele>317.85</ele>
        <time>2016-09-25T09:41:47Z</time>
      </trkpt>
      <trkpt lat="44.45054" lon="4.98604">
        <ele>317.37</ele>
        <time>2016-09-25T09:41:48Z</time>
      </trkpt>
      <trkpt lat="44.4505" lon="4.98602">
        <ele>316.89</ele>
        <time>2016-09-25T09:41:49Z</time>
      </trkpt>
      <trkpt lat="44.45045" lon="4.986">
        <ele>316.89</ele>
        <time>2016-09-25T09:41:50Z</time>
      </trkpt>
      <trkpt lat="44.45041" lon="4.98598">
        <ele>316.89</ele>
        <time>2016-09-25T09:41:51Z</time>
      </trkpt>
      <trkpt lat="44.45037" lon="4.98596">
        <ele>315.93</ele>
        <time>2016-09-25T09:41:52Z</time>
      </trkpt>
      <trkpt lat="44.45033" lon="4.98594">
        <ele>315.45</ele>
        <time>2016-09-25T09:41:53Z</time>
      </trkpt>
      <trkpt lat="44.45009" lon="4.98577">
        <ele>312.57</ele>
        <time>2016-09-25T09:41:58Z</time>
      </trkpt>
      <trkpt lat="44.44983" lon="4.98562">
        <ele>310.64</ele>
        <time>2016-09-25T09:42:03Z</time>
      </trkpt>
      <trkpt lat="44.4498" lon="4.98558">
        <ele>310.64</ele>
        <time>2016-09-25T09:42:04Z</time>
      </trkpt>
      <trkpt lat="44.44976" lon="4.98554">
        <ele>310.16</ele>
        <time>2016-09-25T09:42:05Z</time>
      </trkpt>
      <trkpt lat="44.44971" lon="4.98549">
        <ele>309.68</ele>
        <time>2016-09-25T09:42:06Z</time>
      </trkpt>
      <trkpt lat="44.44965" lon="4.98545">
        <ele>308.72</ele>
        <time>2016-09-25T09:42:07Z</time>
      </trkpt>
      <trkpt lat="44.44958" lon="4.98541">
        <ele>307.76</ele>
        <time>2016-09-25T09:42:08Z</time>
      </trkpt>
      <trkpt lat="44.44952" lon="4.98539">
        <ele>306.8</ele>
        <time>2016-09-25T09:42:09Z</time>
      </trkpt>
      <trkpt lat="44.44944" lon="4.98537">
        <ele>305.84</ele>
        <time>2016-09-25T09:42:10Z</time>
      </trkpt>
      <trkpt lat="44.44925" lon="4.98533">
        <ele>304.39</ele>
        <time>2016-09-25T09:42:13Z</time>
      </trkpt>
      <trkpt lat="44.44922" lon="4.98533">
        <ele>305.84</ele>
        <time>2016-09-25T09:42:20Z</time>
      </trkpt>
      <trkpt lat="44.44922" lon="4.98534">
        <ele>305.84</ele>
        <time>2016-09-25T09:42:34Z</time>
      </trkpt>
      <trkpt lat="44.44921" lon="4.98534">
        <ele>305.84</ele>
        <time>2016-09-25T09:42:35Z</time>
      </trkpt>
      <trkpt lat="44.44919" lon="4.98534">
        <ele>305.84</ele>
        <time>2016-09-25T09:42:36Z</time>
      </trkpt>
      <trkpt lat="44.44915" lon="4.98533">
        <ele>304.88</ele>
        <time>2016-09-25T09:42:38Z</time>
      </trkpt>
      <trkpt lat="44.44912" lon="4.98533">
        <ele>304.88</ele>
        <time>2016-09-25T09:42:39Z</time>
      </trkpt>
      <trkpt lat="44.44909" lon="4.98532">
        <ele>304.39</ele>
        <time>2016-09-25T09:42:40Z</time>
      </trkpt>
      <trkpt lat="44.44905" lon="4.98532">
        <ele>303.91</ele>
        <time>2016-09-25T09:42:41Z</time>
      </trkpt>
      <trkpt lat="44.44901" lon="4.98531">
        <ele>303.43</ele>
        <time>2016-09-25T09:42:42Z</time>
      </trkpt>
      <trkpt lat="44.44897" lon="4.9853">
        <ele>303.43</ele>
        <time>2016-09-25T09:42:43Z</time>
      </trkpt>
      <trkpt lat="44.44892" lon="4.98528">
        <ele>302.47</ele>
        <time>2016-09-25T09:42:44Z</time>
      </trkpt>
      <trkpt lat="44.44887" lon="4.98525">
        <ele>302.47</ele>
        <time>2016-09-25T09:42:45Z</time>
      </trkpt>
      <trkpt lat="44.44883" lon="4.98522">
        <ele>301.99</ele>
        <time>2016-09-25T09:42:46Z</time>
      </trkpt>
      <trkpt lat="44.44879" lon="4.98518">
        <ele>301.51</ele>
        <time>2016-09-25T09:42:47Z</time>
      </trkpt>
      <trkpt lat="44.44831" lon="4.98485">
        <ele>298.15</ele>
        <time>2016-09-25T09:42:56Z</time>
      </trkpt>
      <trkpt lat="44.44825" lon="4.98481">
        <ele>298.15</ele>
        <time>2016-09-25T09:42:57Z</time>
      </trkpt>
      <trkpt lat="44.44819" lon="4.98477">
        <ele>297.67</ele>
        <time>2016-09-25T09:42:58Z</time>
      </trkpt>
      <trkpt lat="44.44813" lon="4.98473">
        <ele>297.18</ele>
        <time>2016-09-25T09:42:59Z</time>
      </trkpt>
      <trkpt lat="44.44807" lon="4.98468">
        <ele>297.18</ele>
        <time>2016-09-25T09:43:00Z</time>
      </trkpt>
      <trkpt lat="44.448" lon="4.98464">
        <ele>296.7</ele>
        <time>2016-09-25T09:43:01Z</time>
      </trkpt>
      <trkpt lat="44.44776" lon="4.98448">
        <ele>294.78</ele>
        <time>2016-09-25T09:43:05Z</time>
      </trkpt>
      <trkpt lat="44.4477" lon="4.98444">
        <ele>294.3</ele>
        <time>2016-09-25T09:43:06Z</time>
      </trkpt>
      <trkpt lat="44.44758" lon="4.98437">
        <ele>294.3</ele>
        <time>2016-09-25T09:43:08Z</time>
      </trkpt>
      <trkpt lat="44.44728" lon="4.98417">
        <ele>291.9</ele>
        <time>2016-09-25T09:43:13Z</time>
      </trkpt>
      <trkpt lat="44.44722" lon="4.98413">
        <ele>291.9</ele>
        <time>2016-09-25T09:43:14Z</time>
      </trkpt>
      <trkpt lat="44.44712" lon="4.98402">
        <ele>292.86</ele>
        <time>2016-09-25T09:43:17Z</time>
      </trkpt>
      <trkpt lat="44.44712" lon="4.984">
        <ele>293.34</ele>
        <time>2016-09-25T09:43:18Z</time>
      </trkpt>
      <trkpt lat="44.44713" lon="4.98398">
        <ele>294.3</ele>
        <time>2016-09-25T09:43:19Z</time>
      </trkpt>
      <trkpt lat="44.44715" lon="4.98397">
        <ele>294.3</ele>
        <time>2016-09-25T09:43:20Z</time>
      </trkpt>
      <trkpt lat="44.44717" lon="4.98397">
        <ele>293.82</ele>
        <time>2016-09-25T09:43:21Z</time>
      </trkpt>
      <trkpt lat="44.44723" lon="4.98389">
        <ele>294.3</ele>
        <time>2016-09-25T09:43:26Z</time>
      </trkpt>
      <trkpt lat="44.44723" lon="4.98385">
        <ele>293.34</ele>
        <time>2016-09-25T09:43:27Z</time>
      </trkpt>
      <trkpt lat="44.44728" lon="4.98334">
        <ele>293.82</ele>
        <time>2016-09-25T09:43:40Z</time>
      </trkpt>
      <trkpt lat="44.44731" lon="4.98317">
        <ele>292.86</ele>
        <time>2016-09-25T09:43:43Z</time>
      </trkpt>
      <trkpt lat="44.44733" lon="4.98311">
        <ele>292.86</ele>
        <time>2016-09-25T09:43:44Z</time>
      </trkpt>
      <trkpt lat="44.44733" lon="4.98306">
        <ele>293.34</ele>
        <time>2016-09-25T09:43:45Z</time>
      </trkpt>
      <trkpt lat="44.44734" lon="4.98294">
        <ele>292.86</ele>
        <time>2016-09-25T09:43:47Z</time>
      </trkpt>
      <trkpt lat="44.44734" lon="4.98288">
        <ele>292.86</ele>
        <time>2016-09-25T09:43:48Z</time>
      </trkpt>
      <trkpt lat="44.44735" lon="4.98283">
        <ele>292.86</ele>
        <time>2016-09-25T09:43:49Z</time>
      </trkpt>
      <trkpt lat="44.44738" lon="4.98271">
        <ele>292.86</ele>
        <time>2016-09-25T09:43:51Z</time>
      </trkpt>
      <trkpt lat="44.44742" lon="4.98246">
        <ele>292.38</ele>
        <time>2016-09-25T09:43:55Z</time>
      </trkpt>
      <trkpt lat="44.44742" lon="4.9824">
        <ele>292.86</ele>
        <time>2016-09-25T09:43:56Z</time>
      </trkpt>
      <trkpt lat="44.44743" lon="4.98234">
        <ele>292.86</ele>
        <time>2016-09-25T09:43:57Z</time>
      </trkpt>
      <trkpt lat="44.44743" lon="4.98228">
        <ele>292.86</ele>
        <time>2016-09-25T09:43:58Z</time>
      </trkpt>
      <trkpt lat="44.44744" lon="4.98222">
        <ele>292.86</ele>
        <time>2016-09-25T09:43:59Z</time>
      </trkpt>
      <trkpt lat="44.44754" lon="4.98127">
        <ele>292.86</ele>
        <time>2016-09-25T09:44:14Z</time>
      </trkpt>
      <trkpt lat="44.44755" lon="4.98121">
        <ele>292.86</ele>
        <time>2016-09-25T09:44:15Z</time>
      </trkpt>
      <trkpt lat="44.44755" lon="4.98115">
        <ele>292.86</ele>
        <time>2016-09-25T09:44:16Z</time>
      </trkpt>
      <trkpt lat="44.4476" lon="4.98057">
        <ele>293.82</ele>
        <time>2016-09-25T09:44:27Z</time>
      </trkpt>
      <trkpt lat="44.44758" lon="4.98053">
        <ele>293.82</ele>
        <time>2016-09-25T09:44:28Z</time>
      </trkpt>
      <trkpt lat="44.44755" lon="4.9805">
        <ele>293.82</ele>
        <time>2016-09-25T09:44:29Z</time>
      </trkpt>
      <trkpt lat="44.44751" lon="4.98047">
        <ele>293.82</ele>
        <time>2016-09-25T09:44:30Z</time>
      </trkpt>
      <trkpt lat="44.44747" lon="4.98045">
        <ele>293.34</ele>
        <time>2016-09-25T09:44:31Z</time>
      </trkpt>
      <trkpt lat="44.44742" lon="4.98045">
        <ele>293.34</ele>
        <time>2016-09-25T09:44:32Z</time>
      </trkpt>
      <trkpt lat="44.44737" lon="4.98044">
        <ele>293.34</ele>
        <time>2016-09-25T09:44:33Z</time>
      </trkpt>
      <trkpt lat="44.44732" lon="4.98044">
        <ele>292.86</ele>
        <time>2016-09-25T09:44:34Z</time>
      </trkpt>
      <trkpt lat="44.44727" lon="4.98045">
        <ele>292.86</ele>
        <time>2016-09-25T09:44:35Z</time>
      </trkpt>
      <trkpt lat="44.44722" lon="4.98046">
        <ele>292.38</ele>
        <time>2016-09-25T09:44:36Z</time>
      </trkpt>
      <trkpt lat="44.44716" lon="4.98047">
        <ele>291.9</ele>
        <time>2016-09-25T09:44:37Z</time>
      </trkpt>
      <trkpt lat="44.44711" lon="4.98047">
        <ele>291.9</ele>
        <time>2016-09-25T09:44:38Z</time>
      </trkpt>
      <trkpt lat="44.44705" lon="4.98046">
        <ele>290.94</ele>
        <time>2016-09-25T09:44:39Z</time>
      </trkpt>
      <trkpt lat="44.44699" lon="4.98047">
        <ele>290.94</ele>
        <time>2016-09-25T09:44:40Z</time>
      </trkpt>
      <trkpt lat="44.44693" lon="4.98048">
        <ele>290.46</ele>
        <time>2016-09-25T09:44:41Z</time>
      </trkpt>
      <trkpt lat="44.44662" lon="4.98052">
        <ele>288.53</ele>
        <time>2016-09-25T09:44:46Z</time>
      </trkpt>
      <trkpt lat="44.44597" lon="4.98042">
        <ele>287.57</ele>
        <time>2016-09-25T09:44:57Z</time>
      </trkpt>
      <trkpt lat="44.44593" lon="4.98038">
        <ele>287.09</ele>
        <time>2016-09-25T09:44:58Z</time>
      </trkpt>
      <trkpt lat="44.44588" lon="4.98033">
        <ele>286.13</ele>
        <time>2016-09-25T09:44:59Z</time>
      </trkpt>
      <trkpt lat="44.44575" lon="4.98023">
        <ele>285.17</ele>
        <time>2016-09-25T09:45:02Z</time>
      </trkpt>
      <trkpt lat="44.44555" lon="4.98012">
        <ele>284.69</ele>
        <time>2016-09-25T09:45:08Z</time>
      </trkpt>
      <trkpt lat="44.44554" lon="4.98009">
        <ele>284.69</ele>
        <time>2016-09-25T09:45:09Z</time>
      </trkpt>
      <trkpt lat="44.44556" lon="4.98006">
        <ele>284.69</ele>
        <time>2016-09-25T09:45:10Z</time>
      </trkpt>
      <trkpt lat="44.44559" lon="4.98004">
        <ele>284.69</ele>
        <time>2016-09-25T09:45:11Z</time>
      </trkpt>
      <trkpt lat="44.44561" lon="4.98002">
        <ele>284.69</ele>
        <time>2016-09-25T09:45:12Z</time>
      </trkpt>
      <trkpt lat="44.44562" lon="4.97999">
        <ele>284.69</ele>
        <time>2016-09-25T09:45:13Z</time>
      </trkpt>
      <trkpt lat="44.44563" lon="4.97996">
        <ele>284.69</ele>
        <time>2016-09-25T09:45:14Z</time>
      </trkpt>
      <trkpt lat="44.44564" lon="4.97993">
        <ele>284.69</ele>
        <time>2016-09-25T09:45:15Z</time>
      </trkpt>
      <trkpt lat="44.44565" lon="4.97989">
        <ele>285.17</ele>
        <time>2016-09-25T09:45:16Z</time>
      </trkpt>
      <trkpt lat="44.44566" lon="4.97984">
        <ele>284.69</ele>
        <time>2016-09-25T09:45:17Z</time>
      </trkpt>
      <trkpt lat="44.44567" lon="4.9798">
        <ele>284.69</ele>
        <time>2016-09-25T09:45:18Z</time>
      </trkpt>
      <trkpt lat="44.44568" lon="4.97976">
        <ele>284.69</ele>
        <time>2016-09-25T09:45:19Z</time>
      </trkpt>
      <trkpt lat="44.44568" lon="4.97971">
        <ele>284.69</ele>
        <time>2016-09-25T09:45:20Z</time>
      </trkpt>
      <trkpt lat="44.44569" lon="4.97967">
        <ele>284.69</ele>
        <time>2016-09-25T09:45:21Z</time>
      </trkpt>
      <trkpt lat="44.44575" lon="4.97923">
        <ele>286.13</ele>
        <time>2016-09-25T09:45:31Z</time>
      </trkpt>
      <trkpt lat="44.44574" lon="4.97921">
        <ele>286.13</ele>
        <time>2016-09-25T09:45:32Z</time>
      </trkpt>
      <trkpt lat="44.44572" lon="4.97919">
        <ele>285.65</ele>
        <time>2016-09-25T09:45:33Z</time>
      </trkpt>
      <trkpt lat="44.44569" lon="4.97918">
        <ele>285.17</ele>
        <time>2016-09-25T09:45:34Z</time>
      </trkpt>
      <trkpt lat="44.44566" lon="4.97917">
        <ele>285.17</ele>
        <time>2016-09-25T09:45:35Z</time>
      </trkpt>
      <trkpt lat="44.44562" lon="4.97917">
        <ele>285.17</ele>
        <time>2016-09-25T09:45:36Z</time>
      </trkpt>
      <trkpt lat="44.44557" lon="4.97917">
        <ele>284.69</ele>
        <time>2016-09-25T09:45:37Z</time>
      </trkpt>
      <trkpt lat="44.44502" lon="4.97916">
        <ele>281.32</ele>
        <time>2016-09-25T09:45:47Z</time>
      </trkpt>
      <trkpt lat="44.44482" lon="4.97912">
        <ele>279.4</ele>
        <time>2016-09-25T09:45:50Z</time>
      </trkpt>
      <trkpt lat="44.44475" lon="4.9791">
        <ele>279.4</ele>
        <time>2016-09-25T09:45:51Z</time>
      </trkpt>
      <trkpt lat="44.44457" lon="4.97908">
        <ele>278.44</ele>
        <time>2016-09-25T09:45:54Z</time>
      </trkpt>
      <trkpt lat="44.44453" lon="4.97908">
        <ele>278.44</ele>
        <time>2016-09-25T09:45:55Z</time>
      </trkpt>
      <trkpt lat="44.4445" lon="4.97907">
        <ele>278.44</ele>
        <time>2016-09-25T09:45:56Z</time>
      </trkpt>
      <trkpt lat="44.44444" lon="4.97906">
        <ele>278.92</ele>
        <time>2016-09-25T09:45:59Z</time>
      </trkpt>
      <trkpt lat="44.44442" lon="4.97909">
        <ele>277.96</ele>
        <time>2016-09-25T09:46:00Z</time>
      </trkpt>
      <trkpt lat="44.44439" lon="4.97916">
        <ele>277</ele>
        <time>2016-09-25T09:46:01Z</time>
      </trkpt>
      <trkpt lat="44.44438" lon="4.97924">
        <ele>276.04</ele>
        <time>2016-09-25T09:46:02Z</time>
      </trkpt>
      <trkpt lat="44.44438" lon="4.97931">
        <ele>276.52</ele>
        <time>2016-09-25T09:46:03Z</time>
      </trkpt>
      <trkpt lat="44.4444" lon="4.97934">
        <ele>278.44</ele>
        <time>2016-09-25T09:46:04Z</time>
      </trkpt>
      <trkpt lat="44.44443" lon="4.97936">
        <ele>278.92</ele>
        <time>2016-09-25T09:46:05Z</time>
      </trkpt>
      <trkpt lat="44.44445" lon="4.97934">
        <ele>278.92</ele>
        <time>2016-09-25T09:46:06Z</time>
      </trkpt>
      <trkpt lat="44.44447" lon="4.9793">
        <ele>278.44</ele>
        <time>2016-09-25T09:46:07Z</time>
      </trkpt>
      <trkpt lat="44.44449" lon="4.97926">
        <ele>278.44</ele>
        <time>2016-09-25T09:46:08Z</time>
      </trkpt>
      <trkpt lat="44.44449" lon="4.9792">
        <ele>278.44</ele>
        <time>2016-09-25T09:46:09Z</time>
      </trkpt>
      <trkpt lat="44.4445" lon="4.97915">
        <ele>278.92</ele>
        <time>2016-09-25T09:46:10Z</time>
      </trkpt>
      <trkpt lat="44.44451" lon="4.97909">
        <ele>278.92</ele>
        <time>2016-09-25T09:46:11Z</time>
      </trkpt>
      <trkpt lat="44.44452" lon="4.97904">
        <ele>278.44</ele>
        <time>2016-09-25T09:46:12Z</time>
      </trkpt>
      <trkpt lat="44.4445" lon="4.97898">
        <ele>278.92</ele>
        <time>2016-09-25T09:46:13Z</time>
      </trkpt>
      <trkpt lat="44.44447" lon="4.97895">
        <ele>278.44</ele>
        <time>2016-09-25T09:46:14Z</time>
      </trkpt>
      <trkpt lat="44.44414" lon="4.9787">
        <ele>276.04</ele>
        <time>2016-09-25T09:46:21Z</time>
      </trkpt>
      <trkpt lat="44.44409" lon="4.97865">
        <ele>276.04</ele>
        <time>2016-09-25T09:46:22Z</time>
      </trkpt>
      <trkpt lat="44.44405" lon="4.97858">
        <ele>276.04</ele>
        <time>2016-09-25T09:46:23Z</time>
      </trkpt>
      <trkpt lat="44.44402" lon="4.9785">
        <ele>275.07</ele>
        <time>2016-09-25T09:46:24Z</time>
      </trkpt>
      <trkpt lat="44.44399" lon="4.97842">
        <ele>274.59</ele>
        <time>2016-09-25T09:46:25Z</time>
      </trkpt>
      <trkpt lat="44.44385" lon="4.9781">
        <ele>273.63</ele>
        <time>2016-09-25T09:46:29Z</time>
      </trkpt>
      <trkpt lat="44.4438" lon="4.97803">
        <ele>273.15</ele>
        <time>2016-09-25T09:46:30Z</time>
      </trkpt>
      <trkpt lat="44.44361" lon="4.97786">
        <ele>272.19</ele>
        <time>2016-09-25T09:46:33Z</time>
      </trkpt>
      <trkpt lat="44.44355" lon="4.97784">
        <ele>272.19</ele>
        <time>2016-09-25T09:46:34Z</time>
      </trkpt>
      <trkpt lat="44.44348" lon="4.97783">
        <ele>272.67</ele>
        <time>2016-09-25T09:46:35Z</time>
      </trkpt>
      <trkpt lat="44.44344" lon="4.97786">
        <ele>272.19</ele>
        <time>2016-09-25T09:46:36Z</time>
      </trkpt>
      <trkpt lat="44.4434" lon="4.9779">
        <ele>272.19</ele>
        <time>2016-09-25T09:46:37Z</time>
      </trkpt>
      <trkpt lat="44.44337" lon="4.97792">
        <ele>272.19</ele>
        <time>2016-09-25T09:46:38Z</time>
      </trkpt>
      <trkpt lat="44.44333" lon="4.97791">
        <ele>271.71</ele>
        <time>2016-09-25T09:46:39Z</time>
      </trkpt>
      <trkpt lat="44.4433" lon="4.97788">
        <ele>271.23</ele>
        <time>2016-09-25T09:46:40Z</time>
      </trkpt>
      <trkpt lat="44.44326" lon="4.97782">
        <ele>269.79</ele>
        <time>2016-09-25T09:46:41Z</time>
      </trkpt>
      <trkpt lat="44.44322" lon="4.97776">
        <ele>268.35</ele>
        <time>2016-09-25T09:46:42Z</time>
      </trkpt>
      <trkpt lat="44.44317" lon="4.97769">
        <ele>268.35</ele>
        <time>2016-09-25T09:46:43Z</time>
      </trkpt>
      <trkpt lat="44.44312" lon="4.97762">
        <ele>268.83</ele>
        <time>2016-09-25T09:46:44Z</time>
      </trkpt>
      <trkpt lat="44.44307" lon="4.97754">
        <ele>267.86</ele>
        <time>2016-09-25T09:46:45Z</time>
      </trkpt>
      <trkpt lat="44.44251" lon="4.97658">
        <ele>265.94</ele>
        <time>2016-09-25T09:46:57Z</time>
      </trkpt>
      <trkpt lat="44.44242" lon="4.97645">
        <ele>264.98</ele>
        <time>2016-09-25T09:46:59Z</time>
      </trkpt>
      <trkpt lat="44.44236" lon="4.97641">
        <ele>264.98</ele>
        <time>2016-09-25T09:47:00Z</time>
      </trkpt>
      <trkpt lat="44.44221" lon="4.97655">
        <ele>264.5</ele>
        <time>2016-09-25T09:47:03Z</time>
      </trkpt>
      <trkpt lat="44.44205" lon="4.97683">
        <ele>264.5</ele>
        <time>2016-09-25T09:47:07Z</time>
      </trkpt>
      <trkpt lat="44.44203" lon="4.97691">
        <ele>264.02</ele>
        <time>2016-09-25T09:47:08Z</time>
      </trkpt>
      <trkpt lat="44.44186" lon="4.97719">
        <ele>262.58</ele>
        <time>2016-09-25T09:47:12Z</time>
      </trkpt>
      <trkpt lat="44.44178" lon="4.97734">
        <ele>262.58</ele>
        <time>2016-09-25T09:47:14Z</time>
      </trkpt>
      <trkpt lat="44.44171" lon="4.97749">
        <ele>262.58</ele>
        <time>2016-09-25T09:47:16Z</time>
      </trkpt>
      <trkpt lat="44.44149" lon="4.9775">
        <ele>262.58</ele>
        <time>2016-09-25T09:47:22Z</time>
      </trkpt>
      <trkpt lat="44.44148" lon="4.97741">
        <ele>264.02</ele>
        <time>2016-09-25T09:47:32Z</time>
      </trkpt>
    </trkseg>
  </trk>
</gpx>